[[{"header":{"parameterUnit":"m.s-1","parameterCategory":1,"la1":30.6,"la2":29.2853,"lo1":-89.7004,"lo2":-87.6739,"dy":0.0162,"dx":0.0183,"nx":112,"ny":82,"refTime":"2023-05-07T12:00:00:Z","depth":0,"parameterNumber":2,"parameterNumberName":"U-component_of_WINDS"},"data":[0.0,0.0,0.0,0.0,0.0,0.0,0.0,0.0,0.0,0.0,0.0,0.0,0.0,0.0,0.0,0.0,0.0,0.0,0.0,0.0,0.0,0.0,0.0,0.0,0.0,0.0,0.0,0.0,0.0,0.0,0.0,0.0,0.0,0.0,0.0,0.0,0.0,0.0,0.0,0.0,0.0,0.0,0.0,0.0,0.0,0.0,0.0,0.0,0.0,0.0,0.0,0.0,0.0,0.0,0.0,0.0,0.0,0.0,0.0,0.0,0.0,0.0,0.0,0.0,0.0,0.0,0.0,0.0,0.0,0.0,0.0,0.0,0.0,0.0,0.0,0.0,0.0,0.0,0.0,0.0,0.0,0.0,0.0,0.0,0.0,0.0,0.0,0.0,0.0,0.0,-2.6786,-2.9677,-3.3292,-3.5154,-3.4263,-3.3295,-3.0925,-2.6693,0.0,0.0,0.0,0.0,0.0,0.0,0.0,0.0,0.0,0.0,0.0,0.0,0.0,0.0,0.0,0.0,0.0,0.0,0.0,0.0,0.0,0.0,0.0,0.0,0.0,0.0,0.0,0.0,0.0,0.0,0.0,0.0,0.0,0.0,0.0,0.0,0.0,0.0,0.0,0.0,0.0,0.0,0.0,0.0,0.0,0.0,0.0,0.0,0.0,0.0,0.0,0.0,0.0,0.0,0.0,0.0,0.0,0.0,0.0,0.0,0.0,0.0,0.0,0.0,0.0,0.0,0.0,0.0,0.0,0.0,0.0,0.0,0.0,0.0,0.0,0.0,0.0,0.0,0.0,0.0,0.0,0.0,0.0,0.0,0.0,0.0,0.0,0.0,0.0,0.0,0.0,0.0,0.0,0.0,0.0,0.0,0.0,0.0,0.0,0.0,0.0,0.0,0.0,0.0,-2.8311,-3.3016,-3.4705,-3.5154,-3.4263,-3.2776,-3.0365,-2.6787,0.0,0.0,0.0,0.0,0.0,0.0,0.0,0.0,0.0,0.0,0.0,0.0,0.0,0.0,0.0,0.0,0.0,0.0,0.0,0.0,0.0,0.0,0.0,0.0,0.0,0.0,0.0,0.0,0.0,0.0,0.0,0.0,0.0,0.0,0.0,0.0,0.0,0.0,0.0,0.0,0.0,0.0,0.0,0.0,0.0,0.0,0.0,0.0,0.0,0.0,0.0,0.0,0.0,0.0,0.0,0.0,0.0,0.0,0.0,0.0,0.0,0.0,0.0,0.0,0.0,0.0,0.0,0.0,0.0,0.0,0.0,0.0,0.0,0.0,0.0,0.0,0.0,0.0,0.0,0.0,0.0,0.0,0.0,0.0,0.0,0.0,0.0,0.0,0.0,0.0,0.0,0.0,0.0,0.0,0.0,0.0,0.0,0.0,0.0,0.0,0.0,0.0,0.0,-2.7056,-2.9457,-3.3153,-3.4295,-3.4449,-3.3564,-3.1525,-2.9236,-2.6755,-2.4053,0.0,0.0,0.0,0.0,0.0,0.0,0.0,0.0,0.0,0.0,0.0,0.0,0.0,0.0,0.0,0.0,0.0,0.0,0.0,0.0,0.0,0.0,0.0,0.0,0.0,0.0,0.0,0.0,0.0,0.0,0.0,0.0,0.0,0.0,0.0,0.0,0.0,0.0,0.0,0.0,0.0,0.0,0.0,0.0,0.0,0.0,0.0,0.0,0.0,0.0,0.0,0.0,0.0,0.0,0.0,0.0,0.0,0.0,0.0,0.0,0.0,0.0,0.0,0.0,0.0,0.0,0.0,0.0,0.0,0.0,0.0,0.0,0.0,0.0,0.0,0.0,0.0,0.0,0.0,0.0,0.0,0.0,0.0,0.0,0.0,0.0,0.0,0.0,0.0,0.0,0.0,0.0,0.0,0.0,0.0,0.0,0.0,0.0,0.0,0.0,0.0,0.0,-2.8861,-3.0453,-3.2948,-3.3622,-3.3545,-3.2699,-3.0454,-2.8299,-2.6404,-2.3466,0.0,0.0,0.0,0.0,0.0,0.0,0.0,0.0,0.0,0.0,0.0,0.0,0.0,0.0,0.0,0.0,0.0,0.0,0.0,0.0,0.0,0.0,0.0,0.0,0.0,0.0,0.0,0.0,0.0,0.0,0.0,0.0,0.0,0.0,0.0,0.0,0.0,0.0,0.0,0.0,0.0,0.0,0.0,0.0,0.0,0.0,0.0,0.0,0.0,0.0,0.0,0.0,0.0,0.0,0.0,0.0,0.0,0.0,0.0,0.0,0.0,0.0,0.0,0.0,0.0,0.0,0.0,0.0,0.0,0.0,0.0,0.0,0.0,0.0,0.0,0.0,0.0,0.0,0.0,0.0,0.0,0.0,0.0,0.0,0.0,0.0,0.0,0.0,0.0,0.0,0.0,0.0,0.0,0.0,0.0,0.0,0.0,0.0,0.0,0.0,0.0,0.0,-2.9366,-3.1357,-3.3834,-3.343,-3.266,-3.1852,-3.0121,-2.8044,-2.5558,-2.3697,0.0,0.0,0.0,0.0,0.0,0.0,0.0,0.0,0.0,0.0,0.0,0.0,0.0,0.0,0.0,0.0,0.0,0.0,0.0,0.0,0.0,0.0,0.0,0.0,0.0,0.0,0.0,0.0,0.0,0.0,0.0,0.0,0.0,0.0,0.0,0.0,0.0,0.0,0.0,0.0,0.0,0.0,0.0,0.0,0.0,0.0,0.0,0.0,0.0,0.0,0.0,0.0,0.0,0.0,0.0,0.0,0.0,0.0,0.0,0.0,0.0,0.0,0.0,0.0,0.0,0.0,0.0,0.0,0.0,0.0,0.0,0.0,0.0,0.0,0.0,0.0,0.0,0.0,0.0,0.0,0.0,0.0,0.0,0.0,0.0,0.0,0.0,0.0,0.0,0.0,0.0,0.0,0.0,0.0,0.0,0.0,0.0,0.0,0.0,0.0,0.0,0.0,-2.8178,-2.9897,-3.239,-3.2352,-3.1583,-3.0198,-2.903,-2.703,-2.3947,0.0,0.0,0.0,0.0,0.0,0.0,0.0,0.0,0.0,0.0,0.0,0.0,0.0,0.0,0.0,0.0,0.0,0.0,0.0,0.0,0.0,0.0,0.0,0.0,0.0,0.0,0.0,0.0,0.0,0.0,0.0,0.0,0.0,0.0,0.0,0.0,0.0,0.0,0.0,0.0,0.0,0.0,0.0,0.0,0.0,0.0,0.0,0.0,0.0,0.0,0.0,0.0,0.0,0.0,0.0,0.0,0.0,0.0,0.0,0.0,0.0,0.0,0.0,0.0,0.0,0.0,0.0,0.0,0.0,0.0,0.0,0.0,0.0,0.0,0.0,0.0,0.0,0.0,0.0,0.0,0.0,0.0,0.0,0.0,0.0,0.0,0.0,0.0,0.0,0.0,0.0,0.0,0.0,0.0,0.0,0.0,0.0,0.0,0.0,0.0,0.0,0.0,-2.6193,-2.7189,-2.854,-3.1018,-3.0814,-3.0006,-2.8819,-2.7472,-2.5587,-2.297,0.0,0.0,0.0,0.0,0.0,0.0,0.0,0.0,0.0,0.0,0.0,0.0,0.0,0.0,0.0,0.0,0.0,0.0,0.0,0.0,0.0,0.0,0.0,0.0,0.0,0.0,0.0,0.0,0.0,0.0,0.0,0.0,0.0,0.0,0.0,0.0,0.0,0.0,0.0,0.0,0.0,0.0,0.0,0.0,0.0,0.0,0.0,0.0,0.0,0.0,0.0,0.0,0.0,0.0,0.0,0.0,0.0,0.0,0.0,0.0,0.0,0.0,0.0,0.0,0.0,0.0,0.0,0.0,0.0,0.0,0.0,0.0,0.0,0.0,0.0,0.0,0.0,0.0,0.0,0.0,0.0,0.0,0.0,0.0,0.0,0.0,0.0,0.0,0.0,0.0,0.0,0.0,0.0,0.0,0.0,0.0,0.0,0.0,0.0,0.0,0.0,0.0,-2.6251,-2.6648,-2.7636,-3.0108,-2.889,-2.7895,-2.7876,-2.5568,-2.3725,0.0,0.0,0.0,0.0,0.0,0.0,0.0,0.0,0.0,0.0,0.0,0.0,0.0,0.0,0.0,0.0,0.0,0.0,0.0,0.0,0.0,0.0,0.0,0.0,0.0,0.0,0.0,0.0,0.0,0.0,0.0,0.0,0.0,0.0,0.0,0.0,0.0,0.0,0.0,0.0,0.0,0.0,0.0,0.0,0.0,0.0,0.0,0.0,0.0,0.0,0.0,0.0,0.0,0.0,0.0,0.0,0.0,0.0,0.0,0.0,0.0,0.0,0.0,0.0,0.0,0.0,0.0,0.0,0.0,0.0,0.0,0.0,0.0,0.0,0.0,0.0,0.0,0.0,0.0,0.0,0.0,0.0,0.0,0.0,0.0,0.0,0.0,0.0,0.0,0.0,0.0,0.0,0.0,0.0,0.0,0.0,0.0,0.0,0.0,0.0,0.0,0.0,0.0,-2.4672,-2.5964,-2.7249,-2.8508,-2.8179,-2.739,-2.6173,-2.5385,-2.3562,-2.0319,0.0,0.0,0.0,0.0,0.0,0.0,0.0,0.0,0.0,0.0,0.0,0.0,0.0,0.0,0.0,0.0,0.0,0.0,0.0,0.0,0.0,0.0,0.0,0.0,0.0,0.0,0.0,0.0,0.0,0.0,0.0,0.0,0.0,0.0,0.0,0.0,0.0,0.0,0.0,0.0,0.0,0.0,0.0,0.0,0.0,0.0,0.0,0.0,0.0,0.0,0.0,0.0,0.0,0.0,0.0,0.0,0.0,0.0,0.0,0.0,0.0,0.0,0.0,0.0,0.0,0.0,0.0,0.0,0.0,0.0,0.0,0.0,0.0,0.0,0.0,0.0,0.0,0.0,0.0,0.0,0.0,0.0,0.0,0.0,0.0,0.0,0.0,0.0,0.0,0.0,0.0,0.0,0.0,0.0,0.0,0.0,0.0,0.0,0.0,0.0,0.0,0.0,-2.3528,-2.5182,-2.6447,-2.6866,-2.6598,-2.5818,-2.4428,-2.3981,-2.2427,-1.9203,0.0,0.0,0.0,0.0,0.0,0.0,0.0,0.0,0.0,0.0,0.0,0.0,0.0,0.0,0.0,0.0,0.0,0.0,0.0,0.0,0.0,0.0,0.0,0.0,0.0,0.0,0.0,0.0,0.0,0.0,0.0,0.0,0.0,0.0,0.0,0.0,0.0,0.0,0.0,0.0,0.0,0.0,0.0,0.0,0.0,0.0,0.0,0.0,0.0,0.0,0.0,0.0,0.0,0.0,0.0,0.0,0.0,0.0,0.0,0.0,0.0,0.0,0.0,0.0,0.0,0.0,0.0,0.0,0.0,0.0,0.0,0.0,0.0,0.0,0.0,0.0,0.0,0.0,0.0,0.0,0.0,0.0,0.0,0.0,0.0,0.0,0.0,0.0,0.0,0.0,0.0,0.0,0.0,0.0,0.0,0.0,0.0,0.0,0.0,0.0,0.0,0.0,-2.2684,-2.4308,-2.5365,-2.5297,-2.4503,-2.3624,-2.2759,-2.1947,-2.0773,-1.9107,0.0,0.0,0.0,0.0,0.0,0.0,0.0,0.0,0.0,0.0,0.0,0.0,0.0,0.0,0.0,0.0,0.0,0.0,0.0,0.0,0.0,0.0,0.0,0.0,0.0,0.0,0.0,0.0,0.0,0.0,0.0,0.0,0.0,0.0,0.0,0.0,0.0,0.0,0.0,0.0,0.0,0.0,0.0,0.0,0.0,0.0,0.0,0.0,0.0,0.0,0.0,0.0,0.0,0.0,0.0,0.0,0.0,0.0,0.0,0.0,-2.7621,-2.853,0.0,0.0,0.0,0.0,0.0,0.0,0.0,0.0,0.0,0.0,0.0,0.0,0.0,0.0,0.0,0.0,0.0,0.0,0.0,0.0,0.0,0.0,0.0,0.0,0.0,0.0,0.0,0.0,0.0,0.0,0.0,0.0,0.0,0.0,0.0,0.0,0.0,0.0,0.0,0.0,-2.1853,-2.3458,-2.4537,-2.4455,-2.3639,-2.272,-2.185,-2.162,-2.0773,-1.9107,-1.8184,0.0,0.0,0.0,0.0,0.0,0.0,0.0,0.0,0.0,0.0,0.0,0.0,0.0,0.0,0.0,0.0,0.0,0.0,0.0,0.0,0.0,0.0,0.0,0.0,0.0,0.0,0.0,0.0,0.0,0.0,0.0,0.0,0.0,0.0,0.0,0.0,0.0,0.0,0.0,0.0,0.0,0.0,0.0,0.0,0.0,0.0,0.0,0.0,0.0,0.0,0.0,0.0,0.0,0.0,0.0,0.0,0.0,0.0,0.0,-2.8044,-2.8145,0.0,0.0,0.0,0.0,0.0,0.0,0.0,0.0,0.0,0.0,0.0,0.0,0.0,0.0,0.0,0.0,0.0,0.0,0.0,0.0,0.0,0.0,0.0,0.0,0.0,0.0,0.0,0.0,0.0,0.0,0.0,0.0,0.0,0.0,0.0,0.0,0.0,0.0,0.0,0.0,-2.1563,-2.3189,-2.4112,-2.3628,-2.2732,-2.1831,-2.0981,-2.0923,-2.0369,-1.9088,-1.8588,0.0,0.0,0.0,0.0,0.0,0.0,0.0,0.0,0.0,0.0,0.0,0.0,0.0,0.0,0.0,0.0,0.0,0.0,0.0,0.0,0.0,0.0,0.0,0.0,0.0,0.0,0.0,0.0,0.0,0.0,0.0,0.0,0.0,0.0,0.0,0.0,0.0,0.0,0.0,0.0,0.0,0.0,0.0,0.0,0.0,0.0,0.0,0.0,0.0,0.0,0.0,0.0,0.0,-3.0242,-3.0952,-3.0932,-3.1258,-3.1289,-3.0962,-2.9121,-2.8159,-2.7934,-2.8299,0.0,0.0,0.0,0.0,0.0,0.0,0.0,0.0,0.0,0.0,0.0,0.0,0.0,0.0,0.0,0.0,0.0,0.0,0.0,0.0,0.0,0.0,0.0,0.0,-2.2637,-2.2694,-2.1192,0.0,0.0,0.0,0.0,0.0,0.0,0.0,0.0,0.0,0.0,0.0,-2.1543,-2.306,-2.3765,-2.2972,-2.1922,-2.1019,-2.0365,-2.0154,-1.9773,-1.9049,-1.8857,-1.8453,0.0,0.0,0.0,0.0,0.0,0.0,0.0,0.0,0.0,0.0,0.0,0.0,0.0,0.0,0.0,0.0,0.0,0.0,0.0,0.0,0.0,0.0,0.0,0.0,0.0,0.0,0.0,0.0,0.0,0.0,0.0,0.0,-2.5819,-2.7607,0.0,0.0,0.0,0.0,0.0,0.0,0.0,0.0,0.0,0.0,0.0,0.0,0.0,-2.884,-2.884,-2.8966,-2.935,-2.9959,-2.9739,-3.0829,-3.2938,-3.1131,-3.1551,-3.3564,-3.1141,0.0,-2.7799,-2.6385,0.0,0.0,0.0,0.0,0.0,0.0,0.0,0.0,0.0,0.0,0.0,0.0,0.0,0.0,0.0,0.0,0.0,0.0,0.0,0.0,0.0,0.0,-2.2969,-2.3008,-2.3105,-2.3105,0.0,-2.2334,-2.1862,-2.1566,-2.0525,0.0,0.0,0.0,0.0,0.0,0.0,0.0,-2.1675,-2.2559,-2.3108,-2.2914,-2.1439,-2.0423,-2.0308,-1.9612,-1.9115,-1.9011,-1.8299,-1.7815,-1.7699,-1.693,0.0,0.0,0.0,0.0,0.0,0.0,0.0,0.0,0.0,0.0,0.0,0.0,0.0,0.0,0.0,0.0,0.0,0.0,0.0,0.0,0.0,0.0,0.0,0.0,0.0,0.0,0.0,0.0,0.0,-2.5695,-2.6214,-2.6777,-2.5838,-2.4845,0.0,0.0,0.0,0.0,0.0,0.0,0.0,0.0,0.0,-2.7923,-2.9512,-3.0356,-3.0356,-3.1256,-3.1728,-3.1774,-3.1983,-3.2885,-3.4327,-3.3345,-3.3654,-3.4814,-3.2718,-3.0852,-2.9179,-2.7467,-2.6193,-2.523,0.0,0.0,0.0,0.0,-2.4464,-2.4011,-2.5737,-2.5785,-2.4916,-2.3984,0.0,0.0,0.0,0.0,0.0,0.0,0.0,0.0,0.0,0.0,-2.3848,-2.3867,-2.3867,-2.3867,-2.3848,-2.2792,-2.1985,0.0,-2.229,-2.1628,-2.0097,0.0,0.0,0.0,0.0,-2.174,-2.1699,-2.2486,-2.2828,-2.2229,-2.1056,-2.029,-2.0292,-1.9504,-1.9007,-1.8992,-1.8184,-1.7699,-1.7699,-1.693,-1.6468,0.0,0.0,0.0,0.0,0.0,0.0,0.0,0.0,0.0,0.0,0.0,0.0,0.0,0.0,0.0,0.0,0.0,0.0,0.0,0.0,0.0,0.0,0.0,0.0,0.0,0.0,0.0,0.0,-2.5641,-2.6134,-2.5894,-2.5772,-2.5172,0.0,0.0,0.0,0.0,0.0,0.0,-2.6833,-2.7677,-2.8576,-2.9574,-3.098,-3.1806,-3.2021,-3.3201,-3.3613,-3.3215,-3.388,-3.4427,-3.486,-3.4963,-3.5138,-3.5314,-3.3779,-3.2327,-3.0885,-2.8775,-2.6871,-2.5221,-2.4412,-2.3603,-2.3117,-2.4835,-2.4924,-2.4494,-2.6496,-2.6472,-2.5375,-2.4134,-2.3339,-2.2637,-2.1328,0.0,0.0,0.0,0.0,-2.2402,-2.3223,-2.3906,-2.4453,-2.4687,-2.4551,-2.4394,-2.4394,-2.3262,-2.2343,0.0,-2.3134,-2.2792,-2.077,0.0,0.0,0.0,-2.0798,-2.1774,-2.1731,-2.2347,-2.2479,-2.1707,-2.0643,-1.9981,-1.9992,-1.8991,-1.8365,-1.8358,-1.7748,-1.7391,-1.7391,-1.6814,-1.6506,-1.6506,0.0,0.0,0.0,0.0,0.0,0.0,0.0,0.0,0.0,0.0,0.0,0.0,0.0,0.0,0.0,0.0,0.0,0.0,0.0,0.0,0.0,0.0,0.0,0.0,0.0,0.0,0.0,0.0,0.0,-2.5445,-2.6131,0.0,0.0,0.0,0.0,-2.5209,-2.6007,-2.6851,-2.7688,-2.8503,-2.9647,-3.1231,-3.21,-3.2913,-3.366,-3.3752,-3.3802,-3.376,-3.4074,-3.4211,-3.4246,-3.4572,-3.487,-3.5064,-3.4149,-3.3379,-3.2526,-2.9256,-2.6871,-2.5221,-2.4401,-2.361,-2.3107,-2.4784,-2.4882,-2.4557,-2.7062,-2.687,-2.5503,-2.5483,-2.3877,-2.1953,-2.1855,-2.1836,0.0,0.0,-2.2441,-2.3242,-2.4102,-2.4375,-2.4609,-2.5449,-2.5,-2.4394,-2.4394,-2.373,-2.2891,0.0,-2.1328,-2.0721,-2.0528,0.0,-2.0428,-2.0426,-2.121,-2.1796,-2.1807,-2.1832,-2.1823,-2.1708,-2.0163,-1.9165,-1.9157,-1.7604,-1.6636,-1.664,-1.6572,-1.6564,-1.6564,-1.6522,-1.6506,-1.6506,-1.5632,0.0,0.0,0.0,0.0,0.0,0.0,0.0,0.0,0.0,0.0,0.0,0.0,0.0,0.0,0.0,0.0,0.0,0.0,0.0,0.0,0.0,0.0,0.0,0.0,0.0,0.0,0.0,0.0,-2.6955,-2.7695,0.0,-2.7027,-2.6935,-2.6935,-2.6935,-2.8172,-2.9274,-3.0075,-3.0889,-3.1825,-3.2908,-3.322,-3.3513,-3.3807,-3.3807,-3.3807,-3.3807,-3.3902,-3.4031,-3.42,-3.4334,-3.4636,-3.5047,-3.4189,-3.3467,-3.2776,-3.1044,-2.9313,-2.7607,-2.6237,-2.5523,-2.5287,-2.5321,-2.5159,-2.4969,-2.5395,-2.5156,-2.4502,-2.3472,-2.2219,-2.1055,-2.1055,-2.1055,-2.1172,-2.1738,-2.2109,-2.2539,-2.3398,-2.3633,-2.3711,-2.4023,-2.3437,-2.2793,-2.2793,-2.2129,-2.1426,-2.1113,-2.1269,-2.1425,-2.1352,-2.091,-2.0542,-2.051,-2.1281,-2.1658,-2.111,-2.1032,-2.0793,-2.0158,-1.9022,-1.8307,-1.8271,-1.7227,-1.6559,-1.6553,-1.6042,-1.573,-1.573,-1.5731,-1.5729,-1.5729,-1.5372,-1.5177,0.0,0.0,0.0,0.0,0.0,0.0,0.0,0.0,0.0,0.0,0.0,0.0,0.0,0.0,0.0,0.0,0.0,0.0,0.0,0.0,0.0,0.0,0.0,0.0,0.0,-2.6164,-2.7505,-2.7862,-2.9381,-2.9948,-2.873,-2.9347,-2.9714,-2.9439,-3.0668,-3.177,-3.2577,-3.3115,-3.3647,-3.4192,-3.4197,-3.4082,-3.3807,-3.3807,-3.3807,-3.3807,-3.3807,-3.3889,-3.4068,-3.4068,-3.4327,-3.4766,-3.43,-3.3759,-3.3151,-3.2404,-3.1256,-2.9813,-2.8102,-2.7101,-2.6563,-2.6269,-2.5808,-2.5221,-2.4732,-2.4393,-2.3954,-2.2609,-2.144,-2.0564,-2.0564,-2.0781,-2.1152,-2.1738,-2.2109,-2.2461,-2.3047,-2.3184,-2.3164,-2.3184,-2.2539,-2.1894,-2.1894,-2.1211,-2.0605,-2.0605,-2.1074,-2.1445,-2.1399,-2.0955,-2.0585,-2.054,-2.1053,-2.125,-2.0664,-2.0332,-1.9921,-1.9309,-1.8193,-1.7483,-1.742,-1.664,-1.6166,-1.6194,-1.5636,-1.53,-1.5296,-1.5292,-1.53,-1.53,-1.5232,-1.5192,-1.5192,0.0,0.0,0.0,0.0,0.0,0.0,0.0,0.0,0.0,0.0,0.0,0.0,0.0,0.0,0.0,0.0,0.0,0.0,0.0,0.0,0.0,0.0,0.0,-2.4745,-2.691,-2.8446,-2.8105,-3.113,-3.2484,-3.0552,-3.2491,-3.3537,-3.2766,-3.344,-3.4229,-3.5004,-3.5041,-3.5041,-3.5041,-3.5023,-3.4619,-3.3844,-3.3807,-3.3807,-3.3807,-3.3807,-3.3807,-3.3807,-3.3807,-3.3948,-3.4223,-3.4551,-3.4321,-3.3729,-3.3138,-3.2404,-3.1481,-2.9775,-2.8082,-2.6736,-2.7563,-2.6755,-2.5269,-2.5269,-2.4722,-2.3897,-2.3111,-2.1794,-2.0507,-2.0507,-2.1127,-2.1855,-2.1855,-2.2461,-2.3125,-2.3125,-2.3066,-2.3047,-2.3105,-2.2461,-2.1855,-2.1855,-2.1191,-2.0605,-2.0605,-2.0605,-2.0605,-2.0605,-2.0605,-2.0605,-2.0605,-2.0605,0.0,-2.0605,-1.9824,-1.9258,-1.9258,-1.7695,-1.666,-1.666,-1.5838,-1.533,-1.5409,-1.5336,-1.5292,-1.5299,-1.5295,-1.5302,-1.53,-1.5234,-1.5195,-1.5192,0.0,0.0,0.0,0.0,0.0,0.0,0.0,0.0,0.0,0.0,0.0,0.0,0.0,0.0,0.0,0.0,0.0,0.0,0.0,0.0,0.0,-2.6945,-2.8602,-2.7876,-2.9111,-3.0473,-3.1481,-3.3177,-3.422,-3.4054,-3.464,-3.5087,-3.5265,-3.5495,-3.5716,-3.5936,-3.5936,-3.5936,-3.5936,-3.5334,-3.4894,-3.4674,-3.41,-3.3807,-3.3807,-3.3807,-3.3807,-3.3807,-3.3807,-3.4074,-3.4551,-3.4401,-3.3835,-3.2986,-3.2726,-3.1781,-3.0445,-2.9471,-2.8453,-2.7505,-2.7101,-2.587,-2.4432,-2.4432,-2.3496,-2.2243,-2.2023,-2.127,-2.043,-2.0438,-2.0637,-2.0888,-2.0888,-2.1091,-2.1309,-2.1309,-2.1309,-2.1289,-2.1309,-2.1133,-2.0957,-2.0957,-2.0762,-2.0605,-2.0605,-2.0605,-2.0605,-2.0605,-2.0605,-2.0605,-2.0605,-2.0605,0.0,-2.0605,-1.9297,-1.8359,-1.8359,-1.6797,-1.5762,-1.5762,-1.5525,-1.5387,-1.5409,-1.5383,-1.5362,-1.5367,-1.5367,-1.5345,-1.53,-1.5282,-1.5248,0.0,0.0,0.0,0.0,0.0,0.0,0.0,0.0,0.0,0.0,0.0,0.0,0.0,0.0,0.0,0.0,0.0,0.0,0.0,0.0,0.0,0.0,-2.9194,-3.119,-3.1681,-3.2056,-3.2704,-3.3794,-3.53,-3.6167,-3.5974,-3.649,-3.669,-3.6325,-3.6303,-3.645,-3.6795,-3.6813,-3.6652,-3.6303,-3.5807,-3.5206,-3.4491,-3.4027,-3.3807,-3.3807,-3.3807,-3.3807,-3.3807,-3.3807,-3.4005,-3.4371,-3.4409,-3.3881,-3.301,-3.2713,-3.1881,0.0,0.0,0.0,0.0,0.0,-2.5221,-2.4061,-2.3676,-2.2701,-2.1539,-2.1162,-2.0768,-2.0392,-2.0398,-2.0451,-2.0497,-2.0497,-2.0534,-2.0565,-2.0565,-2.0586,-2.0605,-2.0605,-2.0605,-2.0605,-2.0605,-2.0605,-2.0605,-2.0604,-2.0604,0.0,-2.0605,-2.0605,-2.0605,-2.0605,-2.0605,-2.0605,-2.0605,-1.9394,-1.8535,-1.8535,-1.7305,-1.6348,-1.5977,-1.5937,0.0,0.0,0.0,-1.5406,-1.5407,-1.5399,0.0,0.0,0.0,-1.5282,-1.524,0.0,0.0,0.0,-1.5821,-1.5773,0.0,0.0,0.0,0.0,0.0,0.0,0.0,0.0,0.0,0.0,0.0,0.0,0.0,0.0,0.0,0.0,-3.1596,-3.3389,-3.5453,-3.5318,-3.512,-3.5463,-3.7178,-3.7937,-3.6896,-3.7911,-3.8086,-3.6688,-3.656,-3.6872,-3.7603,-3.7547,0.0,0.0,0.0,-3.544,-3.3954,-3.3844,-3.3807,-3.3807,-3.382,-3.382,-3.382,-3.3815,-3.3868,-3.3998,-3.4315,-3.407,-3.3327,-3.2724,-3.1993,-3.1078,-2.9563,-2.8472,-2.7549,-2.5904,-2.486,-2.4147,-2.3366,0.0,0.0,-2.0838,-2.0505,-2.0388,-2.0388,-2.0433,-2.0492,-2.0492,-2.0494,-2.0494,-2.0498,-2.0545,-2.0586,-2.0586,-2.0585,-2.0604,-2.0604,-2.0605,-2.0605,-2.0602,-2.0604,-2.0605,-2.0604,-2.0526,-2.0488,-2.0586,-2.0527,-2.0488,-2.0586,-1.9843,-1.9296,-1.9297,0.0,0.0,-1.6914,-1.6851,-1.6478,-1.5605,-1.5443,-1.5398,-1.5397,-1.5397,-1.5369,-1.5302,-1.5301,-1.5311,-1.5298,-1.5237,-1.5259,-1.5346,-1.525,-1.5194,0.0,0.0,0.0,0.0,0.0,0.0,0.0,0.0,0.0,0.0,0.0,0.0,0.0,0.0,0.0,-3.07,-3.322,-3.5351,-3.6423,-3.7466,-3.7953,-3.7437,-3.7746,-3.7996,-3.7968,-3.8212,-3.8331,-3.8242,-3.8248,-3.8303,-3.8469,-3.786,-3.7437,-3.7272,-3.5973,-3.5096,-3.4766,-3.4105,-3.3807,-3.3807,0.0,0.0,-3.3881,-3.3934,-3.4124,-3.4337,-3.3515,-3.2965,-3.2522,-3.1497,-3.0023,-2.8383,-2.8197,-2.7612,-2.6723,-2.5678,-2.5231,-2.5124,-2.4951,-2.3908,-2.2617,-2.2458,-2.1442,-2.0324,-2.0321,-2.0372,0.0,-2.0417,-2.0457,-2.0509,-2.049,-2.0511,-2.0524,-2.0524,-2.0566,-2.0602,-2.0602,-2.0603,-2.0603,-2.0602,-2.0601,-2.0601,-2.0602,-2.0018,-1.9785,-2.0488,-2.0,-1.9804,-2.0508,-1.9844,-1.9297,-1.9297,-1.8516,-1.793,-1.7754,-1.7754,-1.7383,-1.6504,-1.5781,-1.5409,-1.5409,-1.5409,-1.5384,-1.5384,-1.5375,-1.5344,-1.5308,-1.5296,-1.5612,-1.6234,-1.5538,-1.5552,0.0,0.0,0.0,0.0,0.0,0.0,0.0,0.0,0.0,0.0,0.0,-2.6505,-2.7638,0.0,-3.1681,-3.3169,-3.5301,-3.7026,-3.7794,-3.886,-3.9276,-3.8531,-3.8683,-3.8756,-3.8486,-3.8612,-3.86,-3.8322,-3.8546,-3.8524,-3.812,-3.7731,-3.7125,-3.6285,-3.5445,-3.4816,-3.4453,-3.4044,-3.3855,-3.3895,-3.3934,-3.3947,-3.3947,-3.3985,-3.4111,-3.4274,-3.3841,-3.3122,-3.2157,-3.0899,-2.9485,-2.8091,-2.7958,-2.7122,-2.5948,-2.5505,-2.5118,-2.4793,-2.4793,-2.3975,-2.2836,-2.2422,-2.1707,-2.0927,-2.0489,-2.0375,-2.0402,-2.0402,-2.041,-2.0453,-2.0457,-2.0467,-2.0508,-2.0508,-2.0536,-2.0544,-2.0547,-2.0547,-2.0566,-2.0581,-2.0601,-2.0602,-2.0601,-1.9879,-1.9608,-2.0468,-2.0234,-2.0116,-2.0547,-2.0215,-1.9941,-1.9941,-1.9551,-1.9121,-1.8691,-1.7851,-1.7168,-1.6738,-1.5879,-1.5605,-1.6035,-1.5625,-1.5604,-1.6049,-1.5626,-1.5371,-1.5357,-1.5313,-1.5504,-1.5898,-1.5421,-1.5888,0.0,0.0,0.0,0.0,0.0,0.0,0.0,-2.4311,-2.4887,-2.6742,-2.806,-2.9311,-3.07,-3.2408,-3.415,-3.5769,-3.7094,-3.821,-3.9089,-3.9605,-3.9673,-3.9056,-3.9378,-3.9364,-3.8676,-3.8807,-3.8564,-3.7628,-3.8129,-3.8086,-3.7201,-3.7059,-3.6395,-3.5073,-3.4871,-3.4508,-3.3939,-3.3921,-3.3947,-3.3998,-3.4011,-3.4023,-3.4005,-3.387,-3.3852,-3.3876,-3.3639,-3.2689,-3.1229,-3.0024,-2.9064,-2.8309,-2.779,-2.6778,-2.561,-2.5455,-2.4994,-2.4436,-2.4436,-2.3871,-2.3058,-2.24,-2.1978,-2.1572,-2.0869,-2.0537,-2.0402,-2.0402,-2.0402,-2.0405,-2.0391,-2.0447,-2.0477,-2.0477,-2.0483,-2.0497,-2.0498,-2.05,-2.0524,-2.0564,-2.0582,-2.0603,-2.06,-2.0013,-1.978,-2.0487,-2.0466,-2.0408,-2.0586,-2.0605,-2.0605,-2.0605,-2.0605,-2.0312,-1.9609,-1.8104,-1.7206,-1.7207,-1.6387,-1.6133,-1.668,-1.6035,-1.5898,-1.6445,-1.5751,-1.5407,-1.5401,-1.5347,-1.5399,-1.5533,-1.5482,-1.6185,-2.484,-2.5405,-2.5848,-2.5705,-2.531,-2.6064,0.0,-2.946,-2.8722,-3.1891,-3.2662,-3.3034,-3.3863,-3.4201,-3.5081,-3.7297,-3.7804,-3.8396,-3.9791,-3.9486,-3.9089,-3.9005,-3.9044,-3.8962,-3.8632,-3.8462,-3.7835,-3.6488,-3.7146,-3.7116,-3.5965,-3.5517,-3.5252,-3.5174,-3.4434,-3.4013,-3.3985,-3.3985,-3.3998,-3.3998,-3.4061,-3.4086,-3.408,-3.3406,-3.3127,-3.302,-3.1019,-2.9541,-2.848,-2.7805,-2.753,-2.7456,-2.669,-2.6427,-2.6386,-2.5668,-2.5348,-2.5266,-2.5266,-2.4737,-2.4041,-2.3944,-2.2903,-2.1688,-2.1572,-2.1004,-2.0402,-2.0402,-2.0405,-2.0395,-2.0395,-2.041,-2.0418,-2.0418,-2.0451,-2.0498,-2.0501,-2.0498,-2.0506,-2.0506,-2.0565,-2.0596,-2.0599,-2.0521,-2.0484,-2.0585,-1.994,-1.9725,-2.0508,-2.0605,-2.0605,-2.0605,-2.0605,-2.0566,-2.0469,-1.957,-1.9004,-1.9004,-1.8184,-1.7402,-1.6738,-1.6601,-1.6249,-1.5564,-1.5444,-1.5396,-1.5392,-1.5386,-1.5737,-1.6372,-1.6356,-1.6466,-2.7315,-2.7692,-2.7795,-2.7795,-2.8216,-2.9181,-3.1205,-3.1142,-3.1183,-3.3009,-3.3744,-3.4134,-3.4438,-3.5571,-3.6654,-3.7161,-3.7973,-3.8599,-3.8785,-3.8548,-3.8193,-3.7753,-3.7726,-3.7685,-3.7564,-3.7351,-3.7073,-3.6804,-3.6924,-3.6737,-3.609,-3.5388,-3.4816,-3.4398,-3.4071,-3.3934,-3.3998,-3.4036,-3.4074,-3.4124,-3.4148,-3.4161,-3.4142,-3.3832,-3.3436,-3.289,-3.0998,-2.9683,-2.8804,-2.8156,-2.7941,-2.7929,-2.7274,-2.7083,-2.7042,-2.5842,-2.5404,-2.5401,-2.5433,-2.5232,-2.4873,-2.435,-2.3732,-2.2961,-2.1998,-2.1453,-2.1043,-2.0537,-2.0402,-2.0402,-2.0402,-2.0407,-2.0391,-2.0391,-2.0415,-2.0443,-2.0437,-2.0437,-2.0459,-2.0484,-2.0527,-2.0546,-2.0598,-2.0596,-2.0774,-2.1286,-2.0603,-2.0369,-2.1249,-2.0917,-2.0604,-2.0605,-2.0605,-2.0605,-2.0605,-1.9804,-1.9296,-1.9297,-1.8476,-1.8066,-1.8203,-1.7734,-1.7284,-1.6911,-1.6402,-1.5909,-1.5392,-1.5398,-1.5794,-1.6553,-1.6517,-1.6758,-2.8163,-2.8881,-2.9568,-2.9365,-3.0717,-3.2154,-3.2374,-3.2831,-3.3406,-3.4184,-3.459,-3.4861,-3.5081,-3.6299,-3.7229,-3.711,-3.7845,-3.8278,-3.7956,-3.7533,-3.6992,-3.6254,-3.5814,-3.556,-3.556,-3.5874,-3.6122,-3.6231,-3.6345,-3.6186,-3.569,-3.5249,-3.4651,-3.3852,-3.3868,-3.3934,-3.4023,-3.4074,-3.4136,-3.4197,-3.4197,-3.4197,-3.4179,-3.3733,-3.3113,-3.2258,-3.0623,-2.9582,-2.8989,-2.8278,-2.8014,-2.8017,-2.7369,-2.7191,-2.7114,-2.5798,-2.5344,-2.5417,-2.5456,-2.546,-2.5329,-2.4482,-2.4041,-2.3577,-2.2133,-2.1533,-2.1201,-2.0576,-2.0402,-2.046,-2.0692,-2.0576,-2.0518,-2.0982,-2.075,-2.0475,-2.0706,-2.057,-2.0408,-2.047,-2.0498,-2.0582,-2.0877,-2.0738,-2.0953,-2.2066,-2.1304,-2.0915,-2.1796,-2.113,-2.0602,-2.0604,-2.0604,-2.0604,-2.0605,-2.0018,-1.9665,-1.9668,-1.9062,-1.8886,-1.9277,-1.8457,-1.789,-1.7654,-1.6793,-1.6029,-1.5402,-1.5408,-1.5813,-1.6621,-1.6542,-1.7056,-2.6488,-2.8365,-3.0954,-3.026,-3.2256,-3.459,-3.5295,-3.5481,-3.574,-3.6541,-3.6096,-3.5785,-3.6592,-3.6146,-3.614,-3.7635,-3.7297,-3.7117,-3.7804,-3.6597,-3.5397,-3.4658,-3.3309,-3.2446,-3.2446,-3.418,-3.4913,-3.3884,-3.4942,-3.5195,-3.413,-3.4654,-3.4665,-3.3931,-3.3895,-3.3959,-3.4099,-3.4099,-3.4136,-3.4197,-3.4197,-3.4197,-3.4141,-3.2593,-3.144,-3.0586,-2.8895,-2.817,-2.8077,-2.7288,-2.7055,-2.7155,-2.6293,-2.6147,-2.6332,-2.543,-2.5225,-2.5395,-2.5393,-2.5401,-2.527,-2.4459,-2.3635,-2.2787,-2.1959,-2.1104,-2.044,-2.0402,-2.0402,-2.0595,-2.1433,-2.1024,-2.0808,-2.2436,-2.1585,-2.0634,-2.1475,-2.1008,-2.0392,-2.0396,-2.0455,-2.076,-2.1616,-2.1051,-2.1093,-2.281,-2.1655,-2.0913,-2.1796,-2.113,-2.0601,-2.0601,-2.0601,-2.0603,-2.0604,-2.0583,-2.0562,-2.0563,-2.0545,-2.0155,-1.9335,-1.8456,-1.7597,-1.6755,-1.5875,-1.5423,-1.5402,-1.5397,-1.5856,-1.6699,-1.6566,-1.7371,-3.0531,-3.1698,-3.2966,-3.4218,-3.5284,-3.6101,-3.6332,-3.64,-3.618,-3.5419,-3.5047,-3.4641,-3.3952,-3.4387,-3.4878,-3.4912,-3.5537,-3.6096,-3.6326,-3.5921,-3.4957,-3.3241,-3.3017,-3.2256,-3.0296,-3.1645,-3.3039,-3.3975,-3.3563,-3.3472,-3.3906,-3.3885,-3.3771,-3.3508,-3.3775,-3.3921,-3.3972,-3.3543,-3.3315,-3.3339,-3.2848,-3.289,-3.3343,-3.1738,-3.1143,-3.131,-2.9675,-2.8635,-2.8077,-2.7817,-2.7409,-2.699,-2.6814,-2.6489,-2.6057,-2.5984,-2.5633,-2.5219,-2.5345,-2.5014,-2.4497,-2.4266,-2.3616,-2.2847,-2.2571,-2.1917,-2.1259,-2.1259,-2.085,-2.0595,-2.1472,-2.1043,-2.0827,-2.2494,-2.1623,-2.0634,-2.1514,-2.1475,-2.1255,-2.126,-2.1746,-2.2257,-2.2548,-2.2357,-2.2367,-2.3007,-2.2166,-2.1361,-2.1068,-2.0775,-2.06,-2.06,-2.0601,-2.0602,-2.0603,-2.0601,-2.0601,-2.0601,-2.0601,-2.0465,-2.0173,-1.988,-1.9313,-1.8433,-1.8139,-1.7708,-1.712,-1.6532,-1.6695,-1.7504,-1.7451,-1.7992,-3.2493,-3.3592,-3.4624,-3.6372,-3.7202,-3.7523,-3.7246,-3.6998,-3.644,-3.5165,-3.4049,-3.3123,-3.2429,-3.2429,-3.2713,-3.3322,-3.3981,-3.4709,-3.5481,-3.5363,-3.459,-3.2882,-3.2645,-3.1765,-2.9583,-2.9827,-3.0984,-3.3038,-3.2469,-3.2512,-3.3634,-3.3571,-3.346,-3.3306,-3.3259,-3.3321,-3.3471,-3.2748,-3.2433,-3.2469,-3.202,-3.2072,-3.2537,-3.1199,-3.0883,-3.1273,-2.9638,-2.8783,-2.8523,-2.7929,-2.7371,-2.6888,-2.6727,-2.6178,-2.5493,-2.571,-2.5476,-2.5055,-2.5317,-2.4838,-2.4051,-2.381,-2.3358,-2.2859,-2.2568,-2.2114,-2.1707,-2.1707,-2.1062,-2.0672,-2.182,-2.1491,-2.1372,-2.3364,-2.2532,-2.1527,-2.24,-2.2342,-2.2127,-2.2136,-2.2588,-2.3073,-2.34,-2.3208,-2.3014,-2.3054,-2.2382,-2.1676,-2.1121,-2.1064,-2.0949,-2.0638,-2.0599,-2.0599,-2.0601,-2.0599,-2.0598,-2.0599,-2.0599,-2.06,-2.0601,-1.9996,-1.9409,-1.8842,-1.8216,-1.7629,-1.7061,-1.6512,-1.6816,-1.795,-1.7918,-1.8475,-3.2547,-3.415,-3.5977,-3.6778,-3.7997,-3.8802,-3.8075,-3.7297,-3.6468,-3.5549,-3.3119,-3.1292,-3.1802,-3.0313,-2.9924,-3.273,-3.2696,-3.3119,-3.5278,-3.5013,-3.4252,-3.344,-3.2104,-3.0937,-3.0125,-2.8794,-2.8933,-3.1162,-3.1591,-3.2141,-3.3034,-3.3528,-3.3609,-3.3138,-3.2444,-3.2229,-3.2605,-3.1832,-3.1481,-3.158,-3.1648,-3.1689,-3.1708,-3.0902,-3.0567,-3.0511,-2.8876,-2.8616,-2.9211,-2.7613,-2.6907,-2.6758,-2.6005,-2.5283,-2.4692,-2.47,-2.4787,-2.4935,-2.5257,-2.4783,-2.3882,-2.3122,-2.2844,-2.267,-2.1903,-2.1681,-2.1681,-2.1685,-2.1101,-2.0847,-2.2474,-2.2323,-2.2381,-2.4892,-2.4176,-2.3136,-2.4002,-2.3557,-2.2961,-2.2961,-2.3,-2.3314,-2.4214,-2.3671,-2.3137,-2.3137,-2.2489,-2.1992,-2.1962,-2.1959,-2.1628,-2.0755,-2.0654,-2.0654,-2.0599,-2.0596,-2.0594,-2.0594,-2.0558,-2.0521,-2.0521,-1.8901,-1.8003,-1.8003,-1.638,-1.5539,-1.5539,-1.5534,-1.6373,-1.7997,-1.7979,-1.8829,-3.5859,-3.7297,-3.8311,-3.908,-3.9148,-3.8802,-3.8075,-3.6874,-3.5211,-3.2814,-3.1292,-2.9583,-2.6962,-2.7859,-2.9247,-3.0008,-3.1799,-3.3711,-3.5363,-3.543,-3.4641,-3.2801,-3.2259,-3.1295,-2.9467,-2.8417,-2.8571,-3.0298,-3.0081,-2.9986,-3.0228,-3.1672,-3.1983,-3.0887,-3.1375,-3.157,-3.1419,-3.0876,-3.0362,-2.9839,-2.9913,-3.025,-3.0817,-3.0044,-3.0028,-3.053,-2.9508,-2.882,-2.8393,-2.7966,-2.7092,-2.5987,-2.5782,-2.5232,-2.4557,-2.466,-2.4712,-2.4779,-2.4961,-2.4054,-2.2819,-2.2777,-2.2235,-2.1602,-2.1504,-2.1481,-2.1497,-2.1608,-2.1501,-2.1607,-2.2633,-2.2749,-2.3097,-2.5047,-2.4176,-2.3136,-2.4002,-2.4022,-2.3867,-2.3867,-2.4389,-2.4915,-2.515,-2.501,-2.4861,-2.4861,-2.4724,-2.4191,-2.2949,-2.2788,-2.2467,-2.1589,-2.1549,-2.1315,-2.0654,-2.0594,-2.0594,-2.0594,-1.9989,-1.9638,-1.9638,-1.8584,-1.7999,-1.7999,-1.7569,-1.7334,-1.7334,-1.7333,-1.7565,-1.8012,-1.865,-1.9157,-3.7838,-3.892,-3.9588,-3.9994,-3.9554,-3.8616,-3.7229,-3.5487,-3.3322,-3.0328,-2.8349,-2.6522,-2.4423,-2.5405,-2.6979,-2.8264,-3.07,-3.3068,-3.4878,-3.5131,-3.4658,-3.341,-3.2699,-3.1684,-3.0127,-2.9262,-2.9024,-2.9583,-2.9304,-2.9274,-2.9617,-3.0638,-3.082,-2.997,-3.0164,-3.0181,-2.9942,-2.9561,-2.9308,-2.9163,-2.9064,-2.9366,-2.995,-2.9548,-2.9617,-3.0028,0.0,-2.8542,-2.8059,-2.7334,-2.6516,-2.5671,-2.5317,-2.4658,-2.3979,-2.4433,-2.4372,-2.4126,-2.4633,-2.3905,-2.2792,-2.3053,-2.28,-2.2318,-2.1989,-2.2168,-2.2431,-2.2168,-2.2145,-2.2409,-2.3248,-2.3461,-2.3809,-2.5182,-2.4757,-2.4176,-2.466,-2.4776,-2.4776,-2.4776,-2.5163,-2.5507,-2.5507,-2.5188,-2.5066,-2.5431,-2.5236,-2.4815,-2.4223,-2.3866,-2.3197,-2.1979,-2.1879,-2.1548,-2.0672,-2.0594,-2.0594,-2.0594,-2.0144,-1.9694,-1.9323,-1.8465,-1.7822,-1.7431,-1.7041,-1.6866,-1.6866,-1.7236,-1.7625,-1.8013,-1.8893,-1.9487,-3.9073,-3.9706,-4.013,-4.0231,-3.9529,-3.8278,-3.609,-3.3744,-3.1159,-2.8128,-2.5253,-2.319,-2.2987,-2.319,-2.4323,-2.7181,-2.9567,-3.185,-3.4167,-3.4404,-3.4336,-3.4336,-3.3139,-3.2005,-3.1258,-3.0531,-2.9871,-2.9331,-2.9111,-2.9266,-2.9884,-3.0003,-2.9951,-2.9683,-2.8945,-2.8544,-2.8474,-2.8321,-2.8533,-2.9033,-2.8844,-2.8943,-2.9262,-2.9291,-2.9334,-2.9349,-2.8597,-2.8152,-2.7836,-2.6423,-2.5726,-2.5466,-2.4778,-2.4045,-2.3471,-2.4212,-2.4026,-2.3506,-2.4377,-2.4121,-2.3422,-2.3615,-2.3739,-2.3639,-2.2737,-2.3099,-2.3665,-2.2877,-2.2836,-2.3187,-2.3953,-2.425,-2.4525,-2.5314,-2.5507,-2.5507,-2.5507,-2.5584,-2.5662,-2.5662,-2.5662,-2.5662,-2.5662,-2.495,-2.4621,-2.5395,-2.4904,-2.4702,-2.5404,-2.4955,-2.3965,-2.2395,-2.2138,-2.1708,-2.0847,-2.0672,-2.0594,-2.0594,-2.0496,-2.0085,-1.9323,-1.8348,-1.747,-1.6708,-1.5831,-1.546,-1.5578,-1.6455,-1.7314,-1.8193,-1.907,-1.9887,-4.046,-4.046,-4.0248,-4.0849,-3.9546,-3.7652,-3.5971,-3.2946,-2.9634,-2.659,-2.4122,-2.2093,-2.0826,-2.2141,-2.4171,-2.6505,-2.8805,-3.1275,-3.41,-3.3981,-3.3592,-3.3592,-3.2835,-3.2005,-3.1258,-3.0531,-3.0311,-3.0768,-2.9687,-2.8809,-2.8388,-2.8966,-2.9056,-2.8508,-2.8084,-2.7868,-2.7861,-2.8299,-2.8589,-2.8688,-2.8922,-2.9067,-2.9141,-2.924,-2.9312,-2.9304,-2.9227,0.0,-2.7092,-2.6814,-2.5912,-2.4685,-2.4555,-2.4407,-2.4286,-2.4444,-2.4407,-2.4295,-2.4478,-2.4497,-2.4331,-2.3723,-2.3446,-2.3195,-2.2473,-2.2837,-2.335,-2.2652,-2.2995,-2.3621,-2.388,-2.449,-2.512,-2.5429,-2.5507,-2.5507,-2.5507,-2.6029,-2.6493,-2.6493,-2.6493,-2.6493,-2.6493,-2.5816,-2.5337,-2.5488,-2.5383,-2.5347,-2.5477,-2.5441,-2.5029,-2.4062,-2.332,-2.2557,-2.1745,-2.1003,-2.0594,-2.0594,-1.9929,-1.946,-1.9304,-1.7762,-1.6845,-1.6708,-1.5831,-1.5753,-1.6474,-1.7353,-1.8212,-1.9109,-1.9968,-2.0454,-4.0324,-4.0383,-4.018,-4.0527,-3.8954,-3.6721,-3.4404,-3.0867,-2.7159,-2.3971,-2.1695,-1.9973,-1.9031,-2.1028,-2.3173,-2.4239,-2.6928,-2.9531,-3.1396,-3.1664,-3.1833,-3.2205,-3.1935,-3.1599,-3.1224,-3.0886,-3.0666,-3.0632,-2.9656,-2.8913,-2.8592,-2.8254,-2.7929,-2.7635,-2.7547,-2.7554,-2.7701,-2.7847,-2.8156,-2.8601,-2.8443,-2.862,-2.9108,-2.9021,-2.9089,-2.9302,-2.9334,-2.8641,-2.752,-2.752,-2.6814,-2.5708,-2.5299,-2.4861,-2.4497,-2.4497,-2.4271,-2.399,-2.4375,-2.4547,-2.453,-2.414,-2.4001,-2.3825,-2.298,-2.3367,-2.4009,-2.3681,-2.4269,-2.5107,-2.559,-2.5769,-2.5847,-2.5943,-2.6056,-2.6126,-2.6126,-2.6783,-2.7232,-2.6783,-2.6702,-2.6571,-2.6145,-2.5758,-2.5507,-2.5507,-2.5496,-2.5495,-2.5495,-2.5529,-2.5239,-2.4433,-2.3971,-2.3215,-2.1952,-2.1465,-2.1034,-2.0583,-2.0187,-1.9773,-1.9323,-1.8504,-1.7625,-1.6727,-1.6729,-1.6748,-1.6708,-1.8036,-1.8895,-1.9323,-2.0183,-2.0592,-4.0096,-4.0231,-4.0096,-4.0096,-3.8437,-3.5943,-3.2664,-2.8829,-2.5013,-2.1649,-1.9396,-1.8012,-1.7854,-1.9823,-2.1647,-2.2197,-2.499,-2.7502,-2.8681,-2.9445,-3.0209,-3.1089,-3.092,-3.0835,-3.1157,-3.1055,-3.0717,-3.0142,-2.9319,-2.8796,-2.8661,-2.7656,-2.7103,-2.7103,-2.7233,-2.739,-2.7615,-2.745,-2.7733,-2.8391,-2.7968,-2.8174,-2.8868,-2.8676,-2.8797,-2.9175,-2.9197,-2.8762,-2.8076,-2.8086,-2.7631,-2.6814,-2.6033,-2.5353,-2.4764,-2.4586,-2.4145,-2.3713,-2.4288,-2.4495,-2.4468,-2.4285,-2.4416,-2.4516,-2.3717,-2.4035,-2.466,-2.4665,-2.5235,-2.5981,-2.6657,-2.642,-2.6084,-2.631,-2.65,-2.6702,-2.6876,-2.7636,-2.8021,-2.7151,-2.6977,-2.6725,-2.5894,-2.5604,-2.5507,-2.5507,-2.5507,-2.5507,-2.5507,-2.5503,-2.5266,-2.4627,-2.4394,-2.3763,-2.2448,-2.2153,-2.1751,-2.1072,-2.0918,-2.0544,-1.9861,-1.9486,-1.8664,-1.7279,-1.7745,-1.7744,-1.7254,-1.8621,-1.9401,-1.9597,-2.0281,-2.0594,-4.0713,-4.0595,-4.0096,-4.0096,-3.8437,-3.5723,-3.1604,-2.7821,-2.4232,-2.0806,-1.8432,-1.7139,-1.7765,-1.8369,-1.9526,-2.1827,-2.3682,-2.5646,-2.8025,-2.8789,-2.9619,-3.1021,-3.0025,-2.9738,-3.1055,-3.0598,-3.0176,-3.0125,-2.8862,-2.7845,-2.723,-2.714,-2.7103,-2.7103,-2.7233,-2.7297,-2.7329,-2.7539,-2.7701,-2.7771,-2.7964,-2.8116,-2.8197,-2.8224,-2.8443,-2.8755,-2.8827,-2.8522,0.0,-2.8066,-2.7631,-2.6823,-2.6079,-2.5752,-2.5593,-2.4862,-2.4499,-2.4418,-2.4485,-2.4497,-2.4369,-2.3582,-2.3859,-2.4498,-2.4407,-2.4452,-2.4525,-2.4525,-2.4579,-2.4713,-2.4907,-2.4904,-2.5094,-2.6006,-2.6363,-2.6727,-2.7448,-2.8443,-2.8926,-2.8045,-2.7875,-2.76,-2.6745,-2.5971,-2.5507,-2.5507,-2.5507,-2.5507,-2.5507,-2.5492,-2.548,-2.5398,-2.4738,-2.4235,-2.4079,-2.3341,-2.2854,-2.2777,-2.2089,-2.1645,-2.1562,-2.0116,-1.9218,-1.9062,-1.8355,-1.8349,-1.907,-1.9226,-1.9714,-2.0477,-2.0555,-2.0594,-3.9478,-3.9986,-3.9994,-3.9554,-3.7463,-3.4551,-3.0709,-2.6594,-2.2788,-1.9932,-1.7831,-1.6646,-1.7141,-1.7713,-1.8572,-1.9978,-2.1092,-2.237,-2.4034,-2.5229,-2.6402,-2.7671,-2.8095,-2.8704,-2.9771,-2.9619,-2.9282,-2.8879,-2.7947,-2.7282,-2.7008,-2.7054,-2.7135,-2.7217,-2.7266,-2.7299,-2.7299,-2.7405,-2.7539,-2.7701,-2.8082,-2.8458,-2.882,-2.8645,-2.8777,-2.9107,-2.8851,-2.8632,0.0,-2.8704,-2.8639,-2.8213,-2.7,-2.6832,-2.7037,-2.5307,-2.4949,-2.5269,-2.4783,-2.459,-2.4501,-2.4157,-2.4253,-2.4395,-2.3878,-2.4082,-2.4592,-2.5094,-2.5224,-2.5354,-2.588,-2.6122,-2.6196,-2.6197,-2.7037,-2.7771,-2.7619,-2.8721,-2.9193,-2.7402,-2.7421,-2.7344,-2.6015,-2.5557,-2.5376,-2.5376,-2.5456,-2.5507,-2.5507,-2.5507,-2.5507,-2.5507,-2.5203,-2.4597,-2.355,-2.3611,-2.3299,-2.2286,-2.1915,-2.1768,-2.1791,-2.0669,-1.9777,-1.9252,-1.9414,-1.9433,-1.9294,-1.9835,-2.0261,-2.0594,-2.0594,-2.0594,-3.7922,-3.8894,-3.9234,-3.8261,-3.6178,-3.3347,-2.9475,-2.563,-2.2128,-1.939,-1.771,-1.673,-1.6764,-1.7288,-1.7832,-1.8193,-1.9064,-2.0101,-2.1299,-2.2683,-2.4098,-2.5442,-2.6522,-2.7536,-2.8552,-2.8654,-2.8452,-2.798,-2.73,-2.6942,-2.6975,-2.7023,-2.712,-2.7233,-2.7282,-2.7299,-2.7299,-2.7299,-2.739,-2.7585,-2.7911,-2.8418,-2.9024,-2.8568,-2.8675,-2.9223,-2.8672,-2.8558,0.0,-2.9019,-2.9178,-2.9143,-2.7807,-2.766,-2.7903,-2.5794,-2.5388,-2.5762,-2.4947,-2.465,-2.4569,-2.4292,-2.435,-2.4362,-2.352,-2.3855,-2.4645,-2.5186,-2.5345,-2.5522,-2.6349,-2.6691,-2.6791,-2.6808,-2.7752,-2.8495,-2.791,-2.8947,-2.9334,-2.716,-2.737,-2.7415,-2.58,-2.5559,-2.5538,-2.536,-2.5417,-2.548,-2.5506,-2.5503,-2.5495,-2.5495,-2.5507,-2.5,-2.3769,-2.4235,-2.4072,-2.2894,-2.2594,-2.2261,-2.1799,-2.0954,-2.0085,-1.9229,-1.9796,-1.9959,-1.9667,-2.0272,-2.0562,-2.0564,-2.0562,-2.056,-3.6406,-3.7347,-3.7576,-3.6108,-3.4657,-3.239,-2.7693,-2.5045,-2.2661,-1.9383,-1.8164,-1.7489,-1.6816,-1.7029,-1.7178,-1.6788,-1.8013,-1.9491,-2.0908,-2.2161,-2.3595,-2.539,-2.5609,-2.6201,-2.7672,-2.7824,-2.7807,-2.7807,-2.7114,-2.6758,-2.6893,-2.6958,-2.704,-2.7103,-2.7233,-2.7299,-2.7299,-2.7299,-2.7299,-2.7297,-2.7315,-2.7696,-2.8385,-2.766,-2.7898,-2.8848,-2.8138,-2.8192,0.0,-2.873,-2.8902,-2.9126,-2.8318,-2.8044,-2.7909,-2.6367,-2.5795,-2.5701,-2.4887,-2.4607,-2.4468,-2.3588,-2.3902,-2.4457,-2.3635,-2.3953,-2.4599,-2.453,-2.4507,-2.4713,-2.5594,-2.5808,-2.6235,-2.7895,-2.8397,-2.85,-2.8496,-2.9236,-2.9426,-2.7804,-2.8146,-2.8172,-2.6562,-2.6288,-2.6087,-2.548,-2.5391,-2.5425,-2.5485,-2.5494,-2.5495,-2.5495,-2.5495,-2.5491,-2.5472,-2.5472,-2.5472,-2.5453,-2.471,-2.3505,-2.1765,-2.0927,-2.0085,-1.9211,-1.9212,-1.9634,-2.0488,-2.0506,-2.0507,-2.0497,-2.0507,-2.0508,-3.3021,-3.3779,-3.3962,-3.2144,-3.0958,-2.9257,-2.5475,-2.3778,-2.2167,-1.9276,-1.8162,-1.7654,-1.7413,-1.7119,-1.7301,-1.8555,-1.8774,-1.9193,-2.0323,-2.1638,-2.2663,-2.3094,-2.4759,-2.606,-2.6526,-2.6874,-2.7046,-2.7046,-2.6961,-2.6925,-2.6975,-2.7122,-2.7169,-2.7103,-2.7233,-2.7299,-2.7299,-2.7299,-2.7299,-2.7315,-2.7799,-2.8178,-2.8368,-2.7627,-2.7758,-2.8494,-2.7432,-2.7381,-2.8051,-2.8277,-2.8208,-2.7883,-2.7027,-2.6906,-2.7004,-2.5384,-2.5186,-2.5629,-2.4917,-2.4671,-2.461,-2.4345,-2.4431,-2.461,-2.4375,-2.4401,-2.4539,-2.4503,-2.4897,-2.5391,-2.5722,-2.6627,-2.7578,-2.8109,-2.8288,-2.8334,-2.825,-2.8512,-2.8426,-2.7361,-2.7831,-2.8093,-2.7102,-2.6953,-2.6935,-2.6791,-2.6385,-2.6115,-2.6236,-2.577,-2.5457,-2.5501,-2.5506,-2.5259,-2.466,-2.515,-2.5262,-2.4716,-2.4442,-2.3792,-2.2632,-2.2333,-2.1534,-2.0113,-2.0626,-2.0765,-2.051,-2.0494,-2.0502,-2.0502,-2.0504,-2.0527,-3.0415,-3.1272,-3.1478,-2.9772,-2.8798,-2.7477,-2.4359,-2.3153,-2.2014,-1.957,-1.8536,-1.7997,-1.7758,-1.716,-1.704,-1.806,-1.7881,-1.8041,-1.9347,-2.0495,-2.1604,-2.2662,-2.4269,-2.5377,-2.5672,-2.6139,-2.6453,-2.6453,-2.6725,-2.6909,-2.6959,-2.7106,-2.7153,-2.7103,-2.7233,-2.7299,-2.7299,-2.7299,-2.7299,-2.7315,-2.7764,-2.8127,-2.8368,-2.7627,-2.7712,-2.8383,-2.7324,-2.7221,0.0,-2.794,-2.7731,-2.7278,-2.67,-2.6509,-2.6408,-2.5054,-2.4976,-2.5458,-2.4774,-2.4607,-2.4666,-2.4687,-2.4706,-2.4701,-2.4666,-2.4599,-2.4503,-2.452,-2.511,-2.5818,-2.6187,-2.7261,-2.8305,-2.8622,-2.8697,-2.8612,-2.8228,-2.8404,-2.8406,-2.7578,-2.8118,-2.8483,-2.7735,-2.7646,-2.7616,-2.7381,-2.6796,-2.6391,-2.6506,-2.5846,-2.5376,-2.5422,-2.5453,-2.5232,-2.4667,-2.515,-2.5298,-2.4781,-2.4775,-2.4109,-2.2563,-2.2513,-2.1721,-2.0012,-2.049,-2.0664,-2.0453,-2.0498,-2.0499,-2.0494,-2.0493,-2.0518,0.0,-2.9453,-2.9678,-2.8433,-2.7682,-2.6547,-2.3911,-2.2972,0.0,-2.0052,-1.9136,-1.8506,-1.7893,-1.7189,-1.6562,-1.6144,-1.6038,-1.6577,-1.8254,-1.9121,-2.0683,-2.3716,-2.4092,-2.4385,-2.508,-2.5633,-2.5959,-2.6013,-2.6401,-2.6725,-2.6893,-2.6975,-2.7039,-2.7103,-2.7233,-2.7299,-2.7299,-2.7299,-2.7299,-2.7299,-2.7299,-2.7661,-2.8299,-2.754,-2.7641,0.0,-2.7571,-2.7474,0.0,-2.7745,-2.7451,-2.7069,-2.7005,-2.6578,-2.5922,-2.5172,-2.5032,-2.5097,-2.4496,-2.441,-2.458,-2.4674,-2.4682,-2.4674,-2.4615,-2.4564,-2.453,-2.4655,-2.5264,-2.6086,-2.6962,-2.7783,-2.8568,-2.9315,-2.9415,-2.9133,-2.8444,-2.8852,-2.9101,-2.8347,-2.8849,-2.9196,-2.8511,-2.8371,-2.8175,-2.7557,-2.6897,-2.6467,-2.6473,-2.5838,-2.5351,-2.5298,-2.535,-2.5357,-2.5293,-2.5422,-2.5508,-2.5503,-2.5557,-2.4471,-2.1898,-2.1851,-2.1036,-1.9238,-1.9265,-1.9658,-2.0417,-2.0464,-2.0497,-2.0504,-2.0504,-2.051,-2.5636,0.0,-2.5475,-2.3743,-2.3601,-2.3287,0.0,-2.131,-2.135,-1.9346,-1.8807,-1.8657,-1.8491,-1.7488,-1.716,-1.857,-1.836,-1.8348,-1.9263,-2.0394,-2.181,-2.3517,-2.4076,-2.44,-2.4576,-2.507,-2.5559,-2.5961,-2.6157,-2.6419,-2.6876,-2.7006,-2.7086,-2.7103,-2.7233,-2.7299,-2.7299,-2.7299,-2.7299,-2.7299,-2.7299,-2.7385,-2.7523,-2.6747,-2.6832,-2.7538,-2.679,0.0,-2.7529,-2.7542,-2.6925,-2.5962,-2.5786,-2.51,-2.4179,-2.3947,-2.3985,-2.4135,-2.4026,-2.4155,-2.4407,-2.4637,-2.4629,-2.4564,-2.4658,-2.4623,-2.4729,-2.5398,-2.6166,-2.6999,-2.7876,-2.8643,-2.9278,-2.9465,-2.9063,-2.8736,-2.9109,-2.8904,-2.8726,-2.903,-2.9302,-2.9415,-2.918,-2.9143,-2.9128,-2.9147,-2.842,-2.7754,-2.7304,-2.6543,-2.5848,-2.5275,-2.5244,-2.5235,-2.5224,-2.5437,-2.5557,-2.5508,-2.5557,-2.4721,-2.2779,-2.3331,-2.2572,-2.0228,-2.0148,-2.0245,-2.0485,-2.0442,-2.0448,-2.051,-2.0501,-2.0501,-2.4617,-2.4658,-2.4611,-2.3354,-2.331,-2.3131,-2.146,-2.14,-2.1216,-1.951,-1.8672,-1.8237,-1.8237,-1.7399,-1.707,-1.8147,-1.8267,-1.8702,-1.9974,-2.1306,-2.2523,-2.349,-2.3858,-2.4032,-2.4032,-2.4532,-2.4953,-2.524,-2.5762,-2.6175,-2.6521,-2.6842,-2.7023,-2.7055,-2.7121,-2.7202,-2.7299,-2.6937,-2.6747,-2.6747,-2.6747,-2.6747,-2.673,-2.6299,-2.635,-2.673,-2.6327,0.0,-2.6853,-2.6898,-2.6333,-2.5407,-2.4966,-2.4201,-2.3365,-2.333,-2.3445,-2.3631,-2.3696,-2.3945,-2.4275,-2.4391,-2.4695,-2.5029,-2.5161,-2.5431,-2.5646,-2.5415,-2.6201,-2.7212,-2.7688,-2.8662,-2.954,-2.9502,-2.9204,-2.9008,-2.9409,-2.9185,-2.9017,-2.9388,-2.9472,-2.9482,-2.9453,-2.9453,-2.9482,-2.9589,-2.8951,-2.8175,-2.7471,-2.6683,-2.5904,-2.5133,-2.5097,-2.5107,-2.5109,-2.5336,-2.5464,-2.5453,-2.5551,-2.4999,-2.3659,-2.367,-2.2696,-2.0546,-2.0464,-2.0464,-2.0507,-2.0464,-2.0465,-2.0505,-2.0498,-2.0495,-2.4549,-2.4924,-2.5249,-2.4514,-2.438,-2.4111,-2.2853,-2.2044,-2.1201,-1.9962,-1.8625,-1.7773,-1.7968,-1.7458,-1.707,-1.7294,-1.7787,-1.882,-2.0752,-2.1979,-2.2927,-2.3535,-2.3595,-2.3595,-2.3595,-2.4012,-2.4307,-2.4389,-2.524,-2.5835,-2.6068,-2.6538,-2.6791,-2.6804,-2.694,-2.7038,-2.7078,-2.6423,-2.6146,-2.6281,-2.6146,-2.6094,-2.6094,-2.6094,-2.6094,-2.6094,0.0,0.0,-2.6383,-2.6279,-2.5863,-2.5236,-2.4488,-2.3758,-2.3107,-2.3095,-2.3205,-2.3372,-2.3473,-2.3749,-2.4086,-2.4059,-2.4735,-2.556,-2.5662,-2.6293,-2.6702,-2.5322,-2.6081,-2.7331,-2.7418,-2.8512,-2.9588,-2.9531,-2.9531,-2.9531,-2.954,-2.9522,-2.954,-2.9531,-2.9512,-2.954,-2.9531,-2.9531,-2.9512,-2.954,-2.9045,-2.8357,-2.7491,-2.6728,-2.597,-2.5154,-2.501,-2.4968,-2.4968,-2.5143,-2.5288,-2.5344,-2.5494,-2.5123,-2.413,-2.3262,-2.2078,-2.0519,-2.048,-2.0483,-2.0507,-2.0507,-2.0506,-2.0499,-2.0503,-2.0492,-2.4548,-2.5055,-2.516,-2.3407,-2.337,-2.3415,-2.2143,-2.1335,-2.0613,-1.9872,-1.8625,-1.8057,-1.9181,-1.8852,-1.876,-1.9896,-2.0165,-2.0752,-2.2194,-2.2568,-2.2927,-2.3535,-2.3595,-2.3595,-2.3595,-2.3681,-2.3921,-2.4369,-2.4552,-2.5047,-2.5961,-2.6139,-2.6117,-2.5908,-2.6617,-2.6716,-2.6131,-2.6055,-2.6392,-2.7109,-2.6437,-2.6094,-2.6094,-2.6094,-2.6094,-2.6109,0.0,-2.6593,-2.7182,-2.6658,-2.6012,-2.5236,-2.455,-2.3804,-2.3077,-2.3045,-2.3082,-2.3175,-2.3427,-2.3513,-2.3571,-2.3832,-2.4569,-2.5334,-2.5238,-2.6008,-2.6784,-2.6148,-2.7052,-2.8333,-2.8903,-2.9324,-2.9598,-2.9588,-2.9588,-2.9607,-2.9655,-2.9664,-2.9645,-2.9598,-2.9626,-2.9645,-2.9598,-2.9588,-2.9607,-2.9655,-2.9523,-2.9148,-2.8322,-2.7522,-2.672,-2.5913,-2.5223,-2.483,-2.483,-2.4962,-2.5065,-2.5135,-2.5376,-2.4797,-2.3173,-2.2323,-2.1432,-2.0438,-2.0418,-2.0435,-2.0507,-2.0507,-2.0497,-2.0495,-2.0496,-2.0492,-2.4541,-2.4776,-2.4754,-2.349,-2.3939,-2.4343,-2.3026,-2.2233,-2.1575,-2.0917,-1.9705,-1.9076,-2.0064,-1.9989,-2.0228,-2.156,-2.2054,-2.2368,-2.2658,-2.2987,-2.3302,-2.3565,-2.3595,-2.3595,-2.3595,-2.3595,-2.3702,-2.3948,-2.4241,-2.4632,-2.5125,-2.5709,-2.599,-2.5882,-2.6488,-2.6705,-2.643,-2.5644,-2.5704,-2.6582,-2.5824,-2.5685,-2.6094,-2.6094,-2.6094,-2.6109,0.0,-2.615,-2.6143,-2.5912,-2.5373,-2.4646,-2.3936,-2.3435,-2.3107,-2.307,-2.3065,-2.3184,-2.3731,-2.3709,-2.3501,-2.4035,-2.4606,-2.5154,-2.5575,-2.6388,-2.7207,-2.7397,-2.7743,-2.815,-2.8468,-2.8957,-2.9412,-2.9521,-2.9607,-2.9655,-2.9683,-2.9701,-2.9701,-2.9655,-2.9692,-2.9701,-2.9655,-2.9645,-2.9655,-2.9701,-3.0039,-2.9833,-2.8557,-2.8078,-2.7373,-2.6129,-2.5261,-2.4761,-2.4802,-2.4865,-2.4975,-2.5187,-2.5317,-2.4629,-2.2921,-2.2488,-2.1677,-2.037,-2.035,-2.0375,-2.0457,-2.0457,-2.0461,-2.05,-2.049,-2.0503,-2.4112,-2.4088,-2.4022,-2.352,-2.4388,-2.5106,-2.4073,-2.3355,-2.2778,-2.2248,-2.1081,-2.0363,-2.1051,-2.1406,-2.1944,-2.2987,-2.3535,-2.367,-2.3206,-2.34,-2.3595,-2.3595,-2.3595,-2.3595,-2.3595,-2.3595,-2.3595,-2.3595,-2.4006,-2.4246,-2.4197,-2.5018,-2.5488,-2.5519,-2.605,-2.632,-2.6349,-2.5178,-2.5052,-2.5971,-2.5249,-2.521,-2.5773,-2.5993,-2.6094,-2.6079,-2.5904,-2.5656,-2.5331,-2.5056,-2.4652,-2.4126,-2.3368,-2.307,-2.3057,-2.3082,-2.3082,-2.3187,-2.4027,-2.3869,-2.3448,-2.4204,-2.4617,-2.4985,-2.5769,-2.6634,-2.7495,-2.8134,-2.8099,-2.7883,-2.7951,-2.8515,-2.9126,-2.9343,-2.9463,-2.955,-2.9569,-2.9579,-2.9589,-2.9626,-2.9589,-2.9617,-2.9692,-2.9664,-2.9664,-2.9701,-3.0227,-3.0161,-2.8866,-2.8528,-2.7853,-2.6424,-2.5523,-2.494,-2.4783,-2.4621,-2.4624,-2.4897,-2.4769,-2.41,-2.2804,-2.256,-2.1775,-2.0315,-2.0269,-2.0294,-2.0372,-2.0385,-2.0438,-2.0487,-2.0482,-2.0492,-2.2831,-2.2834,-2.2823,-2.2778,-2.3729,-2.4649,-2.4545,-2.4007,-2.352,-2.3475,-2.2443,-2.1754,-2.2433,-2.352,-2.435,-2.4455,-2.45,-2.4515,-2.447,-2.3947,-2.3595,-2.3595,-2.3595,-2.3595,-2.3595,-2.3595,-2.3595,-2.3595,-2.376,-2.3788,-2.3663,-2.3789,-2.3955,-2.4133,-2.4846,-2.5029,-2.4692,-2.4557,-2.4973,-2.5894,-2.5219,-2.4876,-2.4819,-2.5706,-2.6063,-2.5968,-2.5355,-2.5466,-2.6024,-2.4722,-2.4181,-2.4126,-2.3322,-2.2982,-2.2932,-2.2977,-2.3008,-2.3125,-2.4002,-2.3781,-2.3255,-2.404,-2.4451,-2.4728,-2.5293,-2.6289,-2.7294,-2.766,-2.7911,-2.8143,-2.8393,-2.8585,-2.8784,-2.8993,-2.9049,-2.9082,-2.9209,-2.923,-2.9262,-2.9402,-2.9322,-2.9332,-2.9645,-2.9589,-2.956,-2.9673,-2.9739,-2.9739,-2.9626,-2.8904,-2.8078,-2.7204,-2.6387,-2.5579,-2.4782,-2.4086,-2.369,-2.3717,-2.3193,-2.2805,-2.2618,-2.1905,-2.1088,-2.0215,-2.015,-2.0184,-2.0301,-2.0366,-2.039,-2.0418,-2.0463,-2.0508,-2.236,-2.2388,-2.2598,-2.2194,-2.3041,-2.3984,-2.3984,-2.3789,-2.3834,-2.4672,-2.3804,-2.2951,-2.3206,-2.3977,-2.4605,-2.4605,-2.4605,-2.4455,-2.4044,-2.3759,-2.3595,-2.3595,-2.3595,-2.3595,-2.3595,-2.3595,-2.3616,-2.3717,-2.3335,-2.3135,-2.3207,-2.3087,-2.3067,-2.319,-2.3796,-2.4033,-2.3885,-2.363,-2.3671,-2.4034,-2.4498,-2.472,-2.4819,-2.6079,-2.6162,-2.5332,-2.5519,-2.5301,-2.4742,-2.4288,-2.382,-2.3363,-2.31,-2.302,-2.3033,-2.304,-2.338,-2.3919,-2.4717,-2.4471,-2.3975,-2.4734,-2.4729,-2.4547,-2.52,-2.6073,-2.6959,-2.7549,-2.7774,-2.7904,-2.8183,-2.8321,-2.844,-2.864,-2.8748,-2.8819,-2.8883,-2.8895,-2.8888,-2.8952,-2.8929,-2.8941,-2.9053,-2.922,-2.9332,-2.9373,-2.999,-3.0265,-2.9758,-2.9401,-2.8688,-2.7336,-2.6003,-2.4858,-2.402,-2.3234,-2.2792,-2.2794,-2.2615,-2.2279,-2.1744,-2.1437,-2.0909,-2.0083,-2.0041,-2.0073,-2.0179,-2.0235,-2.0311,-2.041,-2.0438,-2.0464,-2.1678,-2.1598,-2.1847,-2.1479,-2.2039,-2.2906,-2.3729,-2.4088,-2.4492,-2.542,-2.4702,-2.3864,-2.364,-2.4306,-2.4844,-2.4634,-2.4784,-2.4754,-2.4298,-2.3864,-2.3595,-2.3595,-2.3595,-2.3595,-2.3595,-2.3595,-2.3563,-2.3468,-2.3047,-2.2651,-2.2314,-2.2231,-2.2248,-2.238,-2.2784,-2.3058,-2.3159,-2.2866,-2.2679,-2.2572,-2.3582,-2.4167,-2.4403,-2.571,-2.5759,-2.4829,-2.5118,-2.4864,-2.4199,-2.3575,-2.3007,-2.2588,-2.2853,-2.3008,-2.3045,-2.307,-2.3415,-2.4024,-2.501,-2.4739,-2.412,-2.5357,-2.509,-2.4484,-2.5489,-2.616,-2.6739,-2.749,-2.7701,-2.7692,-2.7639,-2.784,-2.8106,-2.8316,-2.8433,-2.8522,-2.8559,-2.8572,-2.8584,-2.8603,-2.8597,-2.8597,-2.8688,-2.886,-2.8912,-2.8717,-2.9436,-2.969,-2.8848,-2.9027,-2.8671,-2.7258,-2.5618,-2.4331,-2.3558,-2.275,-2.2182,-2.1933,-2.1702,-2.1468,-2.12,-2.0938,-2.0541,-2.0007,-1.9977,-2.0005,-2.0074,-2.0161,-2.0239,-2.0308,-2.0341,-2.0396,-2.062,-2.0297,-2.0362,-2.064,-2.0703,-2.1391,-2.3992,-2.5098,-2.5576,-2.5615,-2.5068,-2.4395,-2.3729,-2.4702,-2.5367,-2.4709,-2.5143,-2.5585,-2.5585,-2.4433,-2.3595,-2.3595,-2.3595,-2.3595,-2.358,-2.358,-2.3325,-2.2733,-2.2879,-2.2349,-2.0884,-2.1124,-2.1401,-2.1689,-2.1808,-2.2046,-2.2378,-2.2378,-2.2181,-2.1797,-2.2524,-2.3058,-2.3424,-2.4368,-2.4722,-2.4545,-2.3872,-2.4122,-2.4798,-2.2539,-2.1683,-2.1875,-2.2611,-2.2906,-2.2919,-2.2982,-2.3008,-2.3235,-2.4768,-2.4336,-2.3498,-2.5757,-2.5487,-2.4589,-2.6139,-2.6598,-2.6756,-2.749,-2.7701,-2.7526,-2.6791,-2.7139,-2.776,-2.8025,-2.8081,-2.814,-2.8273,-2.83,-2.8322,-2.8381,-2.8339,-2.837,-2.864,-2.8573,-2.8281,-2.7691,-2.7827,-2.7668,-2.6812,-2.7573,-2.7857,-2.6972,-2.5455,-2.4225,-2.3565,-2.2759,-2.1952,-2.1155,-2.0282,-2.0219,-2.1153,-2.0361,-1.9938,-2.0007,-1.9938,-1.9938,-2.0007,-2.0136,-2.0156,-2.0096,-2.0234,-2.0321,-2.0846,-2.0638,-2.0947,-2.076,-2.141,-2.2293,-2.3092,-2.3744,-2.4462,-2.542,-2.545,-2.5098,-2.4425,-2.4634,-2.4679,-2.4014,-2.4059,-2.4193,-2.4193,-2.3475,-2.2972,-2.2972,-2.2972,-2.2793,-2.2308,-2.2263,-2.2214,-2.2079,-2.1643,-2.1284,-2.1029,-2.0609,-2.0492,-2.0703,-2.0755,-2.0824,-2.0926,-2.0686,-2.0751,-2.1103,-2.1078,-2.1617,-2.2682,-2.3994,-2.4039,-2.3068,-2.3388,-2.3454,-2.3268,-2.2581,-2.241,-2.2593,-2.2717,-2.2863,-2.3045,-2.302,-2.3689,-2.4681,-2.5135,-2.5009,-2.476,-2.5446,-2.54,-2.5156,-2.563,-2.6507,-2.742,-2.7631,-2.7701,-2.7526,-2.6791,-2.6756,-2.6943,-2.7032,-2.7433,-2.7836,-2.7861,-2.7876,-2.7872,-2.7897,-2.7886,-2.7901,-2.7978,-2.817,-2.8047,-2.7336,-2.7517,-2.7457,-2.6722,-2.6845,-2.672,-2.5995,-2.5023,-2.4138,-2.3425,-2.2585,-2.1793,-2.1071,-2.0207,-1.9889,-2.02,-1.9968,-1.9849,-1.9862,-1.9884,-1.9913,-1.9938,-2.0026,-2.0074,-2.0096,-2.0139,-2.0223,-2.21,-2.2025,-2.2301,-2.213,-2.2535,-2.2985,-2.3044,-2.3535,-2.4313,-2.539,-2.5382,-2.5068,-2.4679,-2.4605,-2.447,-2.4051,-2.4014,-2.4014,-2.4014,-2.3236,-2.2703,-2.2703,-2.2463,-2.2128,-2.1739,-2.1695,-2.161,-2.1383,-2.1027,-2.0756,-2.0582,-2.0048,-1.975,-1.982,-1.9591,-1.9469,-1.9469,-1.9279,-1.9437,-1.9957,-2.0063,-2.0587,-2.1549,-2.2834,-2.2822,-2.1801,-2.2686,-2.2511,-2.1669,-2.2295,-2.2456,-2.2362,-2.2621,-2.2816,-2.2982,-2.297,-2.3571,-2.4436,-2.471,-2.465,-2.4528,-2.5114,-2.5154,-2.5015,-2.5314,-2.6279,-2.721,-2.6876,-2.7016,-2.7016,-2.5963,-2.591,-2.6195,-2.6511,-2.6946,-2.735,-2.7631,-2.7473,-2.735,-2.7631,-2.7455,-2.735,-2.7648,-2.7872,-2.765,-2.6623,-2.6213,-2.6004,-2.5964,-2.564,-2.5356,-2.5267,-2.4582,-2.3741,-2.2747,-2.2191,-2.1461,-2.0464,-1.9894,-1.9629,-1.9757,-1.9788,-1.98,-1.9801,-1.983,-1.9854,-1.9868,-1.9925,-1.9977,-2.0011,-2.0041,-2.0124,-2.3751,-2.3836,-2.395,-2.4148,-2.3875,-2.359,-2.3722,-2.4183,-2.4762,-2.5375,-2.5023,-2.4605,-2.4605,-2.4605,-2.459,-2.453,-2.4515,-2.4515,-2.4515,-2.3415,-2.2613,-2.2613,-2.2029,-2.1575,-2.1515,-2.1515,-2.1246,-2.0569,-2.0696,-2.0449,-1.9662,-1.935,-1.9129,-1.9015,-1.8482,-1.8191,-1.8191,-1.8146,-1.83,-1.8662,-1.9262,-1.9716,-2.0065,-2.1157,-2.1315,-2.0753,-2.1725,-2.1423,-2.0318,-2.1716,-2.2008,-2.1666,-2.2319,-2.2656,-2.2803,-2.2855,-2.2954,-2.3149,-2.3859,-2.3667,-2.3403,-2.4764,-2.4787,-2.4431,-2.5103,-2.5875,-2.6335,-2.5612,-2.5928,-2.6156,-2.4677,-2.48,-2.5489,-2.6226,-2.6493,-2.6774,-2.7455,-2.7087,-2.6806,-2.7487,-2.7069,-2.6823,-2.7487,-2.7663,-2.7203,-2.5711,-2.4467,-2.3968,-2.4754,-2.4237,-2.403,-2.4699,-2.4115,-2.3172,-2.1888,-2.1714,-2.1074,-1.968,-1.9456,-1.9474,-1.965,-1.9751,-1.9794,-1.9795,-1.98,-1.98,-1.9795,-1.986,-1.9894,-1.9896,-1.9955,-2.0059,-2.3204,-2.3423,-2.395,-2.4148,-2.4505,-2.4817,-2.4843,-2.4641,-2.4508,-2.4755,-2.4709,-2.4605,-2.4605,-2.4605,-2.4425,-2.3909,-2.3819,-2.3819,-2.3819,-2.2712,-2.1924,-2.1924,-2.1321,-2.0722,-2.0187,-2.0142,-1.9839,-1.9181,-1.9171,-1.8938,-1.8343,-1.829,-1.8294,-1.8312,-1.8237,-1.8191,-1.8191,-1.7685,-1.7715,0.0,-1.7929,-1.7803,-1.7938,-1.9766,-2.034,-1.9867,-2.0197,-2.0595,-2.0946,-2.0769,-2.1314,-2.2238,-2.1784,-2.2064,-2.2712,-2.2672,-2.3034,-2.3595,-2.3846,-2.3848,-2.3819,-2.4291,-2.4366,-2.4326,-2.4484,-2.505,-2.563,-2.5454,-2.5524,-2.5454,-2.4537,-2.4427,-2.4572,-2.4747,-2.5717,-2.6634,-2.6791,-2.6746,-2.6736,-2.6877,-2.6789,-2.6736,-2.6894,-2.7344,-2.7203,-2.5711,-2.4822,-2.4171,-2.3791,-2.4129,-2.4254,-2.3848,-2.3701,-2.3289,-2.2478,-2.1832,-2.1098,-2.0256,-1.9654,-1.9342,-1.9387,-1.9604,-1.9713,-1.9712,-1.9825,-1.9825,-1.9712,-1.9782,-1.9843,-1.989,-1.9913,-1.9958,-2.4258,-2.4912,-2.5745,-2.5613,-2.5859,-2.5962,-2.5339,-2.4973,-2.4806,-2.487,-2.4474,-2.4111,-2.4111,-2.4111,-2.4007,-2.3655,-2.3383,-2.3314,-2.355,-2.2529,-2.1739,-2.1695,-2.0827,-1.9959,-1.9286,-1.8927,-1.8612,-1.8252,-1.8272,-1.8188,-1.7905,-1.7652,-1.7547,-1.7563,-1.7333,-1.7195,-1.7195,-1.6871,-1.6901,-1.7239,-1.7208,-1.7208,-1.7238,-1.8481,-1.8993,-1.889,-1.909,-1.9388,-1.9737,-1.9997,-2.0733,-2.1646,-2.1272,-2.1725,-2.2544,-2.2017,-2.2412,-2.323,-2.3254,-2.3294,-2.3348,-2.3528,-2.3606,-2.364,-2.3704,-2.426,-2.4787,-2.4418,-2.4576,-2.4695,-2.3965,-2.3766,-2.3872,-2.4254,-2.4958,-2.5741,-2.6455,-2.6102,-2.5945,-2.6968,-2.6613,-2.6362,-2.7056,-2.6912,-2.6319,-2.5195,-2.4428,-2.3809,-2.3401,-2.3679,-2.3773,-2.3348,-2.3028,-2.2709,-2.24,-2.1342,-2.0558,-2.0273,-1.9519,-1.9142,-1.9204,-1.9409,-1.9548,-1.9652,-1.9725,-1.9725,-1.9652,-1.9725,-1.9763,-1.9801,-1.985,-1.9884,-2.5253,-2.6387,-2.7516,-2.7123,-2.7131,-2.6904,-2.5724,-2.5295,-2.5172,-2.5319,-2.4491,-2.3745,-2.3745,-2.3659,-2.3565,-2.346,-2.308,-2.2891,-2.3248,-2.2329,-2.1553,-2.1385,-2.0292,-1.9256,-1.8597,-1.8027,-1.7637,-1.7533,-1.7629,-1.7648,-1.7542,-1.7076,-1.6803,-1.6803,-1.6343,-1.6095,-1.6095,-1.6166,-1.6194,-1.621,-1.6763,-1.7024,-1.7038,-1.7307,-1.7582,-1.7863,-1.8084,-1.8149,-1.8182,-1.9225,-2.0004,-2.0519,-2.0558,-2.1136,-2.1847,-2.1204,-2.1529,-2.2323,-2.2473,-2.2508,-2.2531,-2.273,-2.2794,-2.285,-2.3028,-2.3533,-2.3919,-2.327,-2.3538,-2.3889,-2.3314,-2.3156,-2.3327,-2.404,-2.4292,-2.4752,-2.6262,-2.5504,-2.5088,-2.6968,-2.6257,-2.5773,-2.708,-2.6263,-2.5224,-2.46,-2.3886,-2.3383,-2.3313,-2.3253,-2.3193,-2.3114,-2.2459,-2.2023,-2.2102,-2.0887,-2.0097,-2.008,-1.947,-1.9084,-1.9076,-1.9188,-1.9323,-1.9472,-1.956,-1.958,-1.9569,-1.9633,-1.9673,-1.9673,-1.9744,-1.9795,-2.3866,-2.5236,-2.6826,-2.6775,-2.723,-2.7482,-2.6673,-2.5659,-2.5047,-2.5757,-2.5047,-2.4287,-2.4287,-2.3921,-2.343,-2.2912,-2.2768,-2.2564,-2.2099,-2.1349,-2.0636,-2.0125,-1.9336,-1.8565,-1.7908,-1.7758,-1.7458,-1.6891,-1.6846,-1.6623,-1.6113,-1.6051,-1.6049,-1.6049,-1.6029,-1.6039,-1.6095,-1.6109,-1.6137,-1.6194,-1.63,-1.6332,-1.6346,-1.6373,-1.655,-1.6802,-1.6842,-1.7334,-1.8107,-1.8221,-1.8719,-1.9409,-1.9351,-1.9458,-1.9733,-2.0531,-2.0785,-2.0848,-2.1821,-2.1982,-2.182,-2.2248,-2.2426,-2.2533,-2.2897,-2.3052,-2.3079,-2.3025,-2.2963,-2.2924,-2.3012,-2.2977,-2.3025,-2.3364,-2.3794,-2.4589,-2.6234,-2.5531,-2.4844,-2.5711,-2.5237,-2.4949,-2.5667,-2.5194,-2.4667,-2.4511,-2.3922,-2.3448,-2.3313,-2.3289,-2.3265,-2.3193,-2.2465,-2.2046,-2.2187,-2.1416,-2.0665,-2.0047,-1.9981,-1.9641,-1.8959,-1.9062,-1.9086,-1.8999,-1.9387,-1.9541,-1.9435,-1.955,-1.9604,-1.9604,-1.9611,-1.9625,-2.5625,-2.6268,-2.6911,-2.7774,-2.7892,-2.7604,-2.686,-2.6269,-2.5848,-2.5782,-2.5159,-2.4573,-2.4433,-2.422,-2.3756,-2.2902,-2.2455,-2.2094,-2.1833,-2.1192,-2.0644,-2.034,-1.9348,-1.8448,-1.7773,-1.7056,-1.6503,-1.6219,-1.6204,-1.6069,-1.5814,-1.5827,-1.5827,-1.5827,-1.5913,-1.5956,-1.5984,-1.6053,-1.6123,-1.6194,-1.6194,-1.6194,-1.6194,-1.6194,-1.6262,-1.6369,-1.653,-1.677,-1.7097,-1.776,-1.8181,-1.8359,-1.8331,-1.8927,-1.9812,-1.967,-2.0201,-2.1039,-2.1529,-2.1615,-2.1554,-2.1895,-2.1979,-2.2034,-2.2466,-2.2594,-2.2563,-2.259,-2.2537,-2.2487,-2.25,-2.2567,-2.284,-2.3671,-2.3546,-2.3742,-2.5551,-2.5136,-2.4557,-2.4961,-2.5103,-2.51,-2.4922,-2.4724,-2.4413,-2.3909,-2.3614,-2.3407,-2.3313,-2.3265,-2.3241,-2.3205,-2.2112,-2.1799,-2.2791,-2.138,-2.0672,-2.1251,-2.0475,-1.9814,-1.9419,-1.9138,-1.8941,-1.8852,-1.9125,-1.9243,-1.9225,-1.9338,-1.9405,-1.9489,-1.9569,-1.9609,-2.6167,-2.642,-2.6471,-2.7808,-2.7824,-2.7367,-2.6826,-2.6539,-2.6319,-2.5947,-2.5263,-2.4687,-2.4537,-2.4146,-2.3542,-2.258,-2.1922,-2.1482,-2.1321,-2.085,-2.0452,-2.0265,-1.9333,-1.8371,-1.7518,-1.6593,-1.5964,-1.5814,-1.5799,-1.5799,-1.5799,-1.5799,-1.5799,-1.5799,-1.5842,-1.5885,-1.59,-1.6025,-1.6123,-1.6194,-1.6194,-1.6194,-1.6194,-1.6194,-1.6194,-1.6208,-1.6396,-1.6369,-1.6282,-1.7404,-1.7648,-1.7342,-1.7515,-1.837,-1.9452,-1.8936,-1.9665,-2.0925,-2.1196,-2.1229,-2.123,-2.1493,-2.1553,-2.1597,-2.2048,-2.2161,-2.2164,-2.2175,-2.2133,-2.2093,-2.2037,-2.2136,-2.2505,-2.3549,-2.3347,-2.3244,-2.4435,-2.4447,-2.4241,-2.4228,-2.4615,-2.4746,-2.4174,-2.4131,-2.3985,-2.3341,-2.3301,-2.3336,-2.3301,-2.3053,-2.2964,-2.3211,-2.167,-2.1408,-2.3264,-2.1444,-2.08,-2.2207,-2.0978,-2.0091,-1.9838,-1.9207,-1.8851,-1.8742,-1.8861,-1.8974,-1.9109,-1.9148,-1.9235,-1.9342,-1.9472,-1.9526,-2.341,-2.4118,-2.4795,-2.5592,-2.6268,-2.6742,-2.6708,-2.6167,-2.5845,-2.6505,-2.5507,-2.4573,-2.4757,-2.3467,-2.2192,-2.15,-2.1038,-2.0561,-1.9975,-1.9819,-1.9564,-1.9051,-1.8831,-1.8192,-1.6891,-1.6681,-1.6428,-1.5844,-1.5799,-1.5799,-1.5799,-1.5799,-1.5799,-1.5799,-1.5799,-1.5827,-1.59,-1.6025,-1.6123,-1.6194,-1.6194,-1.6194,-1.6194,-1.6194,-1.6194,-1.6194,-1.6208,-1.6208,-1.624,-1.696,-1.6852,-1.6344,-1.6976,-1.7283,-1.7496,-1.8515,-1.9152,-1.9653,-2.0671,-2.0812,-2.0596,-2.0926,-2.1166,-2.1385,-2.1713,-2.1836,-2.184,-2.1832,-2.1702,-2.1583,-2.1774,-2.1822,-2.193,-2.2304,-2.3132,-2.3627,-2.2908,-2.3419,-2.3868,-2.3374,-2.3202,-2.314,-2.316,-2.3117,-2.31,-2.3107,-2.3168,-2.3229,-2.3289,-2.2523,-2.2306,-2.3189,-2.1292,-2.0901,-2.3298,-2.1989,-2.1393,-2.2243,-2.1518,-2.0685,-1.9931,-1.9197,-1.8733,-1.8604,-1.8688,-1.8834,-1.9095,-1.9104,-1.9145,-1.9208,-1.9274,-1.9355,-2.378,-2.3949,-2.4069,-2.5304,-2.5812,-2.5879,-2.5405,-2.5812,-2.6116,-2.5439,-2.4863,-2.4377,-2.3972,-2.3522,-2.2883,-2.1956,-2.1408,-2.0903,-2.0333,-1.9942,-1.9801,-2.0029,-1.9618,-1.9151,-1.8672,-1.7848,-1.707,-1.6428,-1.6024,-1.5799,-1.5799,-1.5799,-1.5799,-1.5799,-1.5799,-1.5827,-1.59,-1.5957,-1.6026,-1.6137,-1.6137,-1.6166,-1.6194,-1.6194,-1.6194,-1.6194,-1.6194,-1.6194,-1.6223,-1.6455,-1.6423,-1.627,-1.6932,-1.7514,-1.8006,-1.833,-1.8874,-1.9513,-1.9892,-1.9954,-1.9967,-2.0653,-2.0893,-2.0974,-2.1308,-2.1402,-2.1402,-2.1417,-2.1386,-2.134,-2.1214,-2.1354,-2.1701,-2.2283,-2.2916,-2.3353,-2.3223,-2.3446,-2.3612,-2.3432,-2.297,-2.2741,-2.3162,-2.2953,-2.2704,-2.2533,-2.2695,-2.2755,-2.2599,-2.2457,-2.2491,-2.286,-2.1598,-2.1433,-2.3153,-2.2154,-2.1849,-2.2823,-2.1761,-2.0975,-2.0687,-1.9427,-1.8706,-1.8669,-1.8733,-1.8833,-1.8976,-1.8976,-1.9019,-1.9137,-1.9261,-1.9298,-2.3562,-2.3579,-2.3748,-2.5236,-2.5236,-2.5,-2.549,-2.5981,-2.6116,-2.5388,-2.5049,-2.4628,-2.3915,-2.3688,-2.3241,-2.2118,-2.1513,-2.1031,-2.051,-2.0306,-2.0352,-2.0662,-2.0513,-2.0273,-2.0049,-1.9031,-1.7997,-1.71,-1.6458,0.0,-1.5814,-1.5799,-1.5799,-1.5799,-1.5799,-1.5827,-1.59,-1.59,-1.5956,-1.6067,-1.6067,-1.6095,-1.618,-1.618,-1.618,-1.6194,-1.6194,-1.6194,-1.6194,-1.6194,-1.6194,-1.627,-1.6991,-1.7559,-1.8022,-1.8223,-1.878,-1.9449,-1.9546,-1.9702,-1.9935,-2.0587,-2.0777,-2.0777,-2.099,-2.1087,-2.1103,-2.1103,-2.1167,-2.1167,-2.0957,-2.1119,-2.1568,-2.2458,-2.2726,-2.2897,-2.3278,-2.3489,-2.3553,-2.3432,-2.2943,-2.2632,-2.283,-2.2584,-2.23,-2.2167,-2.23,-2.2381,-2.222,-2.2071,-2.2142,-2.2495,-2.1441,-2.1323,-2.2805,-2.2054,-2.1804,-2.2511,-2.1539,-2.0784,-2.0438,-1.9185,-1.8491,-1.8491,-1.8537,-1.8649,-1.8797,-1.8833,-1.8923,-1.9035,-1.9153,-1.9243,0.0,0.0,0.0,-2.5186,-2.4458,-2.4137,-2.6995,-2.6556,-2.5778,-2.6488,-2.6065,-2.5355,-2.466,-2.3915,-2.3022,-2.1852,-2.1291,-2.0845,-2.0382,-2.087,-2.1121,-2.076,-2.1306,-2.144,-2.0778,-2.0124,-1.9166,-1.7833,-1.7115,-1.6473,-1.5858,-1.5814,-1.5799,-1.5799,-1.5799,-1.5827,-1.59,-1.59,-1.5927,-1.6011,-1.6011,-1.6039,-1.6095,-1.6095,-1.6137,-1.6194,-1.6194,-1.6194,-1.6194,-1.6194,-1.621,-1.63,-1.7092,-1.7342,-1.7376,-1.819,-1.8858,-1.9382,-1.964,-2.0079,-2.0575,-2.0776,-2.0858,-2.0842,-2.0811,-2.086,-2.0925,-2.0909,-2.1006,-2.1103,-2.1135,-2.1183,-2.152,-2.2741,-2.2605,-2.2404,-2.3019,-2.3499,-2.3653,-2.3268,-2.3024,-2.27,-2.212,-2.1943,-2.1897,-2.1969,-2.2039,-2.211,-2.2164,-2.139,-2.1167,-2.2079,-2.078,-2.0546,-2.2262,-2.1708,-2.1276,-2.1289,-2.0828,-2.0119,-1.9144,-1.8461,-1.809,-1.809,-1.809,-1.8252,-1.8573,-1.8723,-1.8825,-1.8904,-1.8975,-1.9135,-2.3949,0.0,0.0,0.0,0.0,0.0,-2.375,-2.4323,-2.4863,-2.5066,-2.4948,-2.4898,-2.5236,-2.4255,-2.3296,-2.2973,-2.1836,-2.0943,-2.0829,-2.0414,-2.0451,-2.1325,-2.159,-2.162,-2.144,-2.0827,-1.9884,0.0,-1.7803,-1.713,-1.6503,-1.6039,-1.5799,-1.5799,-1.5799,-1.5813,-1.5827,-1.5827,-1.5856,-1.5927,-1.5927,-1.5955,-1.6039,-1.6081,-1.6109,-1.6123,-1.618,-1.6194,-1.6194,-1.6194,-1.6542,-1.7092,-1.7205,-1.7913,-1.8827,-1.8424,-1.9106,-2.0246,-2.0329,-2.0801,-2.1399,-2.155,-2.1916,-2.2141,-2.1178,-2.1259,-2.1593,-2.1166,-2.1103,-2.1279,-2.1777,-2.1873,-2.2191,-2.3488,-2.3319,-2.3181,-2.4412,-2.4033,-2.3271,-2.272,-2.2573,-2.2476,-2.2248,-2.1917,-2.1634,-2.1449,-2.1602,-2.1648,-2.1433,-2.1299,-2.1369,-2.1729,-2.1236,-2.1244,-2.2102,-2.1365,-2.0931,-2.1059,-2.0101,-1.939,-1.9098,-1.8356,-1.7956,-1.7956,-1.7956,-1.7999,-1.8083,-1.8477,-1.8705,-1.8825,-1.8958,-1.9069,-2.4575,-2.4186,-2.3917,-2.4239,0.0,0.0,-2.3547,-2.3866,-2.4135,-2.444,-2.4745,-2.4935,-2.4844,-2.436,-2.3813,-2.3307,-2.2277,-2.1427,-2.1038,-2.0629,-2.0603,-2.1205,-2.153,-2.1695,-2.1695,-2.1096,-2.0255,-1.9196,-1.8508,-1.7713,-1.6741,-1.6368,-1.6069,-1.5814,-1.5799,-1.5799,-1.5799,-1.5799,-1.5813,-1.5871,-1.5871,-1.5885,-1.5955,-1.6012,-1.6025,-1.6083,-1.6402,-1.6539,-1.6569,-1.6844,-1.7101,-1.7404,-1.8269,-1.8765,-1.8966,-1.9152,-1.9759,-2.0591,-2.1007,-2.1591,-2.2191,-2.2331,-2.26,-2.274,-2.197,-2.2052,-2.234,-2.1994,-2.1759,-2.1649,-2.1795,-2.197,-2.24,-2.3444,-2.3381,-2.3337,-2.4204,-2.3815,-2.3213,-2.2928,-2.2621,-2.228,-2.1907,-2.1648,-2.1403,-2.1231,-2.1373,-2.1388,-2.1167,-2.1246,-2.1356,-2.1416,-2.1293,-2.1372,-2.1735,-2.1295,-2.0784,-2.0282,-1.966,-1.8978,-1.8289,-1.7843,-1.7631,-1.7647,-1.7647,-1.7698,-1.7821,-1.8201,-1.8467,-1.8648,-1.8779,-1.8869,-2.4931,-2.4745,-2.4863,-2.5355,-2.412,0.0,-2.4864,-2.4309,-2.362,-2.4176,-2.4787,-2.4878,-2.3852,-2.4113,-2.4138,-2.3067,-2.2504,-2.1937,-2.1243,-2.1266,-2.1204,-2.085,-2.1395,-2.1739,-2.1605,-2.1126,-2.0498,-1.9768,-1.9076,-1.8147,-1.6891,-1.6741,-1.6428,-1.5829,-1.5799,-1.5799,-1.5799,-1.5799,-1.5799,-1.5799,-1.5799,-1.5827,-1.59,-1.59,-1.5973,-1.6134,-1.6742,-1.7046,-1.7167,-1.7926,-1.7898,-1.7592,-1.9542,-1.9587,-1.8715,-2.0072,-2.0651,-2.0914,-2.1801,-2.253,-2.3043,-2.3079,-2.3111,-2.3104,-2.2927,-2.2982,-2.3088,-2.2947,-2.2575,-2.2084,-2.1536,-2.1795,-2.2355,-2.2955,-2.305,-2.3019,-2.3099,-2.3109,-2.315,-2.3333,-2.2864,-2.2151,-2.1343,-2.1262,-2.1278,-2.1231,-2.1262,-2.1278,-2.1215,-2.1199,-2.1199,-2.1199,-2.1151,-2.1119,-2.118,-2.1226,-2.0656,-1.9167,-1.9293,-1.8726,-1.7156,-1.7162,-1.7224,-1.7281,-1.7281,-1.741,-1.7641,-1.793,-1.817,-1.8355,-1.8497,-1.8623,-2.6319,-2.6268,-2.6031,-2.4982,-2.527,0.0,-2.3393,-2.3388,-2.3652,-2.3154,-2.2899,-2.2897,-2.3234,-2.2925,-2.2552,-2.2306,-2.1841,-2.1629,-2.1996,-2.1789,-2.1583,-2.15,-2.2104,-2.2089,-2.1006,-2.1261,-2.0991,-1.9798,-1.9076,-1.8341,-1.7548,-1.6995,-1.6428,-1.5829,-1.5799,-1.5799,-1.5799,-1.5799,-1.5799,-1.5799,-1.5799,-1.5813,-1.5813,-1.5885,-1.6201,-1.6728,-1.6924,-1.7303,-1.7911,-1.9162,-1.9304,-1.871,-1.8555,-1.9436,-2.0729,-2.0448,-2.155,-2.3152,-2.3349,-2.3929,-2.4476,-2.391,-2.4116,-2.4349,-2.3132,-2.3272,-2.3663,-2.264,-2.2275,-2.2164,-2.2052,-2.2116,-2.2355,-2.2955,-2.2736,-2.2532,-2.3128,-2.2439,-2.1876,-2.2491,-2.2491,-2.2167,-2.1423,-2.1294,-2.1309,-2.1278,-2.1294,-2.1278,-2.1215,-2.1199,-2.1199,-2.1199,-2.1183,-2.0989,-2.0533,-2.0514,-1.9882,-1.8408,-1.8351,-1.8007,-1.714,-1.7104,-1.7133,-1.7133,-1.7133,-1.7203,-1.7301,-1.7726,-1.7956,-1.7999,-1.8191,-1.829,-2.6279,-2.5892,-2.5301,-2.4904,-2.4576,0.0,0.0,-2.254,-2.2427,-2.2362,-2.2231,-2.2239,-2.2675,-2.2481,-2.2157,-2.1937,-2.1968,-2.2006,-2.2002,-2.1838,-2.1575,-2.1246,-2.1784,-2.1819,-2.0793,-2.1006,-2.0782,-1.9783,-1.9705,-1.9253,-1.8252,-1.7548,-1.6906,-1.6263,-1.5964,-1.5799,-1.5799,-1.5799,-1.5799,-1.5799,-1.5799,-1.5799,-1.5814,-1.6143,-1.6488,-1.6833,-1.7541,-1.8039,-1.8415,-1.9479,-1.9693,-1.9453,-1.9889,-2.0528,-2.1262,-2.171,-2.263,-2.3698,-2.4081,-2.4449,-2.4744,-2.4363,-2.4488,-2.4645,-2.3877,-2.3674,-2.3469,-2.2321,-2.201,-2.193,-2.163,-2.1773,-2.2088,-2.2369,-2.2126,-2.197,-2.2611,-2.189,-2.1247,-2.1746,-2.1859,-2.173,-2.1358,-2.1293,-2.1293,-2.1293,-2.1293,-2.1294,-2.1246,-2.1246,-2.1246,-2.1246,-2.1246,-2.0988,-2.0338,-2.0305,-1.9673,-1.8184,-1.8103,-1.7808,-1.7128,-1.7095,-1.7095,-1.7095,-1.7095,-1.7133,-1.715,-1.7384,-1.7579,-1.771,-1.791,-1.8029,-2.5726,-2.5292,-2.4742,-2.4879,-2.4055,-2.3195,0.0,0.0,0.0,-2.1829,-2.1844,-2.1815,-2.18,-2.184,-2.1792,-2.1549,-2.1949,-2.2179,-2.1754,-2.1695,-2.1455,-2.0778,-2.141,-2.1575,-2.0778,-2.0569,-2.0288,-1.9753,-2.0079,-1.9836,-1.8762,-1.8192,-1.7578,-1.6905,-1.6293,-1.5964,-1.5964,-1.5858,-1.5799,-1.5799,-1.5799,-1.5858,-1.5994,-1.6473,-1.683,-1.716,-1.8222,-1.8777,-1.8927,-1.9483,-1.9708,-1.9831,-2.114,-2.1455,-2.1364,-2.2717,-2.3385,-2.3734,-2.4342,-2.4549,-2.4549,-2.4549,-2.4508,-2.4487,-2.4528,-2.3926,-2.306,-2.2175,-2.1921,-2.175,-2.1017,-2.1283,-2.1703,-2.1577,-2.1374,-2.1356,-2.1786,-2.1323,-2.0893,-2.1183,-2.1183,-2.1183,-2.1277,-2.1293,-2.1293,-2.1293,-2.1262,-2.1197,-2.1131,-2.1181,-2.1182,-2.1053,-2.1037,-2.0746,-2.0069,-2.002,-1.942,-1.7989,-1.8022,-1.7808,-1.7128,-1.7095,-1.7095,-1.7095,-1.7095,-1.7095,-1.7095,-1.7095,-1.7216,-1.7432,-1.7624,-1.7766,-2.5278,-2.6106,-2.649,-2.4662,-2.595,-2.6855,-2.3713,0.0,-2.3581,-2.1766,0.0,-2.0677,-2.0113,0.0,0.0,-2.0722,-2.0868,-2.1111,-2.162,-2.1695,-2.1455,-2.0778,-2.1814,-2.2104,-2.0823,-2.0168,-1.9783,-1.9708,-1.9211,-1.8867,-1.8717,-1.8627,-1.8267,-1.7608,-1.6936,-1.6607,-1.6607,-1.6069,-1.5799,-1.5799,-1.5799,-1.6069,-1.6607,-1.6666,-1.7354,-1.8476,-1.8625,-1.9031,-1.9588,-1.9678,-1.9708,-1.9723,-1.9909,-2.0756,-2.1922,-2.2113,-2.304,-2.423,-2.4307,-2.4323,-2.4323,-2.4323,-2.4213,-2.4109,-2.4281,-2.3738,-2.2949,-2.2458,-2.2319,-2.2058,-2.0855,-2.1027,-2.1368,-2.0793,-2.062,-2.062,-2.067,-2.0625,-2.0613,-2.0877,-2.0745,-2.0745,-2.1214,-2.1293,-2.1293,-2.1293,-2.1103,-2.0831,-2.0469,-2.0718,-2.0719,-2.0114,-2.0049,-1.9762,-1.9017,-1.9014,-1.8523,-1.7293,-1.7776,-1.7808,-1.7128,-1.7095,-1.7095,-1.7095,-1.7095,-1.7095,-1.7095,-1.7095,-1.712,-1.7141,-1.7288,-1.7368,-2.4077,-2.4932,-2.5524,-2.462,-2.5006,-2.5219,-2.3677,-2.3096,-2.2722,-2.2226,0.0,0.0,0.0,0.0,0.0,0.0,-2.0453,-2.0658,-2.0543,-2.1201,-2.1455,-2.0778,-2.1545,0.0,-2.0778,-2.1141,-2.0966,-1.9798,-1.9809,-1.969,-1.9286,-1.8912,-1.8565,-1.8281,-1.7249,-1.6891,-1.7279,-1.6637,-1.6518,-1.6907,-1.6907,-1.7041,-1.7294,-1.7667,-1.8162,-1.8732,-1.9106,-1.9453,-1.9708,-1.9708,-1.9708,-1.9708,-1.9708,-2.0329,-2.1306,-2.1803,-2.2402,-2.2969,-2.2969,-2.2969,-2.303,-2.3412,-2.3488,-2.3447,-2.3529,-2.3208,-2.2743,-2.234,-2.2217,-2.2021,-2.1085,-2.1057,-2.1103,-2.0426,-1.9861,-1.9643,-2.035,-2.0082,-1.9878,-2.0534,-2.0579,-2.0437,-2.0273,-2.0258,-2.0258,-2.0258,-1.983,-1.9578,-1.9813,-1.9988,-1.9988,-1.9704,-1.9657,-1.9232,-1.8146,-1.8181,-1.7864,-1.6921,-1.7274,-1.7271,-1.672,-1.6808,-1.6805,-1.6691,-1.6805,-1.6869,-1.6869,-1.6596,-1.6451,-1.6451,-1.6519,-1.6633,-2.3356,-2.4016,-2.456,-2.4365,-2.4096,-2.3834,-2.364,-2.3026,-2.2532,-2.2673,-2.2054,0.0,0.0,0.0,-2.0471,-2.0292,0.0,-2.0737,-2.0064,-2.0647,-2.0961,-2.0483,-2.1021,0.0,0.0,-2.1325,-2.1265,-1.9813,-1.9989,-2.0019,-1.9723,-1.9226,-1.8972,-1.8972,-1.8027,-1.7604,-1.7753,-1.7279,-1.719,-1.7471,-1.7471,-1.7574,-1.7783,-1.841,-1.8723,-1.8794,-1.9304,-1.9599,-1.969,-1.9581,-1.9545,-1.9545,-1.9672,-1.9934,-2.0381,-2.1306,-2.1765,-2.1946,-2.2128,-2.2309,-2.2521,-2.3005,-2.3156,-2.3156,-2.3156,-2.2947,-2.2639,-2.2349,-2.2256,-2.2104,-2.1436,-2.1254,-2.1147,-2.0661,-1.9745,-1.9256,-2.0323,-1.9888,-1.9468,-2.0181,-2.0291,-2.0075,-1.943,-1.9403,-1.9436,-1.9249,-1.8749,-1.8531,-1.8889,-1.9045,-1.9045,-1.8858,-1.8858,-1.8469,-1.746,-1.7354,-1.7135,-1.6652,-1.6808,-1.6772,-1.6396,-1.6528,-1.6446,-1.6089,-1.6242,-1.6263,-1.6098,-1.5719,-1.5466,-1.5347,-1.5586,-1.5798,0.0,0.0,-2.444,-2.3789,-2.4096,-2.4395,-2.3744,-2.4066,-2.4156,-2.2957,-2.3116,-2.3131,-2.1919,-2.2209,-2.2388,-2.1739,-2.165,0.0,0.0,-2.0154,-1.9768,-1.9738,-2.0318,-2.0483,0.0,-1.9768,-1.9768,0.0,-1.9121,-1.9031,-1.9678,-1.9678,-1.9678,-1.9678,-1.9633,-1.9057,-1.791,-1.7863,-1.7544,-1.6921,-1.6921,-1.7268,-1.7896,-1.8448,-1.8768,-1.8902,-1.9053,-1.9343,-1.9672,-1.9288,-1.912,-1.9157,-1.9545,-1.9487,-1.9293,-2.0366,-2.1141,-2.1804,-2.2448,-2.3062,-2.3535,-2.3565,-2.3586,-2.3586,-2.3586,-2.3167,-2.2688,-2.2694,-2.2694,-2.2529,-2.1849,-2.1684,-2.1684,-2.1655,-2.0636,-1.9857,-2.0546,-2.0157,-1.9699,-1.9806,-1.9782,-1.9536,-1.8929,-1.9192,-1.928,-1.8623,-1.8285,-1.7976,-1.7609,-1.7898,-1.79,-1.7241,-1.724,-1.7224,-1.7119,-1.6507,-1.6237,-1.6412,-1.6425,-1.6425,-1.6412,-1.6412,-1.6042,-1.525,-1.5364,-1.5154,-1.4577,-1.4433,-1.4123,-1.3701,-1.4551,-1.4939,0.0,0.0,-2.4978,-2.3879,0.0,0.0,-2.3849,-2.4111,-2.435,-2.3475,-2.3445,-2.334,-2.2523,-2.2553,-2.2478,-2.1799,-2.1695,-2.147,0.0,-2.0124,-1.9708,-1.9708,-2.0288,-2.0438,-1.9768,0.0,0.0,0.0,-1.9498,0.0,-1.9693,-1.9369,-1.9169,-1.9169,-1.8774,-1.857,-1.8556,-1.8179,-1.8101,-1.8355,-1.7902,-1.7857,-1.8157,-1.8347,-1.8475,-1.8505,-1.8635,-1.8784,-1.8903,-1.8765,-1.8707,-1.8726,-1.8846,-1.8808,-1.8793,-1.9405,-1.9776,-2.0015,-2.0235,-2.048,-2.0833,-2.1677,-2.1846,-2.1822,-2.2628,-2.273,-2.257,-2.257,-2.257,-2.2469,-2.2077,-2.1789,-2.1575,-2.1366,-2.0449,-1.9865,-2.0773,-2.0127,-1.9417,-1.9563,-1.9221,-1.853,-1.7351,-1.7289,-1.7342,-1.7196,-1.6713,-1.6488,-1.6804,-1.6953,-1.6936,-1.6742,-1.6727,-1.6517,-1.5965,-1.5816,-1.5811,-1.5867,-1.5994,-1.5953,-1.5682,-1.5797,-1.5495,-1.4701,-1.4845,-1.4643,-1.4035,-1.3624,-1.3359,-1.3206,-1.3007,-1.3341,-2.3017,-2.3924,0.0,-2.3819,-2.4433,0.0,-2.3849,0.0,-2.4769,-2.4081,-2.3969,-2.3909,-2.3744,-2.3347,-2.2823,-2.2164,-2.1864,-2.138,0.0,-1.9974,-1.9708,-1.9708,-2.0079,-2.0273,-2.0064,-2.0228,-2.0258,-2.0064,-1.9842,-1.9621,0.0,0.0,-1.8817,-1.8612,-1.8466,-1.8358,-1.8336,-1.8242,-1.8262,-1.8467,-1.8262,-1.8235,-1.8344,-1.8505,-1.8505,-1.8384,-1.8284,-1.8344,-1.8481,-1.8324,-1.8246,-1.8266,-1.8422,-1.8403,-1.8305,-1.8726,-1.9042,-1.9281,-1.9281,-1.9503,-1.9943,-2.0947,-2.1182,-2.1234,-2.2212,-2.2512,-2.2512,-2.2512,-2.2512,-2.2457,-2.2293,-2.1924,-2.1605,-2.1607,-2.0753,-2.02,-2.108,-2.0275,-1.9343,-1.9216,-1.8892,-1.8115,-1.6485,-1.6568,-1.6692,-1.6151,-1.5711,-1.558,-1.602,-1.6064,-1.6064,-1.6064,-1.6064,-1.5857,-1.5342,-1.5418,-1.5492,-1.5492,-1.5638,-1.5505,-1.4994,-1.5124,-1.4933,-1.4341,-1.4037,-1.3816,-1.3651,-1.2805,-1.2437,-1.2512,-1.1947,-1.2173]},{"header":{"parameterUnit":"m.s-1","parameterCategory":1,"la1":30.6,"la2":29.2853,"lo1":-89.7004,"lo2":-87.6739,"dy":0.0162,"dx":0.0183,"nx":112,"ny":82,"refTime":"2023-05-07T12:00:00:Z","depth":0,"parameterNumber":3,"parameterNumberName":"V-component_of_WINDS"},"data":[0.0,0.0,0.0,0.0,0.0,0.0,0.0,0.0,0.0,0.0,0.0,0.0,0.0,0.0,0.0,0.0,0.0,0.0,0.0,0.0,0.0,0.0,0.0,0.0,0.0,0.0,0.0,0.0,0.0,0.0,0.0,0.0,0.0,0.0,0.0,0.0,0.0,0.0,0.0,0.0,0.0,0.0,0.0,0.0,0.0,0.0,0.0,0.0,0.0,0.0,0.0,0.0,0.0,0.0,0.0,0.0,0.0,0.0,0.0,0.0,0.0,0.0,0.0,0.0,0.0,0.0,0.0,0.0,0.0,0.0,0.0,0.0,0.0,0.0,0.0,0.0,0.0,0.0,0.0,0.0,0.0,0.0,0.0,0.0,0.0,0.0,0.0,0.0,0.0,0.0,-0.2815,-0.3973,-0.5422,-0.6238,-0.6003,-0.5871,-0.5697,-0.5461,0.0,0.0,0.0,0.0,0.0,0.0,0.0,0.0,0.0,0.0,0.0,0.0,0.0,0.0,0.0,0.0,0.0,0.0,0.0,0.0,0.0,0.0,0.0,0.0,0.0,0.0,0.0,0.0,0.0,0.0,0.0,0.0,0.0,0.0,0.0,0.0,0.0,0.0,0.0,0.0,0.0,0.0,0.0,0.0,0.0,0.0,0.0,0.0,0.0,0.0,0.0,0.0,0.0,0.0,0.0,0.0,0.0,0.0,0.0,0.0,0.0,0.0,0.0,0.0,0.0,0.0,0.0,0.0,0.0,0.0,0.0,0.0,0.0,0.0,0.0,0.0,0.0,0.0,0.0,0.0,0.0,0.0,0.0,0.0,0.0,0.0,0.0,0.0,0.0,0.0,0.0,0.0,0.0,0.0,0.0,0.0,0.0,0.0,0.0,0.0,0.0,0.0,0.0,0.0,-0.357,-0.4493,-0.5613,-0.6238,-0.6003,-0.5779,-0.5388,-0.4874,0.0,0.0,0.0,0.0,0.0,0.0,0.0,0.0,0.0,0.0,0.0,0.0,0.0,0.0,0.0,0.0,0.0,0.0,0.0,0.0,0.0,0.0,0.0,0.0,0.0,0.0,0.0,0.0,0.0,0.0,0.0,0.0,0.0,0.0,0.0,0.0,0.0,0.0,0.0,0.0,0.0,0.0,0.0,0.0,0.0,0.0,0.0,0.0,0.0,0.0,0.0,0.0,0.0,0.0,0.0,0.0,0.0,0.0,0.0,0.0,0.0,0.0,0.0,0.0,0.0,0.0,0.0,0.0,0.0,0.0,0.0,0.0,0.0,0.0,0.0,0.0,0.0,0.0,0.0,0.0,0.0,0.0,0.0,0.0,0.0,0.0,0.0,0.0,0.0,0.0,0.0,0.0,0.0,0.0,0.0,0.0,0.0,0.0,0.0,0.0,0.0,0.0,0.0,-0.3532,-0.414,-0.5177,-0.5816,-0.6074,-0.5918,-0.5559,-0.5155,-0.4718,-0.4512,0.0,0.0,0.0,0.0,0.0,0.0,0.0,0.0,0.0,0.0,0.0,0.0,0.0,0.0,0.0,0.0,0.0,0.0,0.0,0.0,0.0,0.0,0.0,0.0,0.0,0.0,0.0,0.0,0.0,0.0,0.0,0.0,0.0,0.0,0.0,0.0,0.0,0.0,0.0,0.0,0.0,0.0,0.0,0.0,0.0,0.0,0.0,0.0,0.0,0.0,0.0,0.0,0.0,0.0,0.0,0.0,0.0,0.0,0.0,0.0,0.0,0.0,0.0,0.0,0.0,0.0,0.0,0.0,0.0,0.0,0.0,0.0,0.0,0.0,0.0,0.0,0.0,0.0,0.0,0.0,0.0,0.0,0.0,0.0,0.0,0.0,0.0,0.0,0.0,0.0,0.0,0.0,0.0,0.0,0.0,0.0,0.0,0.0,0.0,0.0,0.0,0.0,-0.4024,-0.4483,-0.5699,-0.5928,-0.5915,-0.5766,-0.5336,-0.4958,-0.4685,-0.4138,0.0,0.0,0.0,0.0,0.0,0.0,0.0,0.0,0.0,0.0,0.0,0.0,0.0,0.0,0.0,0.0,0.0,0.0,0.0,0.0,0.0,0.0,0.0,0.0,0.0,0.0,0.0,0.0,0.0,0.0,0.0,0.0,0.0,0.0,0.0,0.0,0.0,0.0,0.0,0.0,0.0,0.0,0.0,0.0,0.0,0.0,0.0,0.0,0.0,0.0,0.0,0.0,0.0,0.0,0.0,0.0,0.0,0.0,0.0,0.0,0.0,0.0,0.0,0.0,0.0,0.0,0.0,0.0,0.0,0.0,0.0,0.0,0.0,0.0,0.0,0.0,0.0,0.0,0.0,0.0,0.0,0.0,0.0,0.0,0.0,0.0,0.0,0.0,0.0,0.0,0.0,0.0,0.0,0.0,0.0,0.0,0.0,0.0,0.0,0.0,0.0,0.0,-0.4356,-0.4512,-0.5852,-0.5895,-0.5759,-0.5616,-0.5311,-0.4945,-0.4535,-0.4178,0.0,0.0,0.0,0.0,0.0,0.0,0.0,0.0,0.0,0.0,0.0,0.0,0.0,0.0,0.0,0.0,0.0,0.0,0.0,0.0,0.0,0.0,0.0,0.0,0.0,0.0,0.0,0.0,0.0,0.0,0.0,0.0,0.0,0.0,0.0,0.0,0.0,0.0,0.0,0.0,0.0,0.0,0.0,0.0,0.0,0.0,0.0,0.0,0.0,0.0,0.0,0.0,0.0,0.0,0.0,0.0,0.0,0.0,0.0,0.0,0.0,0.0,0.0,0.0,0.0,0.0,0.0,0.0,0.0,0.0,0.0,0.0,0.0,0.0,0.0,0.0,0.0,0.0,0.0,0.0,0.0,0.0,0.0,0.0,0.0,0.0,0.0,0.0,0.0,0.0,0.0,0.0,0.0,0.0,0.0,0.0,0.0,0.0,0.0,0.0,0.0,0.0,-0.4243,-0.4368,-0.5602,-0.5705,-0.5569,-0.5325,-0.5086,-0.4736,-0.4222,0.0,0.0,0.0,0.0,0.0,0.0,0.0,0.0,0.0,0.0,0.0,0.0,0.0,0.0,0.0,0.0,0.0,0.0,0.0,0.0,0.0,0.0,0.0,0.0,0.0,0.0,0.0,0.0,0.0,0.0,0.0,0.0,0.0,0.0,0.0,0.0,0.0,0.0,0.0,0.0,0.0,0.0,0.0,0.0,0.0,0.0,0.0,0.0,0.0,0.0,0.0,0.0,0.0,0.0,0.0,0.0,0.0,0.0,0.0,0.0,0.0,0.0,0.0,0.0,0.0,0.0,0.0,0.0,0.0,0.0,0.0,0.0,0.0,0.0,0.0,0.0,0.0,0.0,0.0,0.0,0.0,0.0,0.0,0.0,0.0,0.0,0.0,0.0,0.0,0.0,0.0,0.0,0.0,0.0,0.0,0.0,0.0,0.0,0.0,0.0,0.0,0.0,-0.453,-0.4124,-0.4202,-0.54,-0.5433,-0.5291,-0.5049,-0.4813,-0.4483,-0.4024,0.0,0.0,0.0,0.0,0.0,0.0,0.0,0.0,0.0,0.0,0.0,0.0,0.0,0.0,0.0,0.0,0.0,0.0,0.0,0.0,0.0,0.0,0.0,0.0,0.0,0.0,0.0,0.0,0.0,0.0,0.0,0.0,0.0,0.0,0.0,0.0,0.0,0.0,0.0,0.0,0.0,0.0,0.0,0.0,0.0,0.0,0.0,0.0,0.0,0.0,0.0,0.0,0.0,0.0,0.0,0.0,0.0,0.0,0.0,0.0,0.0,0.0,0.0,0.0,0.0,0.0,0.0,0.0,0.0,0.0,0.0,0.0,0.0,0.0,0.0,0.0,0.0,0.0,0.0,0.0,0.0,0.0,0.0,0.0,0.0,0.0,0.0,0.0,0.0,0.0,0.0,0.0,0.0,0.0,0.0,0.0,0.0,0.0,0.0,0.0,0.0,0.0,-0.454,-0.4042,-0.4038,-0.5275,-0.5094,-0.4887,-0.4884,-0.4479,-0.413,0.0,0.0,0.0,0.0,0.0,0.0,0.0,0.0,0.0,0.0,0.0,0.0,0.0,0.0,0.0,0.0,0.0,0.0,0.0,0.0,0.0,0.0,0.0,0.0,0.0,0.0,0.0,0.0,0.0,0.0,0.0,0.0,0.0,0.0,0.0,0.0,0.0,0.0,0.0,0.0,0.0,0.0,0.0,0.0,0.0,0.0,0.0,0.0,0.0,0.0,0.0,0.0,0.0,0.0,0.0,0.0,0.0,0.0,0.0,0.0,0.0,0.0,0.0,0.0,0.0,0.0,0.0,0.0,0.0,0.0,0.0,0.0,0.0,0.0,0.0,0.0,0.0,0.0,0.0,0.0,0.0,0.0,0.0,0.0,0.0,0.0,0.0,0.0,0.0,0.0,0.0,0.0,0.0,0.0,0.0,0.0,0.0,0.0,0.0,0.0,0.0,0.0,0.0,-0.4156,-0.3447,-0.3406,-0.4899,-0.4969,-0.483,-0.4644,-0.4505,-0.4155,-0.3537,0.0,0.0,0.0,0.0,0.0,0.0,0.0,0.0,0.0,0.0,0.0,0.0,0.0,0.0,0.0,0.0,0.0,0.0,0.0,0.0,0.0,0.0,0.0,0.0,0.0,0.0,0.0,0.0,0.0,0.0,0.0,0.0,0.0,0.0,0.0,0.0,0.0,0.0,0.0,0.0,0.0,0.0,0.0,0.0,0.0,0.0,0.0,0.0,0.0,0.0,0.0,0.0,0.0,0.0,0.0,0.0,0.0,0.0,0.0,0.0,0.0,0.0,0.0,0.0,0.0,0.0,0.0,0.0,0.0,0.0,0.0,0.0,0.0,0.0,0.0,0.0,0.0,0.0,0.0,0.0,0.0,0.0,0.0,0.0,0.0,0.0,0.0,0.0,0.0,0.0,0.0,0.0,0.0,0.0,0.0,0.0,0.0,0.0,0.0,0.0,0.0,0.0,-0.3516,-0.2925,-0.2867,-0.4165,-0.4481,-0.4523,-0.4307,-0.4255,-0.3955,-0.3343,0.0,0.0,0.0,0.0,0.0,0.0,0.0,0.0,0.0,0.0,0.0,0.0,0.0,0.0,0.0,0.0,0.0,0.0,0.0,0.0,0.0,0.0,0.0,0.0,0.0,0.0,0.0,0.0,0.0,0.0,0.0,0.0,0.0,0.0,0.0,0.0,0.0,0.0,0.0,0.0,0.0,0.0,0.0,0.0,0.0,0.0,0.0,0.0,0.0,0.0,0.0,0.0,0.0,0.0,0.0,0.0,0.0,0.0,0.0,0.0,0.0,0.0,0.0,0.0,0.0,0.0,0.0,0.0,0.0,0.0,0.0,0.0,0.0,0.0,0.0,0.0,0.0,0.0,0.0,0.0,0.0,0.0,0.0,0.0,0.0,0.0,0.0,0.0,0.0,0.0,0.0,0.0,0.0,0.0,0.0,0.0,0.0,0.0,0.0,0.0,0.0,0.0,-0.276,-0.2474,-0.2498,-0.3274,-0.3854,-0.4139,-0.3987,-0.387,-0.3663,-0.3326,0.0,0.0,0.0,0.0,0.0,0.0,0.0,0.0,0.0,0.0,0.0,0.0,0.0,0.0,0.0,0.0,0.0,0.0,0.0,0.0,0.0,0.0,0.0,0.0,0.0,0.0,0.0,0.0,0.0,0.0,0.0,0.0,0.0,0.0,0.0,0.0,0.0,0.0,0.0,0.0,0.0,0.0,0.0,0.0,0.0,0.0,0.0,0.0,0.0,0.0,0.0,0.0,0.0,0.0,0.0,0.0,0.0,0.0,0.0,0.0,0.487,0.4999,0.0,0.0,0.0,0.0,0.0,0.0,0.0,0.0,0.0,0.0,0.0,0.0,0.0,0.0,0.0,0.0,0.0,0.0,0.0,0.0,0.0,0.0,0.0,0.0,0.0,0.0,0.0,0.0,0.0,0.0,0.0,0.0,0.0,0.0,0.0,0.0,0.0,0.0,0.0,0.0,-0.2635,-0.2336,-0.2336,-0.3084,-0.3691,-0.3981,-0.3853,-0.3812,-0.3663,-0.3326,-0.3165,0.0,0.0,0.0,0.0,0.0,0.0,0.0,0.0,0.0,0.0,0.0,0.0,0.0,0.0,0.0,0.0,0.0,0.0,0.0,0.0,0.0,0.0,0.0,0.0,0.0,0.0,0.0,0.0,0.0,0.0,0.0,0.0,0.0,0.0,0.0,0.0,0.0,0.0,0.0,0.0,0.0,0.0,0.0,0.0,0.0,0.0,0.0,0.0,0.0,0.0,0.0,0.0,0.0,0.0,0.0,0.0,0.0,0.0,0.0,0.4945,0.4931,0.0,0.0,0.0,0.0,0.0,0.0,0.0,0.0,0.0,0.0,0.0,0.0,0.0,0.0,0.0,0.0,0.0,0.0,0.0,0.0,0.0,0.0,0.0,0.0,0.0,0.0,0.0,0.0,0.0,0.0,0.0,0.0,0.0,0.0,0.0,0.0,0.0,0.0,0.0,0.0,-0.26,-0.2284,-0.2269,-0.2927,-0.355,-0.3849,-0.3723,-0.3713,-0.3592,-0.3323,-0.3236,0.0,0.0,0.0,0.0,0.0,0.0,0.0,0.0,0.0,0.0,0.0,0.0,0.0,0.0,0.0,0.0,0.0,0.0,0.0,0.0,0.0,0.0,0.0,0.0,0.0,0.0,0.0,0.0,0.0,0.0,0.0,0.0,0.0,0.0,0.0,0.0,0.0,0.0,0.0,0.0,0.0,0.0,0.0,0.0,0.0,0.0,0.0,0.0,0.0,0.0,0.0,0.0,0.0,0.7716,0.6933,0.5977,0.5829,0.5658,0.5494,0.5135,0.4965,0.4894,0.4958,0.0,0.0,0.0,0.0,0.0,0.0,0.0,0.0,0.0,0.0,0.0,0.0,0.0,0.0,0.0,0.0,0.0,0.0,0.0,0.0,0.0,0.0,0.0,0.0,0.0,-0.0272,-0.1273,0.0,0.0,0.0,0.0,0.0,0.0,0.0,0.0,0.0,0.0,0.0,-0.2431,-0.2195,-0.221,-0.2821,-0.3423,-0.373,-0.3614,-0.3576,-0.3487,-0.3316,-0.3283,-0.3212,0.0,0.0,0.0,0.0,0.0,0.0,0.0,0.0,0.0,0.0,0.0,0.0,0.0,0.0,0.0,0.0,0.0,0.0,0.0,0.0,0.0,0.0,0.0,0.0,0.0,0.0,0.0,0.0,0.0,0.0,0.0,0.0,1.3085,1.28,0.0,0.0,0.0,0.0,0.0,0.0,0.0,0.0,0.0,0.0,0.0,0.0,0.0,1.0533,1.0533,1.0471,1.0501,1.0536,0.9341,0.8622,0.8289,0.6937,0.6169,0.5918,0.5491,0.0,0.487,0.4682,0.0,0.0,0.0,0.0,0.0,0.0,0.0,0.0,0.0,0.0,0.0,0.0,0.0,0.0,0.0,0.0,0.0,0.0,0.0,0.0,0.0,0.0,0.0,0.0,0.0,-0.005,0.0,-0.0658,-0.1194,-0.1792,-0.1818,0.0,0.0,0.0,0.0,0.0,0.0,0.0,-0.1896,-0.1875,-0.2098,-0.2813,-0.3348,-0.3624,-0.3604,-0.3502,-0.3392,-0.3309,-0.3185,-0.3121,-0.3101,-0.2966,0.0,0.0,0.0,0.0,0.0,0.0,0.0,0.0,0.0,0.0,0.0,0.0,0.0,0.0,0.0,0.0,0.0,0.0,0.0,0.0,0.0,0.0,0.0,0.0,0.0,0.0,0.0,0.0,0.0,1.3198,1.2503,1.1887,1.0604,0.9506,0.0,0.0,0.0,0.0,0.0,0.0,0.0,0.0,0.0,1.0198,1.0742,1.1049,1.1049,1.1376,1.1274,1.0786,1.0276,0.9391,0.8202,0.7507,0.6809,0.6139,0.5769,0.544,0.5145,0.4843,0.4413,0.3883,0.0,0.0,0.0,0.0,0.1523,0.1232,0.1124,0.09,0.0544,0.0131,0.0,0.0,0.0,0.0,0.0,0.0,0.0,0.0,0.0,0.0,0.0,0.0,0.0,0.0,0.0,-0.0199,-0.0576,0.0,-0.1241,-0.1489,-0.2356,0.0,0.0,0.0,0.0,-0.1282,-0.1851,-0.1548,-0.1696,-0.2779,-0.3006,-0.3236,-0.3578,-0.3439,-0.333,-0.3306,-0.3165,-0.3101,-0.3101,-0.2966,-0.2996,0.0,0.0,0.0,0.0,0.0,0.0,0.0,0.0,0.0,0.0,0.0,0.0,0.0,0.0,0.0,0.0,0.0,0.0,0.0,0.0,0.0,0.0,0.0,0.0,0.0,0.0,0.0,0.0,1.261,1.1841,1.1225,1.0087,0.9131,0.0,0.0,0.0,0.0,0.0,0.0,0.9766,1.0074,1.0401,1.0801,1.1276,1.1577,1.1615,1.2084,1.1862,1.1033,1.0886,1.0034,0.8571,0.8313,0.7629,0.6665,0.6375,0.5955,0.5481,0.5074,0.4738,0.4419,0.3676,0.3265,0.3069,0.2692,0.24,0.217,0.1882,0.1648,0.133,0.0579,0.0178,0.0,0.0,0.0,0.0,0.0,0.0,0.0,0.0,0.0,0.0,0.0,0.0,0.0,0.0,0.0,-0.0122,0.0,-0.0682,-0.097,-0.1931,0.0,0.0,0.0,-0.1318,-0.0998,-0.1686,-0.1269,-0.135,-0.2545,-0.2557,-0.2653,-0.3122,-0.3072,-0.3032,-0.3072,-0.305,-0.3047,-0.3047,-0.2946,-0.2892,-0.2892,0.0,0.0,0.0,0.0,0.0,0.0,0.0,0.0,0.0,0.0,0.0,0.0,0.0,0.0,0.0,0.0,0.0,0.0,0.0,0.0,0.0,0.0,0.0,0.0,0.0,0.0,0.0,0.0,0.0,1.1798,1.0558,0.0,0.0,0.0,0.0,0.9144,0.9466,0.9773,1.0043,1.0374,1.0827,1.1329,1.1683,1.202,1.2251,1.2285,1.2261,1.2204,1.1236,1.0746,1.0634,0.9669,0.8694,0.7693,0.7492,0.6791,0.5735,0.5159,0.4738,0.4419,0.362,0.3213,0.3145,0.3428,0.2972,0.2338,0.3323,0.3121,0.2287,0.1503,0.0677,0.0,0.0,0.0,0.0,0.0,0.0,0.0,0.0,0.0,0.0,0.0,0.0,0.0,0.0,0.0,0.0,0.0,-0.0047,-0.0249,-0.0874,0.0,-0.0937,-0.0981,-0.0926,-0.0952,-0.1119,-0.1001,-0.1191,-0.1971,-0.1919,-0.1888,-0.1971,-0.2142,-0.232,-0.2431,-0.2736,-0.2902,-0.2902,-0.2913,-0.2892,-0.2892,-0.2791,0.0,0.0,0.0,0.0,0.0,0.0,0.0,0.0,0.0,0.0,0.0,0.0,0.0,0.0,0.0,0.0,0.0,0.0,0.0,0.0,0.0,0.0,0.0,0.0,0.0,0.0,0.0,0.0,1.2534,1.1224,0.0,0.9804,0.977,0.977,0.977,1.0254,1.0655,1.0909,1.1243,1.1583,1.1977,1.2091,1.2198,1.2305,1.2305,1.2305,1.2305,1.1922,1.1428,1.0783,1.0415,0.9362,0.777,0.758,0.6847,0.5779,0.5474,0.5169,0.4837,0.4391,0.4157,0.4147,0.4181,0.3957,0.3648,0.3428,0.3144,0.2683,0.1436,0.0582,0.0,0.0,0.0,0.0,0.0,0.0,0.0,0.0,0.0,0.0,0.0,0.0,0.0,0.0,0.0,0.0,0.0,0.0,-0.0187,-0.0792,-0.057,-0.0448,-0.0851,-0.058,-0.0331,-0.0392,-0.0344,-0.0567,-0.1233,-0.1247,-0.1381,-0.18,-0.183,-0.1832,-0.1886,-0.1881,-0.1862,-0.1862,-0.2158,-0.2316,-0.2316,-0.2572,-0.2779,0.0,0.0,0.0,0.0,0.0,0.0,0.0,0.0,0.0,0.0,0.0,0.0,0.0,0.0,0.0,0.0,0.0,0.0,0.0,0.0,0.0,0.0,0.0,0.0,0.0,1.3439,1.2972,1.2992,1.2208,1.1309,1.0492,1.0681,1.0815,1.0715,1.1162,1.1563,1.1857,1.2094,1.2288,1.2445,1.2489,1.2405,1.2305,1.2305,1.2305,1.2305,1.2305,1.1959,1.1316,1.1316,1.0372,0.8789,0.8314,0.7446,0.6331,0.586,0.5511,0.5257,0.4955,0.4779,0.4684,0.4662,0.458,0.4419,0.3779,0.3401,0.2994,0.1978,0.103,0.0314,0.0314,0.0159,0.0,0.0,0.0,0.0,0.0,0.0,0.0,0.0,0.0,0.0,0.0,0.0,0.0,0.0,0.0,-0.0117,-0.0537,-0.0274,-0.0135,-0.0538,-0.0253,0.0,0.0,0.0,-0.0152,-0.0548,-0.0596,-0.0763,-0.1199,-0.1401,-0.145,-0.1346,-0.1454,-0.1473,-0.1305,-0.1742,-0.1997,-0.1997,-0.2464,-0.2696,-0.2696,0.0,0.0,0.0,0.0,0.0,0.0,0.0,0.0,0.0,0.0,0.0,0.0,0.0,0.0,0.0,0.0,0.0,0.0,0.0,0.0,0.0,0.0,0.0,1.425,1.4497,1.4338,1.3255,1.3536,1.3083,1.1309,1.1866,1.2248,1.1966,1.2171,1.2458,1.2784,1.2797,1.2797,1.2797,1.279,1.2643,1.2318,1.2305,1.2305,1.2305,1.2305,1.2305,1.2305,1.2305,1.1731,1.0708,0.9744,0.8637,0.74,0.6292,0.575,0.5586,0.525,0.4952,0.4714,0.486,0.4718,0.4484,0.4484,0.3971,0.3279,0.312,0.2098,0.0918,0.0918,0.0507,0.0024,0.0024,0.0025,0.0,0.0,0.0,0.0,0.0,0.0,0.0,0.0,0.0,0.0,0.0,0.0,0.0,0.0,0.0,0.0,0.0,0.0,0.0,0.0,0.0,0.0,0.0,0.0,-0.0018,-0.0091,-0.0813,-0.1122,-0.0791,-0.151,-0.1742,-0.1271,-0.1709,-0.1981,-0.1997,-0.2447,-0.2679,-0.2696,0.0,0.0,0.0,0.0,0.0,0.0,0.0,0.0,0.0,0.0,0.0,0.0,0.0,0.0,0.0,0.0,0.0,0.0,0.0,0.0,0.0,1.5557,1.6514,1.6054,1.5765,1.5695,1.5997,1.5825,1.5146,1.3889,1.3951,1.3777,1.2923,1.2919,1.2999,1.308,1.308,1.308,1.308,1.2904,1.2744,1.2663,1.2412,1.2305,1.2305,1.2305,1.2305,1.2305,1.2305,1.136,0.9744,1.019,0.9106,0.7049,0.6956,0.661,0.6125,0.5396,0.4985,0.485,0.4779,0.4562,0.4281,0.4281,0.3721,0.2978,0.2851,0.2236,0.1541,0.1429,0.1059,0.0661,0.0661,0.0345,0.0,0.0,0.0,0.0,0.0,0.0,0.0,0.0,0.0,-0.0022,-0.0135,-0.0135,-0.0112,-0.0022,0.0,0.0,0.0,0.0,0.0,0.0,0.0,0.0,0.0,0.0,0.0,-0.0034,-0.0237,-0.0319,-0.0219,-0.047,-0.0536,-0.0369,-0.0856,-0.141,-0.1997,-0.2131,-0.2364,0.0,0.0,0.0,0.0,0.0,0.0,0.0,0.0,0.0,0.0,0.0,0.0,0.0,0.0,0.0,0.0,0.0,0.0,0.0,0.0,0.0,0.0,1.6855,1.8008,1.8291,1.7907,1.7619,1.7733,1.7312,1.6482,1.5224,1.4743,1.413,1.3266,1.3213,1.3267,1.3347,1.3353,1.334,1.3213,1.3033,1.2857,1.2596,1.2385,1.2305,1.2305,1.2305,1.2305,1.2305,1.2305,1.1626,1.0426,1.0233,0.9237,0.7659,0.729,0.6704,0.0,0.0,0.0,0.0,0.0,0.4419,0.4134,0.4068,0.3621,0.3075,0.2951,0.2504,0.1986,0.1919,0.152,0.1119,0.1119,0.0717,0.0269,0.0224,0.0067,-0.009,-0.009,-0.009,-0.009,-0.009,-0.0045,-0.0067,-0.0247,-0.0202,0.0,-0.009,-0.009,-0.0067,0.0,-0.0045,-0.0067,0.0,-0.0042,-0.0061,0.0,0.0,0.0,0.0,-0.0174,0.0,0.0,0.0,-0.0336,-0.0303,-0.0588,0.0,0.0,0.0,-0.2131,-0.2414,0.0,0.0,0.0,-0.3255,-0.3479,0.0,0.0,0.0,0.0,0.0,0.0,0.0,0.0,0.0,0.0,0.0,0.0,0.0,0.0,0.0,0.0,1.8242,1.9277,2.0469,2.0391,1.987,1.9005,1.8536,1.759,1.5947,1.5029,1.4192,1.3353,1.3307,1.342,1.364,1.362,0.0,0.0,0.0,1.2899,1.2358,1.2318,1.2305,1.2305,1.2268,1.2268,1.2268,1.2224,1.2077,1.1706,1.0205,0.9209,0.8658,0.7593,0.6545,0.562,0.5213,0.4988,0.4827,0.4597,0.4328,0.4095,0.391,0.0,0.0,0.3277,0.2859,0.239,0.239,0.1967,0.15,0.15,0.1164,0.076,0.0626,0.0247,-0.0112,-0.0112,-0.018,-0.0225,-0.0225,-0.0135,-0.0112,-0.036,-0.0225,-0.009,-0.0202,-0.0202,-0.0156,-0.0022,-0.0112,-0.0134,-0.0022,-0.0108,-0.0126,-0.0021,0.0,0.0,0.0,-0.0386,-0.0467,-0.0119,-0.0421,-0.0622,-0.0639,-0.0639,-0.0822,-0.1238,-0.1659,-0.1914,-0.2014,-0.243,-0.2656,-0.2723,-0.2706,-0.2902,0.0,0.0,0.0,0.0,0.0,0.0,0.0,0.0,0.0,0.0,0.0,0.0,0.0,0.0,0.0,1.7725,1.918,2.041,2.0976,2.1631,2.1802,2.1289,2.1139,2.0149,1.7755,1.7364,1.632,1.4108,1.3921,1.3941,1.4001,1.3733,1.358,1.352,1.3093,1.2817,1.2697,1.2455,1.2305,1.2305,0.0,0.0,1.204,1.1892,1.1335,1.0539,1.0809,0.9882,0.826,0.8624,0.7625,0.5871,0.5194,0.4807,0.4562,0.4528,0.4364,0.4176,0.4147,0.3867,0.3532,0.3406,0.3204,0.3015,0.2901,0.2524,0.0,0.2123,0.17,0.1254,0.1231,0.0806,0.0358,0.0358,0.0,-0.036,-0.036,-0.0337,-0.0337,-0.0382,-0.0405,-0.0405,-0.036,-0.0218,-0.0086,-0.0022,-0.0065,-0.0086,0.0,-0.0022,-0.0021,0.0,0.0,0.0,0.0,-0.0077,-0.0095,-0.0018,-0.0086,-0.0168,-0.0219,-0.0219,-0.0436,-0.089,-0.1041,-0.1427,-0.2083,-0.2167,-0.2438,-0.2862,-0.2757,-0.2795,0.0,0.0,0.0,0.0,0.0,0.0,0.0,0.0,0.0,0.0,0.0,1.5303,1.5997,0.0,1.8291,1.915,2.0381,2.1377,2.1765,2.2379,2.2676,2.2246,2.1663,2.0716,1.9241,1.7851,1.6434,1.4999,1.4412,1.4021,1.3874,1.3686,1.3467,1.3206,1.2945,1.2672,1.2412,1.2223,1.2114,1.2003,1.1892,1.1855,1.1855,1.1744,1.1372,1.0807,1.0751,0.9969,0.8654,0.8063,0.7283,0.6389,0.5308,0.466,0.4342,0.4268,0.4091,0.3899,0.3899,0.369,0.3387,0.3251,0.3147,0.3081,0.2971,0.2796,0.2595,0.2595,0.219,0.1744,0.17,0.1297,0.0895,0.0895,0.0672,0.0359,0.0067,0.009,0.0022,-0.0449,-0.045,-0.0382,-0.045,-0.0369,-0.0257,-0.0112,-0.0177,-0.0197,-0.0022,-0.0066,-0.0065,0.0,0.0,-0.0021,-0.0102,-0.0136,-0.0112,0.0,-0.0035,-0.0051,-0.0052,-0.0085,-0.0204,-0.0438,-0.0751,-0.1092,-0.1496,-0.1897,-0.2231,-0.25,-0.2633,-0.2801,0.0,0.0,0.0,0.0,0.0,0.0,0.0,1.4142,1.455,1.5478,1.6242,1.6966,1.7725,1.8711,1.9717,2.0703,2.1416,2.206,2.2568,2.2808,2.2847,2.2549,2.1659,2.082,2.0241,1.7942,1.627,1.5875,1.4684,1.3909,1.377,1.3534,1.3247,1.2766,1.2692,1.2432,1.1935,1.1929,1.1855,1.1706,1.1669,1.1632,1.1626,1.1538,1.1409,1.1212,1.0284,0.9644,0.9139,0.7382,0.6777,0.6829,0.5654,0.4812,0.4228,0.4089,0.3875,0.3652,0.3652,0.3461,0.3215,0.3123,0.304,0.2984,0.2933,0.2909,0.289,0.289,0.2595,0.2235,0.2188,0.1811,0.1432,0.1432,0.1343,0.1119,0.0649,0.0582,0.0381,-0.0337,-0.0382,-0.0337,-0.0472,-0.0502,-0.0432,-0.0223,-0.0313,-0.0289,-0.0022,-0.0112,-0.0157,-0.0022,-0.0022,-0.0066,-0.015,-0.0217,-0.0169,-0.0019,-0.0054,-0.0053,0.0,-0.007,-0.0104,-0.0144,-0.0567,-0.0841,-0.0942,-0.1596,-0.1993,-0.2166,-0.2504,-0.2799,1.7474,1.6855,1.6388,1.6102,1.5739,1.5894,0.0,1.7484,1.7386,1.8552,1.8857,1.9072,1.9551,1.9746,2.0254,2.1533,2.1826,2.2168,2.2916,2.274,2.2568,2.2519,2.2372,2.1764,2.0325,1.8759,1.7392,1.6389,1.4679,1.3831,1.4212,1.3368,1.2787,1.2542,1.2236,1.1961,1.1744,1.1744,1.1706,1.1706,1.1521,1.1446,1.1403,1.1016,1.0803,1.0689,0.9299,0.8856,0.9048,0.7973,0.728,0.6782,0.6377,0.5497,0.4445,0.4238,0.4015,0.3776,0.3776,0.3614,0.3379,0.3365,0.3193,0.3,0.2984,0.2952,0.289,0.289,0.2868,0.2798,0.2798,0.237,0.1921,0.1921,0.152,0.1097,0.103,0.0626,0.0268,0.0268,-0.0224,-0.0607,-0.0517,-0.0493,-0.0425,-0.0225,-0.0261,-0.0237,-0.0022,-0.0112,-0.0157,-0.0022,-0.0112,-0.0135,-0.0022,-0.0021,-0.0021,0.0,0.0,0.0,0.0,-0.0072,-0.016,-0.0272,-0.0388,-0.0655,-0.1076,-0.116,-0.1619,-0.2374,-0.2481,-0.2663,1.8251,1.7346,1.6577,1.6577,1.6787,1.7189,1.8061,1.8207,1.8368,1.9154,1.9482,1.9707,1.9883,2.0537,2.1162,2.1455,2.1924,2.2285,2.2393,2.2256,2.2051,2.1797,2.1726,2.1484,2.0822,1.9444,1.8132,1.7015,1.5484,1.4332,1.3673,1.3099,1.2672,1.2393,1.2149,1.1892,1.1706,1.1595,1.1484,1.1335,1.126,1.1223,1.1217,1.1034,1.0864,1.0647,0.9699,0.9324,0.9255,0.8307,0.7781,0.7451,0.6454,0.5695,0.5104,0.4266,0.391,0.3796,0.3716,0.3602,0.3496,0.3422,0.3335,0.3201,0.3043,0.2991,0.2957,0.2909,0.289,0.289,0.289,0.2709,0.2526,0.2526,0.2326,0.2059,0.1698,0.1451,0.1095,0.0425,0.009,-0.0179,-0.0562,-0.0607,-0.0544,-0.0348,-0.0337,-0.0289,-0.0139,-0.0228,-0.027,-0.0135,-0.0157,-0.0135,-0.0022,-0.0151,-0.0168,0.0,-0.0081,-0.0079,0.0,-0.0058,-0.017,-0.0295,-0.0358,-0.0521,-0.0756,-0.0992,-0.1434,-0.2051,-0.2321,-0.2692,1.777,1.7311,1.7028,1.6911,1.7734,1.8564,1.8691,1.8955,1.9287,1.9736,1.9971,2.0127,2.0254,2.0957,2.1494,2.1426,2.1795,2.21,2.1914,2.167,2.1357,2.0878,2.0625,2.0479,2.0479,1.9478,1.8504,1.772,1.6087,1.4712,1.379,1.3135,1.2612,1.2238,1.2077,1.1892,1.1632,1.1484,1.1298,1.1111,1.1111,1.1111,1.1105,1.096,1.0719,1.0442,0.9913,0.9576,0.9314,0.8578,0.8165,0.7869,0.6729,0.6028,0.5547,0.452,0.4042,0.3827,0.3691,0.3663,0.3616,0.3468,0.3379,0.3314,0.3061,0.2978,0.2956,0.2915,0.289,0.2898,0.2931,0.2915,0.2906,0.2972,0.2939,0.2787,0.2359,0.2162,0.1808,0.0871,0.0649,0.0382,-0.0273,-0.0407,-0.0389,-0.0409,-0.0418,-0.0365,-0.0214,-0.0323,-0.036,-0.027,-0.0247,-0.0202,-0.0067,-0.0262,-0.0322,-0.0129,-0.0166,-0.0165,-0.0063,-0.0081,-0.0156,-0.0289,-0.0366,-0.0437,-0.0504,-0.0824,-0.121,-0.1619,-0.2141,-0.2682,1.537,1.6418,1.7871,1.7471,1.8623,1.9971,2.0429,2.0537,2.0635,2.1044,2.084,2.0713,2.1073,2.0869,2.0918,2.1728,2.1533,2.1375,2.1826,2.1182,2.0488,2.001,1.9182,1.8685,1.8685,1.8462,1.8417,1.8638,1.6155,1.4758,1.5107,1.3651,1.2574,1.2016,1.2003,1.1818,1.1409,1.1409,1.1298,1.1111,1.1111,1.1111,1.1093,1.0551,1.0178,0.9901,0.9354,0.9119,0.9089,0.8801,0.8304,0.769,0.7508,0.6701,0.5567,0.5203,0.4618,0.3965,0.3852,0.3796,0.3748,0.3492,0.3322,0.3177,0.3037,0.2943,0.2895,0.289,0.289,0.2917,0.2988,0.2955,0.2948,0.3153,0.3034,0.2923,0.297,0.2463,0.1986,0.1941,0.1475,0.0929,0.0448,0.0367,0.0184,-0.0323,-0.0449,-0.0434,-0.0214,-0.0323,-0.0405,-0.0405,-0.0405,-0.0337,-0.0202,-0.0314,-0.0404,-0.0381,-0.0269,-0.0198,-0.019,-0.0141,-0.0154,-0.0292,-0.0364,-0.0438,-0.0504,-0.0639,-0.0848,-0.1149,-0.1942,-0.2557,1.7627,1.8301,1.9033,1.9756,2.0371,2.0791,2.0977,2.1016,2.0889,2.0449,2.0234,2.0,1.9553,1.9853,2.0137,2.0156,2.0518,2.084,2.1026,2.0791,2.0233,1.9143,1.9062,1.8623,1.7447,1.7722,1.7985,1.8017,1.6506,1.5519,1.5274,1.3992,1.3175,1.2989,1.2335,1.1929,1.1781,1.1346,1.1106,1.1034,1.0713,1.0647,1.0834,1.0274,1.0081,1.0136,0.9606,0.9269,0.9089,0.9005,0.8741,0.8316,0.7816,0.7315,0.6739,0.579,0.5186,0.4759,0.4156,0.3878,0.377,0.3599,0.3451,0.3313,0.3172,0.3056,0.2964,0.2964,0.293,0.2917,0.2994,0.2957,0.295,0.3161,0.3039,0.2923,0.2976,0.2827,0.2539,0.2141,0.1974,0.1727,0.1157,0.1074,0.083,0.0176,-0.0266,-0.0513,-0.0529,-0.0499,-0.0472,-0.0472,-0.0427,-0.0382,-0.0337,-0.0405,-0.045,-0.0405,-0.0405,-0.038,-0.033,-0.0304,-0.0337,-0.0422,-0.0455,-0.0502,-0.056,-0.0613,-0.0893,-0.1378,-0.1546,-0.2189,1.876,1.9394,1.999,2.0947,2.1424,2.1609,2.1504,2.1307,2.0986,2.0303,1.9658,1.9075,1.8676,1.8676,1.8887,1.9238,1.9619,2.0039,2.0537,2.0468,1.9971,1.8984,1.8848,1.834,1.708,1.7048,1.7263,1.7659,1.6767,1.6077,1.5773,1.4728,1.3945,1.3499,1.2767,1.221,1.1853,1.1316,1.097,1.0864,1.0481,1.0382,1.0533,1.01,0.9997,1.0124,0.9594,0.9318,0.9233,0.9041,0.886,0.8639,0.8108,0.7692,0.725,0.644,0.5911,0.5469,0.4436,0.3989,0.3836,0.3611,0.3465,0.3365,0.3197,0.3059,0.3002,0.3002,0.296,0.2928,0.3042,0.2996,0.3004,0.3284,0.3167,0.3025,0.3123,0.3115,0.2962,0.2571,0.2574,0.2451,0.1893,0.1572,0.1231,0.0755,0.0146,-0.0402,-0.0691,-0.0667,-0.0571,-0.0518,-0.0494,-0.0494,-0.045,-0.0517,-0.0562,-0.0517,-0.0494,-0.0472,-0.0427,-0.0414,-0.0424,-0.0473,-0.0497,-0.0519,-0.0559,-0.0613,-0.0826,-0.1176,-0.1351,-0.1921,1.8744,1.9717,2.0771,2.1181,2.1882,2.2402,2.1982,2.1533,2.1055,2.0576,1.9121,1.8066,1.8315,1.7457,1.7233,1.8896,1.8877,1.9121,2.0419,2.0215,1.9775,1.9307,1.8535,1.7861,1.7393,1.6415,1.6328,1.7586,1.6886,1.6465,1.656,1.5813,1.4788,1.3599,1.3232,1.2614,1.1666,1.1272,1.0917,1.0566,1.036,1.0297,1.0303,1.0003,0.9895,0.9877,0.9348,0.9263,0.9456,0.8939,0.871,0.8662,0.8387,0.782,0.7139,0.7112,0.6729,0.6073,0.4767,0.4203,0.4023,0.3585,0.3465,0.3439,0.3151,0.3047,0.3047,0.3023,0.2966,0.2953,0.3159,0.3112,0.3121,0.3498,0.3398,0.3226,0.3373,0.3311,0.3201,0.3201,0.3207,0.3069,0.2625,0.1941,0.1466,0.1466,0.0712,-0.0072,-0.0671,-0.0767,-0.0732,-0.0543,-0.0631,-0.0654,-0.0517,-0.0629,-0.0697,-0.0697,-0.0583,-0.0515,-0.0515,-0.0454,-0.0412,-0.0412,-0.0465,-0.0509,-0.0509,-0.0627,-0.0661,-0.0628,-0.1316,-0.1709,2.0703,2.1533,2.2119,2.2506,2.2545,2.2402,2.1982,2.1289,2.038,1.8945,1.8066,1.708,1.5527,1.6044,1.6843,1.7282,1.8359,1.9463,2.0468,2.0507,2.0,1.889,1.8578,1.8022,1.697,1.6365,1.6412,1.7405,1.6717,1.6281,1.6285,1.6138,1.5513,1.4362,1.4092,1.3401,1.2218,1.1276,1.0566,1.0165,1.0009,1.0048,1.0199,0.9798,0.9721,0.9883,0.9552,0.933,0.9191,0.9053,0.877,0.8381,0.8315,0.8047,0.7655,0.7246,0.6999,0.6756,0.5964,0.547,0.5085,0.4427,0.4448,0.4616,0.401,0.3812,0.3718,0.3278,0.307,0.3013,0.3156,0.3172,0.322,0.352,0.3398,0.3226,0.3373,0.3376,0.3354,0.3354,0.3428,0.3474,0.3339,0.2711,0.223,0.223,0.1431,0.0633,0.01,-0.0472,-0.0785,-0.073,-0.0753,-0.0744,-0.0654,-0.0674,-0.0697,-0.0697,-0.0676,-0.0643,-0.0643,-0.0588,-0.055,-0.055,-0.0575,-0.0567,-0.0567,-0.0605,-0.0671,-0.0747,-0.0896,-0.1277,2.1846,2.2471,2.2799,2.3033,2.2779,2.2295,2.1494,2.0488,1.9238,1.751,1.6367,1.5312,1.4065,1.463,1.5537,1.6318,1.7725,1.9092,2.0137,2.0283,2.001,1.9241,1.8831,1.8247,1.735,1.6894,1.6799,1.708,1.6664,1.6478,1.6586,1.6635,1.6044,1.4739,1.4428,1.3556,1.2022,1.1607,1.0958,1.0149,1.0256,1.0219,1.0021,0.9744,0.9659,0.9721,0.0,0.9239,0.9083,0.8848,0.8584,0.8279,0.8165,0.7982,0.7733,0.7528,0.7393,0.7261,0.6773,0.6545,0.6321,0.5375,0.5081,0.4999,0.4674,0.4485,0.4259,0.3735,0.3384,0.3199,0.3267,0.3297,0.3346,0.3539,0.3479,0.3398,0.3466,0.3482,0.3482,0.3482,0.3536,0.3613,0.3613,0.3204,0.2911,0.2982,0.2208,0.1545,0.1296,0.026,-0.0531,-0.0768,-0.0812,-0.0776,-0.0699,-0.0697,-0.0697,-0.0697,-0.0703,-0.0709,-0.0696,-0.0645,-0.0603,-0.0609,-0.0576,-0.0552,-0.0552,-0.0583,-0.0635,-0.0708,-0.0701,-0.0979,2.2559,2.2867,2.311,2.3169,2.2822,2.21,2.0889,1.9482,1.7944,1.6281,1.458,1.3389,1.3271,1.3389,1.4043,1.5733,1.707,1.8389,1.9727,1.9863,1.9824,1.9824,1.9085,1.8432,1.8047,1.7627,1.7246,1.6892,1.6765,1.677,1.6908,1.6975,1.6347,1.4921,1.4432,1.3424,1.1794,1.2058,1.16,1.046,1.0748,1.0534,0.9862,0.9836,0.9708,0.9536,0.9257,0.9113,0.9011,0.8554,0.8297,0.8213,0.7991,0.7784,0.7654,0.7838,0.7778,0.7609,0.7308,0.7346,0.7357,0.6272,0.5617,0.5268,0.5354,0.5174,0.4868,0.4421,0.4001,0.3673,0.358,0.357,0.3583,0.3586,0.3613,0.3613,0.3613,0.3624,0.3635,0.3635,0.3635,0.3635,0.3635,0.3507,0.346,0.3569,0.2948,0.246,0.2502,0.1117,-0.0052,-0.0586,-0.0676,-0.0687,-0.0705,-0.0699,-0.0697,-0.0697,-0.0693,-0.0701,-0.0696,-0.0641,-0.0591,-0.0602,-0.0536,-0.0506,-0.051,-0.0575,-0.0605,-0.0615,-0.0666,-0.0781,2.3359,2.3359,2.3179,2.3584,2.2832,2.1738,2.082,1.9069,1.7109,1.539,1.3962,1.2788,1.2054,1.2783,1.3955,1.5303,1.6631,1.8057,1.9687,1.9619,1.9394,1.9394,1.8909,1.8432,1.8047,1.7627,1.75,1.7764,1.7096,1.6507,1.6061,1.6388,1.6189,1.5318,1.4232,1.348,1.3177,1.2158,1.1514,1.1264,1.0706,1.0364,1.0212,0.9926,0.9772,0.9734,0.9532,0.0,0.877,0.868,0.8357,0.7961,0.7919,0.7871,0.7862,0.7883,0.7871,0.7835,0.7777,0.7519,0.7121,0.6691,0.6806,0.7036,0.6444,0.6306,0.6202,0.5543,0.5282,0.5075,0.448,0.4401,0.4316,0.3744,0.3613,0.3613,0.3613,0.3687,0.3753,0.3753,0.3753,0.3753,0.3753,0.3657,0.3561,0.361,0.337,0.3028,0.2565,0.1556,0.071,0.0157,0.0,-0.0246,-0.0736,-0.0733,-0.0697,-0.0697,-0.0696,-0.0701,-0.0695,-0.064,-0.0607,-0.0602,-0.0536,-0.0533,-0.0575,-0.0587,-0.0636,-0.0688,-0.0697,-0.0781,2.3281,2.3257,2.314,2.3398,2.249,2.1201,1.9863,1.8137,1.6158,1.391,1.2811,1.2001,1.1099,1.2171,1.3379,1.3994,1.5586,1.7093,1.8081,1.8281,1.8379,1.8594,1.8437,1.8198,1.8027,1.7832,1.7705,1.7686,1.6993,1.6483,1.6177,1.5783,1.5402,1.5044,1.4379,1.3851,1.3511,1.3208,1.2536,1.1483,1.1818,1.1382,1.0308,1.0491,1.0301,0.9804,0.9708,0.9375,0.8909,0.8909,0.868,0.8291,0.8159,0.7988,0.7783,0.7783,0.7653,0.7506,0.7715,0.7622,0.7412,0.7351,0.7338,0.7312,0.7136,0.7005,0.6828,0.6401,0.6163,0.5941,0.5673,0.5301,0.4907,0.4487,0.4039,0.3701,0.3701,0.3794,0.3827,0.3794,0.3812,0.3764,0.3704,0.3649,0.3613,0.3613,0.3555,0.3413,0.3102,0.2627,0.1931,0.0987,0.0811,0.0608,0.0216,0.0,-0.0184,-0.0337,-0.0573,-0.069,-0.0696,-0.0666,-0.0635,-0.0602,-0.0566,-0.0567,-0.0602,-0.063,-0.066,-0.0696,-0.0705,-0.0742,2.3091,2.3169,2.3091,2.3091,2.2136,2.0752,1.9049,1.7322,1.5403,1.304,1.212,1.153,1.0861,1.1794,1.2815,1.3304,1.4683,1.5958,1.6768,1.7086,1.7441,1.7949,1.7852,1.7803,1.7988,1.793,1.7734,1.7402,1.6757,1.6292,1.6174,1.5251,1.4715,1.4715,1.4556,1.4258,1.3731,1.41,1.3489,1.1942,1.2856,1.2397,1.0793,1.1296,1.0982,1.0117,1.0053,0.9693,0.9156,0.9126,0.8945,0.868,0.8365,0.8055,0.7778,0.7693,0.7468,0.7278,0.76,0.7723,0.7744,0.7803,0.7581,0.732,0.7592,0.7492,0.7246,0.716,0.6939,0.6719,0.6677,0.616,0.5604,0.5383,0.4702,0.408,0.4107,0.4038,0.3969,0.3846,0.3821,0.3786,0.3668,0.3627,0.3613,0.3613,0.3613,0.3613,0.3613,0.3499,0.3046,0.1992,0.1706,0.1479,0.1201,0.0822,0.0522,0.0322,-0.0114,-0.0336,-0.0325,-0.0489,-0.055,-0.0471,-0.0562,-0.06,-0.0621,-0.0671,-0.0699,-0.0706,-0.0708,-0.0697,2.3506,2.3437,2.3091,2.3091,2.2136,2.0781,1.9225,1.7174,1.5216,1.4001,1.2698,1.189,1.2152,1.1986,1.2499,1.4653,1.4584,1.5031,1.7216,1.7085,1.7058,1.791,1.7291,1.7126,1.793,1.7666,1.7422,1.7393,1.6454,1.5634,1.5172,1.4851,1.4715,1.4715,1.4556,1.4476,1.4417,1.3881,1.3511,1.3321,1.2818,1.2481,1.2297,1.2235,1.1818,1.1146,1.085,1.0205,0.0,0.9187,0.8945,0.8651,0.8285,0.8089,0.8008,0.766,0.7578,0.7641,0.7691,0.7783,0.7859,0.7691,0.7724,0.7842,0.7871,0.7857,0.7821,0.7821,0.7779,0.7614,0.7025,0.6819,0.6636,0.6214,0.5514,0.4984,0.5056,0.4696,0.4259,0.3941,0.3887,0.3879,0.3788,0.3679,0.3613,0.3613,0.3613,0.3613,0.3613,0.3583,0.3524,0.34,0.2682,0.1987,0.142,0.1325,0.1298,0.1268,0.094,0.0803,0.0918,0.0241,-0.0126,-0.0062,-0.0421,-0.0621,-0.0687,-0.0692,-0.071,-0.0693,-0.0695,-0.0697,2.2793,2.3086,2.3033,2.2779,2.2177,2.1069,1.9003,1.7394,1.5808,1.386,1.2807,1.2178,1.2058,1.2089,1.2527,1.3794,1.3994,1.4286,1.5201,1.5574,1.5825,1.6056,1.6221,1.6572,1.7145,1.7058,1.6821,1.6464,1.5731,1.524,1.5009,1.4804,1.4656,1.4586,1.4536,1.4515,1.4515,1.4228,1.3881,1.3511,1.3887,1.365,1.2869,1.3206,1.2963,1.2206,1.1437,1.0812,0.0,0.9744,0.9444,0.9303,0.861,0.8428,0.8492,0.7677,0.7509,0.7665,0.7518,0.7547,0.7637,0.7559,0.7647,0.778,0.773,0.7796,0.7931,0.8093,0.8135,0.8116,0.8005,0.7676,0.7203,0.6501,0.618,0.603,0.5902,0.5876,0.5708,0.4986,0.4989,0.4975,0.4529,0.4191,0.3962,0.3962,0.3691,0.3471,0.3471,0.3471,0.3471,0.3471,0.3234,0.2884,0.2397,0.217,0.1936,0.1607,0.1292,0.1117,0.1047,0.0767,0.0583,0.0483,0.0085,-0.0191,-0.0337,-0.0584,-0.0708,-0.0697,-0.0697,-0.0697,2.1894,2.2399,2.2709,2.2593,2.2116,2.1193,1.9233,1.7947,1.6524,1.4381,1.3559,1.3071,1.2576,1.259,1.2837,1.337,1.3567,1.3718,1.3964,1.4486,1.484,1.48,1.5351,1.5938,1.6484,1.6502,1.6344,1.5911,1.5407,1.5088,1.5068,1.4902,1.4725,1.4556,1.4506,1.4515,1.4515,1.4515,1.4258,1.3791,1.4568,1.448,1.3688,1.4049,1.3831,1.3164,1.2281,1.1538,0.0,1.0383,1.0047,0.9786,0.9035,0.8854,0.8865,0.7886,0.7611,0.7723,0.7449,0.7419,0.7482,0.7456,0.7532,0.7623,0.7501,0.7607,0.783,0.8062,0.8143,0.8231,0.8466,0.816,0.7682,0.7183,0.7048,0.6973,0.6733,0.6849,0.6738,0.5897,0.5943,0.5921,0.5249,0.4853,0.4532,0.4187,0.3827,0.3524,0.333,0.3357,0.3413,0.3413,0.3471,0.343,0.3208,0.2949,0.2663,0.228,0.1927,0.1679,0.1572,0.1327,0.114,0.105,0.0583,0.0305,0.0193,-0.0265,-0.0426,-0.0292,-0.0426,-0.0494,2.0966,2.1562,2.2024,2.2563,2.1973,2.0984,2.0166,1.8787,1.731,1.5943,1.5241,1.4708,1.4173,1.3637,1.3481,1.3994,1.3482,1.3364,1.4336,1.4323,1.4353,1.4733,1.4823,1.5165,1.6016,1.6105,1.6095,1.6095,1.5654,1.5332,1.5215,1.5059,1.4911,1.4715,1.4556,1.4515,1.4515,1.4515,1.4515,1.4476,1.4485,1.4726,1.5053,1.4668,1.4253,1.3876,1.3459,1.2405,0.0,1.0993,1.0591,0.9958,0.9544,0.9315,0.9102,0.8282,0.7948,0.7857,0.7579,0.7494,0.7481,0.7352,0.7393,0.7448,0.7198,0.7295,0.7521,0.7676,0.7815,0.794,0.807,0.8106,0.8178,0.8495,0.8176,0.7737,0.7602,0.7391,0.7031,0.6419,0.6498,0.6472,0.5798,0.5678,0.5307,0.4178,0.3993,0.3771,0.3186,0.3272,0.3413,0.3413,0.3413,0.3441,0.358,0.358,0.358,0.3577,0.3089,0.2808,0.2865,0.1923,0.1448,0.1596,0.1007,0.075,0.0895,0.0291,0.0224,0.0671,0.0201,0.0,1.9939,2.0498,2.0761,2.0825,2.1128,2.0869,1.8765,1.8452,1.8031,1.6103,1.5273,1.4846,1.4676,1.4206,1.4262,1.5535,1.5237,1.4962,1.535,1.5939,1.6054,1.5358,1.5698,1.6087,1.6335,1.5909,1.5615,1.5615,1.5293,1.5117,1.5068,1.4803,1.4675,1.4715,1.4556,1.4515,1.4515,1.4515,1.4515,1.4485,1.4781,1.4983,1.5084,1.4689,1.4566,1.4675,1.3528,1.2914,1.2673,1.2112,1.1361,1.0529,1.0307,0.9793,0.9101,0.834,0.8062,0.7958,0.741,0.7279,0.7348,0.7211,0.7266,0.7348,0.7249,0.7431,0.7649,0.7696,0.794,0.8128,0.7987,0.83,0.8662,0.8795,0.8615,0.846,0.8603,0.8479,0.8218,0.7749,0.7882,0.789,0.7294,0.6939,0.6529,0.5939,0.5308,0.4634,0.3892,0.3708,0.3549,0.3216,0.333,0.341,0.3466,0.3339,0.3242,0.3199,0.3028,0.2869,0.2704,0.2569,0.2335,0.2025,0.1782,0.152,0.1232,0.0738,0.0492,0.0492,0.038,0.0179,1.8959,1.9541,1.9909,2.0509,2.0971,2.0753,1.8818,1.8707,1.8431,1.6421,1.5588,1.5135,1.4934,1.4462,1.4362,1.5121,1.497,1.4839,1.5082,1.5833,1.628,1.609,1.6446,1.6757,1.6912,1.6255,1.5816,1.5816,1.5391,1.5147,1.5098,1.4832,1.4704,1.4715,1.4556,1.4515,1.4515,1.4515,1.4515,1.4485,1.4763,1.4955,1.5084,1.4689,1.4696,1.4972,1.396,1.3424,0.0,1.2917,1.2094,1.1056,1.1025,1.0509,0.9677,0.9057,0.8692,0.8426,0.7811,0.7494,0.7365,0.7225,0.723,0.7317,0.7365,0.7521,0.7696,0.7643,0.7917,0.8202,0.8069,0.8432,0.8823,0.8922,0.8945,0.8953,0.9002,0.9092,0.9024,0.8662,0.8832,0.8844,0.8281,0.796,0.7561,0.6922,0.6094,0.5279,0.4555,0.4238,0.3962,0.3658,0.3577,0.3602,0.3687,0.3339,0.3106,0.3153,0.3042,0.2853,0.2621,0.2714,0.2595,0.2236,0.2176,0.2012,0.1744,0.1411,0.1074,0.0738,0.0783,0.0627,0.0,1.8763,1.9458,2.1039,2.1097,2.0555,1.9754,1.9233,0.0,1.6789,1.6057,1.5563,1.5047,1.4488,1.3959,1.3516,1.3398,1.3574,1.4102,1.4672,1.5586,1.7034,1.7145,1.7273,1.7643,1.7006,1.6578,1.6492,1.5864,1.5391,1.5215,1.5068,1.4872,1.4715,1.4556,1.4515,1.4515,1.4515,1.4515,1.4515,1.4515,1.4708,1.5047,1.4643,1.462,0.0,1.4544,1.3923,0.0,1.342,1.2764,1.156,1.1707,1.1316,1.0605,1.017,0.9672,0.9166,0.8644,0.8049,0.7515,0.7338,0.7311,0.7338,0.7467,0.7568,0.7676,0.7538,0.7815,0.8131,0.8275,0.8461,0.87,0.8928,0.9134,0.9186,0.8968,0.9166,0.935,0.9142,0.9304,0.9311,0.8819,0.8742,0.8379,0.7255,0.6519,0.5868,0.5266,0.4847,0.4584,0.4546,0.4128,0.3959,0.4233,0.3516,0.316,0.3357,0.3081,0.2788,0.2592,0.249,0.2397,0.2298,0.2238,0.224,0.2304,0.2241,0.1906,0.1321,0.1321,0.1232,1.8244,0.0,1.8765,1.897,1.924,1.9068,0.0,1.7842,1.7915,1.6233,1.5781,1.5655,1.555,1.4739,1.4462,1.5547,1.5372,1.5294,1.5844,1.6774,1.782,1.9001,1.8641,1.8345,1.8436,1.7759,1.7118,1.6539,1.6226,1.5835,1.5244,1.4931,1.4745,1.4715,1.4556,1.4515,1.4515,1.4515,1.4515,1.4515,1.4515,1.4561,1.4634,1.4222,1.4229,1.4565,1.4057,0.0,1.3989,1.392,1.3096,1.1935,1.2265,1.1472,1.017,1.0165,0.9874,0.9446,0.9133,0.8554,0.7871,0.7327,0.7354,0.7568,0.7392,0.744,0.7561,0.7644,0.7937,0.8287,0.8357,0.8655,0.8916,0.8973,0.8816,0.8683,0.8934,0.8802,0.8783,0.9188,0.9169,0.9134,0.9166,0.9154,0.894,0.8255,0.7881,0.7275,0.6241,0.5884,0.5494,0.4884,0.4622,0.4563,0.4732,0.3547,0.2912,0.316,0.2912,0.2653,0.2444,0.2607,0.2547,0.2238,0.2251,0.2262,0.2221,0.2261,0.2014,0.1524,0.1636,0.1366,1.8382,1.8878,1.9099,1.9294,1.956,1.9409,1.7967,1.7917,1.7802,1.6371,1.5668,1.5336,1.5336,1.4664,1.4387,1.5261,1.5361,1.5693,1.676,1.7877,1.8857,1.971,1.9449,1.9202,1.9202,1.8528,1.7922,1.755,1.681,1.6197,1.5739,1.5225,1.4902,1.4843,1.4764,1.4654,1.4515,1.4323,1.4222,1.4222,1.4222,1.4222,1.4212,1.3983,1.4011,1.4212,1.3888,0.0,1.3979,1.3891,1.3237,1.2289,1.2346,1.1641,1.0617,1.0694,1.0438,1.0061,0.9755,0.9072,0.827,0.7984,0.7994,0.8042,0.7752,0.7805,0.7902,0.7589,0.7823,0.819,0.8234,0.8592,0.8926,0.8985,0.8824,0.873,0.8956,0.8818,0.8768,0.909,0.9081,0.9049,0.9145,0.9145,0.9049,0.8765,0.837,0.7814,0.7041,0.6653,0.6219,0.5658,0.5363,0.5222,0.5308,0.4211,0.3494,0.3436,0.2968,0.2627,0.2487,0.2566,0.2486,0.2205,0.2241,0.2241,0.2201,0.2241,0.2038,0.1591,0.1681,0.1456,1.8795,1.9429,1.9994,2.0343,2.0503,2.0277,1.9133,1.8456,1.779,1.6713,1.5663,1.4947,1.511,1.4714,1.4387,1.4576,1.4991,1.5827,1.7413,1.8442,1.9196,1.9748,1.9798,1.9798,1.9798,1.9228,1.8821,1.8715,1.755,1.6698,1.6368,1.571,1.5235,1.4934,1.4971,1.4834,1.4473,1.4123,1.3938,1.3974,1.3938,1.3911,1.3911,1.3911,1.3911,1.3911,0.0,0.0,1.3697,1.3643,1.3213,1.2548,1.2209,1.1748,1.1301,1.1326,1.1099,1.0744,1.0328,0.9625,0.8916,0.8876,0.8789,0.8676,0.8431,0.8448,0.8451,0.7893,0.7881,0.8064,0.8252,0.8547,0.8835,0.8958,0.8958,0.8958,0.8926,0.892,0.8926,0.8958,0.8952,0.8926,0.8958,0.8958,0.8952,0.8926,0.8466,0.8031,0.7721,0.7256,0.6837,0.6564,0.6178,0.5937,0.5937,0.5144,0.4487,0.4042,0.3272,0.2751,0.2669,0.2522,0.2394,0.227,0.2266,0.2243,0.2201,0.2201,0.202,0.1658,0.1614,0.15,2.0056,2.0792,2.0879,1.9597,1.961,1.9648,1.8581,1.7903,1.7335,1.6638,1.5663,1.5185,1.6095,1.5819,1.5776,1.6732,1.6958,1.7413,1.8581,1.8895,1.9196,1.9748,1.9798,1.9798,1.9798,1.9695,1.9371,1.8741,1.8501,1.7825,1.6539,1.6255,1.5693,1.4695,1.4868,1.4771,1.4336,1.4147,1.4181,1.4414,1.4057,1.3911,1.3911,1.3911,1.3911,1.3882,0.0,1.3843,1.415,1.3546,1.3005,1.2548,1.204,1.161,1.1318,1.1427,1.1352,1.1116,1.0431,1.0285,1.0249,0.9418,0.9186,0.9315,0.9405,0.9114,0.8897,0.9647,0.9019,0.8326,0.894,0.8965,0.8802,0.8835,0.8835,0.877,0.8608,0.8576,0.8641,0.8802,0.8705,0.8641,0.8802,0.8835,0.877,0.8608,0.864,0.853,0.8155,0.7827,0.7504,0.7125,0.6759,0.6566,0.6566,0.5878,0.5328,0.5085,0.3962,0.3182,0.2948,0.2815,0.2703,0.2623,0.262,0.2486,0.2201,0.2201,0.2109,0.1928,0.1703,0.15,1.9347,2.0333,2.0817,1.971,2.0087,2.0426,1.9321,1.8656,1.8103,1.7551,1.6534,1.6007,1.6835,1.6773,1.6974,1.8091,1.8505,1.8769,1.897,1.9246,1.9509,1.9773,1.9798,1.9798,1.9798,1.9798,1.9669,1.9307,1.8939,1.8394,1.7715,1.6856,1.6162,1.5628,1.537,1.5071,1.4802,1.4288,1.4138,1.4283,1.3876,1.3765,1.3911,1.3911,1.3911,1.3882,0.0,1.3722,1.3609,1.3203,1.2754,1.2288,1.1739,1.143,1.1301,1.1377,1.1343,1.1276,1.1129,1.0899,1.0648,1.0357,1.0161,1.0004,1.0107,1.0064,1.0105,1.0758,1.0063,0.918,0.9525,0.9479,0.9274,0.899,0.877,0.8608,0.8511,0.8517,0.8517,0.8608,0.8549,0.8517,0.8608,0.8641,0.8608,0.8517,0.8685,0.8695,0.8256,0.8084,0.7849,0.7369,0.7065,0.6896,0.682,0.6431,0.5823,0.4924,0.4208,0.3681,0.3349,0.3336,0.3215,0.2976,0.2973,0.2796,0.2467,0.2467,0.2263,0.1884,0.177,0.1614,1.8627,1.9506,2.0201,1.9736,2.0464,2.1066,2.02,1.9597,1.907,1.8668,1.7689,1.7087,1.7664,1.8001,1.8454,1.9246,1.9748,1.9861,1.9472,1.9635,1.9798,1.9798,1.9798,1.9798,1.9798,1.9798,1.9798,1.9798,1.9267,1.8773,1.8484,1.7356,1.6552,1.614,1.5652,1.5272,1.4946,1.4318,1.4066,1.4138,1.3709,1.3617,1.3848,1.3893,1.3911,1.3939,1.381,1.357,1.3222,1.2905,1.2493,1.2061,1.1524,1.1377,1.1402,1.1352,1.1352,1.1403,1.1686,1.1385,1.0903,1.1223,1.1024,1.067,1.0872,1.1032,1.1248,1.1798,1.1317,1.0529,1.0346,1.0168,0.9958,0.9428,0.9113,0.8894,0.8829,0.8797,0.8765,0.8705,0.8765,0.8738,0.8549,0.8576,0.8576,0.8517,0.8667,0.8684,0.8311,0.8214,0.802,0.7546,0.7288,0.7122,0.696,0.6741,0.6111,0.4981,0.4507,0.4141,0.3842,0.3877,0.3717,0.3331,0.3369,0.3214,0.2818,0.2729,0.2464,0.2018,0.186,0.1748,1.8946,1.9033,1.9108,1.907,1.9911,2.0729,2.0641,2.0189,1.9736,1.9698,1.8832,1.8254,1.8782,1.9736,2.0478,2.0566,2.0603,2.0616,2.0578,2.0138,1.9798,1.9798,1.9798,1.9798,1.9798,1.9798,1.9798,1.9798,1.963,1.9007,1.7831,1.7563,1.6696,1.508,1.5338,1.5076,1.4184,1.4107,1.4165,1.4279,1.3764,1.3577,1.3722,1.3849,1.3968,1.4063,1.3553,1.3469,1.3583,1.2699,1.2255,1.2061,1.166,1.1553,1.1653,1.1519,1.1502,1.153,1.1739,1.1567,1.1311,1.166,1.1434,1.1204,1.203,1.1877,1.1727,1.3008,1.2978,1.242,1.158,1.1152,1.0798,1.0338,1.018,1.0085,0.9773,0.9709,0.9614,0.9306,0.9492,0.946,0.8641,0.8765,0.8861,0.8544,0.8528,0.8528,0.8495,0.8322,0.8084,0.7801,0.7535,0.7304,0.7106,0.6623,0.6292,0.6189,0.5115,0.4485,0.4525,0.4307,0.4004,0.3678,0.3917,0.3741,0.317,0.2862,0.2684,0.262,0.2061,0.1794,1.835,1.8744,1.892,1.8581,1.9334,2.0125,2.0125,1.9962,1.9999,2.0702,1.9974,1.9258,1.9472,2.0163,2.0691,2.0691,2.0691,2.0566,2.0175,1.9936,1.9798,1.9798,1.9798,1.9798,1.9798,1.9798,1.9773,1.9682,1.9408,1.8945,1.8295,1.7556,1.6798,1.605,1.5713,1.5384,1.5034,1.4445,1.4188,1.4228,1.3895,1.3738,1.3722,1.4308,1.4279,1.3719,1.3784,1.3488,1.2914,1.2476,1.2104,1.184,1.158,1.1477,1.1452,1.1393,1.1498,1.1731,1.2055,1.1935,1.1661,1.2064,1.1895,1.1643,1.2223,1.2436,1.2571,1.3288,1.3359,1.3086,1.2474,1.2058,1.1671,1.1173,1.0892,1.0703,1.0584,1.0553,1.0514,1.0395,1.0458,1.0426,1.011,0.9741,0.946,0.9332,0.899,0.8678,0.8533,0.8431,0.8226,0.7838,0.7456,0.7128,0.6859,0.6553,0.6321,0.6241,0.5612,0.5169,0.497,0.4998,0.4851,0.4521,0.4443,0.4198,0.3763,0.3454,0.3103,0.2687,0.2464,0.2241,1.7205,1.7647,1.7929,1.7944,1.8493,1.9221,1.9911,2.0213,2.0552,2.133,2.0727,2.0024,1.9836,2.044,2.0893,2.0717,2.0842,2.0817,2.0388,2.0024,1.9798,1.9798,1.9798,1.9798,1.9798,1.9798,1.9684,1.9432,1.9083,1.8672,1.8191,1.7291,1.6689,1.6447,1.5917,1.5553,1.5401,1.4779,1.431,1.4002,1.3995,1.3883,1.3666,1.4288,1.4242,1.3622,1.3745,1.3395,1.2732,1.2239,1.1849,1.1509,1.155,1.1502,1.1427,1.1377,1.1515,1.1782,1.23,1.2099,1.1764,1.2436,1.2271,1.1909,1.2432,1.2794,1.3078,1.3408,1.3511,1.3394,1.2962,1.2761,1.2551,1.202,1.1741,1.1524,1.143,1.1399,1.1368,1.1267,1.1337,1.1337,1.1048,1.0647,1.0274,1.0064,0.9458,0.8971,0.8785,0.8667,0.8493,0.8106,0.7589,0.7121,0.67,0.647,0.6256,0.6057,0.579,0.5527,0.531,0.5391,0.5288,0.5011,0.4888,0.4688,0.4381,0.3965,0.3546,0.3126,0.2904,0.264,1.5573,1.561,1.5909,1.709,1.741,1.7989,2.0176,2.1106,2.1509,2.1493,2.1081,2.0515,1.9911,2.0727,2.1333,2.0779,2.1144,2.1468,2.1468,2.0501,1.9798,1.9798,1.9798,1.9798,1.9786,1.9786,1.9572,1.9033,1.8734,1.8179,1.7254,1.6803,1.6385,1.5903,1.5772,1.5472,1.5023,1.4988,1.4543,1.3621,1.4006,1.3957,1.349,1.3647,1.3774,1.3851,1.3335,1.3165,1.3186,1.1984,1.1348,1.1146,1.1552,1.1703,1.1678,1.1553,1.1502,1.1616,1.2349,1.2034,1.1524,1.2772,1.2569,1.196,1.2749,1.3009,1.3086,1.3408,1.3511,1.3425,1.3103,1.3237,1.339,1.292,1.2797,1.2713,1.2367,1.2305,1.2205,1.1865,1.2066,1.2042,1.1173,1.1291,1.1283,1.0595,0.9888,0.9392,0.9298,0.9059,0.8817,0.8634,0.8056,0.7406,0.6674,0.6365,0.6062,0.5718,0.5577,0.5512,0.5495,0.5361,0.5203,0.5011,0.5203,0.5203,0.5011,0.428,0.3987,0.4089,0.3341,0.2901,1.5531,1.5872,1.6365,1.719,1.7965,1.8706,1.9334,1.9924,2.0526,2.133,2.1355,2.1106,2.0541,2.0717,2.0754,2.015,2.0188,2.03,2.03,1.9698,1.9233,1.9233,1.9233,1.9083,1.8719,1.8681,1.8557,1.8322,1.7961,1.7506,1.6953,1.654,1.6154,1.585,1.5783,1.5692,1.5555,1.4858,1.4564,1.464,1.4051,1.3541,1.3096,1.3714,1.3635,1.3051,1.3199,1.3001,1.2568,1.2197,1.1853,1.1543,1.1857,1.1744,1.1427,1.1477,1.1843,1.2305,1.2532,1.2435,1.2277,1.2652,1.2526,1.2269,1.25,1.2928,1.3374,1.3476,1.3511,1.3425,1.3103,1.3086,1.3105,1.2966,1.3122,1.3277,1.3177,1.3147,1.3108,1.3009,1.3078,1.3047,1.2787,1.2358,1.1905,1.1428,1.0666,0.9993,0.9496,0.9441,0.9266,0.8729,0.8312,0.7814,0.7218,0.6959,0.6611,0.6092,0.5914,0.575,0.5507,0.5467,0.5458,0.5485,0.5328,0.5219,0.5203,0.4854,0.4473,0.4089,0.3869,0.352,1.5224,1.5638,1.6091,1.6943,1.7885,1.8696,1.9208,1.9748,2.0401,2.1305,2.1345,2.1081,2.0754,2.0691,2.0578,2.0226,2.015,2.015,2.015,1.9497,1.9008,1.9008,1.8807,1.8568,1.8242,1.8204,1.8092,1.7784,1.7449,1.7072,1.6667,1.6054,1.5675,1.5555,1.5341,1.5211,1.5211,1.4594,1.435,1.4466,1.4081,1.3626,1.3205,1.3686,1.3477,1.2746,1.2933,1.2607,1.195,1.2231,1.2098,1.1734,1.1996,1.1877,1.1553,1.1578,1.1816,1.2183,1.2421,1.2323,1.2129,1.2487,1.2405,1.2201,1.2346,1.2817,1.3271,1.3108,1.3177,1.3177,1.2663,1.2637,1.2812,1.2966,1.3143,1.3339,1.3476,1.3399,1.3339,1.3476,1.3391,1.3339,1.3485,1.3108,1.2565,1.1993,1.1026,1.0243,0.9805,0.9778,0.9701,0.9384,0.9038,0.8495,0.7666,0.7479,0.7077,0.6281,0.6273,0.6072,0.5642,0.5534,0.5561,0.5701,0.5453,0.5366,0.5463,0.5176,0.4888,0.4574,0.4443,0.4049,1.4769,1.5076,1.5368,1.6519,1.7347,1.8184,1.9338,2.0068,2.0686,2.1292,2.1043,2.0691,2.0691,2.0691,2.0679,2.0629,2.0616,2.0616,2.0616,1.9648,1.8933,1.8933,1.8444,1.8103,1.8053,1.8053,1.7827,1.7297,1.7022,1.6707,1.628,1.5426,1.5012,1.5125,1.4603,1.4309,1.4309,1.4241,1.401,1.359,1.4027,1.3998,1.3598,1.3609,1.3287,1.2748,1.2606,1.2151,1.1525,1.2068,1.2105,1.1794,1.2024,1.2015,1.1902,1.1803,1.1696,1.17,1.2157,1.1929,1.1541,1.2313,1.2223,1.1883,1.2244,1.262,1.288,1.2492,1.2646,1.2757,1.2003,1.2062,1.2432,1.2792,1.2957,1.3095,1.3391,1.3211,1.3074,1.3369,1.3202,1.3083,1.3369,1.3455,1.3195,1.2332,1.1118,1.0266,1.0159,1.0132,1.0169,1.0294,1.0019,0.9333,0.8102,0.8011,0.7541,0.649,0.6605,0.6492,0.5937,0.5663,0.5583,0.5723,0.5561,0.5561,0.5723,0.5345,0.5215,0.5285,0.4975,0.4539,1.4429,1.4815,1.5368,1.6519,1.7238,1.7743,1.8008,1.861,1.9451,2.0634,2.0779,2.0691,2.0691,2.0691,2.0541,2.0062,1.9987,1.9987,1.9987,1.9058,1.8356,1.8356,1.789,1.7388,1.6901,1.6864,1.6647,1.6095,1.6015,1.5716,1.5087,1.4811,1.465,1.4566,1.4409,1.4309,1.4309,1.3879,1.384,0.0,1.3819,1.363,1.3517,1.3585,1.3146,1.2324,1.2196,1.2101,1.2002,1.172,1.1906,1.2295,1.2106,1.2042,1.2076,1.215,1.2344,1.2579,1.248,1.2348,1.2235,1.2211,1.2016,1.1832,1.1909,1.2218,1.25,1.2415,1.2449,1.2415,1.1934,1.1848,1.1951,1.2037,1.2543,1.3026,1.3103,1.2973,1.286,1.2928,1.2885,1.286,1.2936,1.3263,1.3195,1.2332,1.1608,1.1015,1.0623,1.0775,1.083,1.0493,1.0244,0.9766,0.8911,0.8738,0.8311,0.7448,0.7105,0.6873,0.6747,0.6087,0.5793,0.5933,0.5545,0.5545,0.5933,0.5696,0.548,0.5306,0.5219,0.5046,1.4576,1.508,1.5815,1.6753,1.7197,1.7429,1.7579,1.7895,1.8356,1.9083,1.9775,2.0277,2.0277,2.0277,2.0189,1.9849,1.9534,1.9433,1.9761,1.882,1.812,1.8204,1.7476,1.6748,1.6183,1.5881,1.5618,1.5349,1.5264,1.506,1.4727,1.4358,1.4146,1.4064,1.3757,1.3586,1.3586,1.327,1.3264,1.3529,1.3505,1.3505,1.3498,1.3274,1.2811,1.2151,1.1871,1.191,1.2125,1.1691,1.194,1.2624,1.2374,1.2291,1.2304,1.233,1.2423,1.2515,1.2429,1.2353,1.2251,1.1988,1.1834,1.1722,1.1593,1.1833,1.2089,1.191,1.1987,1.2011,1.1592,1.1464,1.1514,1.1666,1.2005,1.245,1.2903,1.2555,1.234,1.3008,1.2801,1.2645,1.305,1.2945,1.2554,1.1916,1.1391,1.1008,1.0819,1.101,1.1085,1.0887,1.0555,1.017,0.9711,0.9252,0.8753,0.8165,0.7787,0.7468,0.7252,0.6683,0.6328,0.6196,0.589,0.589,0.6196,0.596,0.5761,0.5631,0.5528,0.5328,1.458,1.5273,1.6128,1.6743,1.6953,1.7057,1.7188,1.7263,1.734,1.7401,1.8581,1.9618,1.9618,1.9721,1.9773,1.9685,1.9196,1.8996,1.9421,1.8571,1.7886,1.7904,1.6989,1.6158,1.5605,1.516,1.4865,1.4777,1.4662,1.4548,1.4461,1.389,1.3607,1.3607,1.3087,1.2803,1.2803,1.2745,1.2709,1.2721,1.3155,1.336,1.3342,1.2894,1.2483,1.2077,1.1744,1.1786,1.2092,1.1839,1.2138,1.2791,1.2691,1.2606,1.255,1.249,1.2398,1.2342,1.2393,1.2412,1.2329,1.1959,1.1834,1.1769,1.1418,1.1541,1.1731,1.1412,1.1576,1.1748,1.1277,1.12,1.1251,1.1434,1.1587,1.1939,1.2809,1.2131,1.1732,1.3008,1.2594,1.2293,1.3135,1.2491,1.1762,1.1438,1.098,1.0718,1.0871,1.0998,1.1124,1.1242,1.0803,1.0446,1.0277,0.9601,0.9027,0.8679,0.8415,0.8076,0.7635,0.7294,0.6985,0.6681,0.6355,0.6291,0.6453,0.619,0.6062,0.6062,0.5895,0.5653,1.3779,1.457,1.5527,1.5615,1.596,1.6148,1.579,1.5917,1.6227,1.6567,1.7825,1.8847,1.8847,1.9371,1.966,1.9183,1.9021,1.8808,1.8298,1.7795,1.7277,1.6701,1.6153,1.5613,1.506,1.4934,1.4714,1.4236,1.4198,1.3948,1.3431,1.3261,1.3171,1.3171,1.298,1.2873,1.2803,1.2785,1.275,1.2709,1.2764,1.2818,1.28,1.2734,1.2471,1.2096,1.2041,1.2053,1.2099,1.2175,1.2449,1.2786,1.2839,1.2818,1.2754,1.2736,1.2956,1.3186,1.2982,1.3208,1.3437,1.2716,1.2399,1.2203,1.1635,1.1588,1.1664,1.1511,1.1763,1.1966,1.1536,1.1519,1.1511,1.1082,1.1541,1.2226,1.2866,1.2075,1.1421,1.2058,1.1735,1.1568,1.2243,1.1782,1.1339,1.1397,1.0902,1.0624,1.0871,1.0922,1.0972,1.1124,1.0745,1.0398,1.014,0.976,0.9336,0.8899,0.8662,0.8413,0.8121,0.7774,0.7663,0.7773,0.6747,0.6349,0.6668,0.6447,0.6346,0.6346,0.6325,0.6282,1.4795,1.5166,1.5537,1.5995,1.6103,1.5977,1.5508,1.5513,1.5608,1.5568,1.6377,1.7447,1.8496,1.8965,1.9109,1.8921,1.8634,1.8335,1.8038,1.7586,1.7207,1.6992,1.6199,1.548,1.4947,1.4312,1.3848,1.3609,1.3596,1.3483,1.321,1.3163,1.3163,1.3163,1.306,1.3007,1.2973,1.2855,1.2768,1.2709,1.2709,1.2709,1.2709,1.2709,1.2591,1.2419,1.2204,1.224,1.2422,1.2263,1.2408,1.2736,1.2776,1.2978,1.3238,1.3205,1.3466,1.3827,1.3716,1.3836,1.3931,1.3351,1.3174,1.3044,1.2325,1.2172,1.2187,1.2138,1.2236,1.2369,1.2344,1.2221,1.2208,1.2685,1.2421,1.2425,1.3765,1.2704,1.1484,1.154,1.1606,1.1705,1.1854,1.1496,1.119,1.1117,1.0824,1.0667,1.0871,1.0972,1.1023,1.1099,1.0577,1.0281,1.0416,0.9744,0.9366,0.9461,0.909,0.8847,0.8773,0.8247,0.8064,0.8221,0.751,0.7147,0.714,0.6943,0.6753,0.6568,0.6453,0.6395,1.5146,1.5254,1.5245,1.6015,1.6064,1.584,1.5488,1.5322,1.5195,1.498,1.5217,1.5956,1.7664,1.8195,1.831,1.8203,1.7991,1.7787,1.7615,1.7264,1.701,1.6929,1.6187,1.5449,1.4765,1.3923,1.3366,1.321,1.3198,1.3198,1.3198,1.3198,1.3198,1.3198,1.3146,1.3124,1.3107,1.289,1.2768,1.2709,1.2709,1.2709,1.2709,1.2709,1.2709,1.2692,1.2383,1.2419,1.2692,1.2529,1.2559,1.2715,1.2842,1.3194,1.3558,1.3476,1.3833,1.4381,1.4331,1.4421,1.4455,1.4025,1.3897,1.3792,1.302,1.2827,1.2861,1.2803,1.2875,1.2982,1.3078,1.2909,1.2895,1.3665,1.331,1.3017,1.3966,1.293,1.1693,1.1265,1.1544,1.177,1.1563,1.1381,1.1185,1.104,1.0896,1.082,1.0896,1.0965,1.1015,1.104,1.0278,1.0011,1.0602,0.9745,0.937,0.9858,0.945,0.9182,0.9172,0.8577,0.8319,0.8467,0.8201,0.7884,0.7551,0.7398,0.7168,0.6873,0.6681,0.6581,1.3516,1.389,1.428,1.4775,1.5166,1.5439,1.542,1.5107,1.4922,1.5303,1.4727,1.4583,1.581,1.6777,1.7183,1.6609,1.7036,1.7215,1.6576,1.652,1.6307,1.567,1.5661,1.5299,1.4236,1.4091,1.3815,1.3235,1.3198,1.3198,1.3198,1.3198,1.3198,1.3198,1.3198,1.3163,1.3107,1.289,1.2768,1.2709,1.2709,1.2709,1.2709,1.2709,1.2709,1.2709,1.2692,1.2692,1.2745,1.3221,1.3137,1.274,1.3263,1.3473,1.3486,1.336,1.3979,1.4843,1.471,1.5017,1.5345,1.4823,1.4479,1.4154,1.3535,1.3447,1.3515,1.3379,1.3627,1.3849,1.3474,1.3471,1.3406,1.2813,1.3796,1.4337,1.2535,1.2158,1.1965,1.1243,1.1285,1.1411,1.1327,1.1369,1.136,1.1301,1.1175,1.1049,1.0922,1.0804,1.0759,1.0906,0.9844,0.9525,1.0434,0.9819,0.9525,0.9874,0.9581,0.9291,0.9109,0.8648,0.8488,0.8675,0.8541,0.8214,0.7691,0.767,0.7566,0.7349,0.723,0.7069,1.3695,1.3792,1.3896,1.4609,1.4902,1.4941,1.463,1.4902,1.5078,1.465,1.4319,1.4145,1.4333,1.5239,1.5911,1.5734,1.6279,1.6516,1.585,1.6185,1.6541,1.6695,1.6425,1.607,1.5668,1.5009,1.4387,1.3815,1.3416,1.3198,1.3198,1.3198,1.3198,1.3198,1.3198,1.3163,1.3107,1.3037,1.292,1.275,1.275,1.2745,1.2709,1.2709,1.2709,1.2709,1.2709,1.2709,1.2704,1.2914,1.286,1.274,1.3288,1.3653,1.3879,1.3938,1.4287,1.4771,1.472,1.4833,1.4978,1.4971,1.4937,1.4857,1.4339,1.4199,1.4233,1.4176,1.4222,1.4292,1.4444,1.4235,1.3992,1.4059,1.4989,1.5567,1.4582,1.357,1.2753,1.2426,1.2214,1.2187,1.2641,1.2204,1.1882,1.2203,1.194,1.1783,1.208,1.1847,1.1614,1.1491,1.1214,1.098,1.0889,1.0716,1.0627,1.0673,0.9946,0.9504,0.9428,0.8802,0.85,0.8582,0.8488,0.8311,0.803,0.803,0.7878,0.7587,0.7321,0.7167,1.3603,1.3613,1.3711,1.457,1.457,1.4434,1.4717,1.5,1.5078,1.4621,1.4426,1.4219,1.3773,1.4198,1.4664,1.4779,1.538,1.5741,1.5491,1.6044,1.6702,1.7338,1.7212,1.7011,1.6823,1.5969,1.5135,1.4412,1.384,0.0,1.321,1.3198,1.3198,1.3198,1.3198,1.3163,1.3107,1.3107,1.3007,1.2838,1.2838,1.2803,1.2727,1.2727,1.2727,1.2709,1.2709,1.2709,1.2709,1.2709,1.2709,1.274,1.3245,1.3627,1.3923,1.411,1.4443,1.4789,1.4662,1.4779,1.4988,1.5061,1.5165,1.5165,1.4869,1.4731,1.4708,1.4708,1.4616,1.4616,1.4914,1.4685,1.4513,1.5219,1.5692,1.5959,1.5924,1.482,1.3736,1.3359,1.3113,1.3066,1.3347,1.2875,1.2584,1.2895,1.2584,1.2438,1.2764,1.2551,1.2305,1.215,1.2038,1.185,1.1557,1.1481,1.1411,1.1316,1.0418,0.9914,0.9913,0.9228,0.8869,0.8869,0.8817,0.8671,0.8394,0.8311,0.8106,0.7787,0.7545,0.7314,0.0,0.0,0.0,1.4541,1.4121,1.3936,1.5625,1.5371,1.4883,1.5293,1.5049,1.4639,1.4202,1.3773,1.3561,1.3754,1.4294,1.4903,1.5499,1.605,1.665,1.7343,1.7877,1.799,1.7473,1.6886,1.6082,1.4997,1.4425,1.3853,1.3248,1.321,1.3198,1.3198,1.3198,1.3163,1.3107,1.3107,1.3042,1.2908,1.2908,1.2873,1.2803,1.2803,1.275,1.2709,1.2709,1.2709,1.2709,1.2709,1.2721,1.2764,1.3145,1.3397,1.3576,1.3832,1.4373,1.4973,1.4633,1.496,1.547,1.5199,1.512,1.5142,1.5085,1.5017,1.4926,1.4915,1.4846,1.4811,1.4799,1.4729,1.4929,1.6147,1.5865,1.5506,1.6193,1.5701,1.4852,1.3912,1.3937,1.3944,1.3357,1.3348,1.3386,1.3266,1.3112,1.2991,1.2861,1.2789,1.2781,1.2812,1.221,1.1952,1.2372,1.2002,1.1733,1.171,1.0958,1.0501,1.0503,0.9919,0.9619,0.9619,0.9619,0.935,0.8834,0.8557,0.8283,0.8,0.7933,0.7538,1.3792,0.0,0.0,0.0,0.0,0.0,1.3747,1.4043,1.4319,1.4436,1.4367,1.4375,1.457,1.4004,1.3518,1.3566,1.4214,1.4766,1.4926,1.5842,1.6859,1.7854,1.8116,1.8141,1.799,1.7476,1.6685,0.0,1.4972,1.4437,1.3878,1.3428,1.3198,1.3198,1.3198,1.3181,1.3163,1.3163,1.3129,1.3042,1.3042,1.2978,1.2873,1.282,1.2785,1.2768,1.2727,1.2709,1.2709,1.2709,1.2866,1.3145,1.3351,1.3808,1.4349,1.4233,1.466,1.5291,1.518,1.5462,1.5835,1.5729,1.5923,1.6012,1.5211,1.5199,1.5402,1.4958,1.4742,1.4728,1.5072,1.5209,1.5538,1.6715,1.648,1.6269,1.7133,1.6479,1.5549,1.486,1.4764,1.4806,1.4725,1.4233,1.3915,1.4163,1.3928,1.3858,1.4186,1.3964,1.3712,1.3545,1.3594,1.3436,1.289,1.2679,1.2453,1.2158,1.1114,1.0501,1.0505,1.0071,0.9826,0.9826,0.9826,0.9747,0.959,0.8987,0.8549,0.8283,0.8023,0.7704,1.4153,1.3929,1.3809,1.3994,0.0,0.0,1.3629,1.3779,1.3899,1.4075,1.425,1.4505,1.4891,1.471,1.4557,1.4706,1.5311,1.5532,1.48,1.5722,1.6796,1.7754,1.8066,1.8204,1.8204,1.7702,1.7033,1.6107,1.553,1.4896,1.4141,1.3765,1.3453,1.321,1.3198,1.3198,1.3198,1.3198,1.3181,1.3141,1.3141,1.3094,1.2978,1.2938,1.289,1.285,1.3076,1.3155,1.318,1.3399,1.3451,1.3445,1.405,1.4399,1.4553,1.4696,1.5059,1.5481,1.5544,1.5904,1.6308,1.615,1.6344,1.6484,1.5816,1.5802,1.5935,1.558,1.5201,1.4914,1.4909,1.5171,1.5648,1.6607,1.6562,1.6455,1.6987,1.6521,1.588,1.5465,1.5222,1.5064,1.5021,1.4533,1.4267,1.4557,1.4348,1.4291,1.4684,1.45,1.4303,1.4142,1.4396,1.4314,1.3647,1.3501,1.3177,1.2581,1.1725,1.1151,1.0935,1.0615,1.0437,1.0447,1.0447,1.0321,1.0108,0.945,0.9007,0.872,0.8386,0.8082,1.4358,1.425,1.4319,1.4639,1.3926,0.0,1.4355,1.4106,1.3775,1.4064,1.4528,1.4948,1.5232,1.5584,1.5939,1.6227,1.6804,1.6681,1.5187,1.5916,1.6829,1.7418,1.7953,1.8242,1.8129,1.7727,1.72,1.655,1.6007,1.5261,1.4236,1.4141,1.3815,1.3223,1.3198,1.3198,1.3198,1.3198,1.3198,1.3198,1.3198,1.3163,1.3107,1.3107,1.3079,1.3036,1.3557,1.3834,1.3933,1.4516,1.4333,1.3807,1.4894,1.4996,1.4622,1.5229,1.5597,1.5832,1.5948,1.6407,1.6896,1.6615,1.6637,1.6747,1.6658,1.6583,1.6468,1.633,1.5807,1.5178,1.4629,1.4909,1.5472,1.6148,1.6252,1.6193,1.6249,1.6031,1.5799,1.5738,1.5386,1.4976,1.4635,1.4477,1.4454,1.4557,1.4477,1.4454,1.4581,1.4604,1.4604,1.4604,1.4707,1.4651,1.4354,1.4216,1.3769,1.2868,1.2499,1.2045,1.1518,1.1333,1.1239,1.1223,1.1223,1.0985,1.0495,0.9913,0.9509,0.9277,0.8947,0.8635,1.5157,1.5166,1.4991,1.4387,1.459,0.0,1.3506,1.4053,1.4707,1.4398,1.48,1.5336,1.5745,1.5609,1.5427,1.551,1.6125,1.6634,1.6764,1.741,1.7911,1.8041,1.8506,1.8494,1.7626,1.784,1.7614,1.6575,1.6007,1.5424,1.479,1.4324,1.3815,1.3223,1.3198,1.3198,1.3198,1.3198,1.3198,1.3198,1.3198,1.3181,1.3181,1.3124,1.3325,1.3698,1.3766,1.4043,1.4504,1.5379,1.5389,1.4849,1.4793,1.5254,1.5978,1.5797,1.635,1.721,1.7238,1.7505,1.7783,1.7332,1.7481,1.7691,1.7039,1.6947,1.6839,1.5816,1.5417,1.5268,1.5156,1.52,1.5472,1.6148,1.5883,1.5595,1.597,1.535,1.4825,1.517,1.517,1.4952,1.4518,1.443,1.4407,1.4454,1.443,1.4454,1.4581,1.4604,1.4604,1.4604,1.4627,1.4426,1.3882,1.3805,1.3379,1.2387,1.2262,1.2003,1.1507,1.1456,1.1448,1.1448,1.1448,1.1306,1.1048,1.0234,0.9826,0.9747,0.9469,0.9319,1.6065,1.6061,1.6157,1.598,1.5695,0.0,0.0,1.4778,1.4915,1.4942,1.5136,1.5572,1.6474,1.6408,1.6321,1.6681,1.7279,1.7701,1.7738,1.8001,1.8103,1.7827,1.8279,1.8268,1.7486,1.7626,1.7438,1.6563,1.6534,1.6191,1.5349,1.479,1.4249,1.3677,1.3366,1.3198,1.3198,1.3198,1.3198,1.3198,1.3198,1.3198,1.321,1.3486,1.3743,1.4031,1.4524,1.4903,1.5214,1.595,1.6089,1.5858,1.6034,1.6329,1.6724,1.6848,1.7286,1.7817,1.8023,1.8215,1.8309,1.8069,1.8162,1.8278,1.7871,1.7718,1.7406,1.5995,1.5591,1.5535,1.5181,1.5352,1.5683,1.6029,1.5965,1.5816,1.5686,1.5115,1.4671,1.4737,1.4744,1.4692,1.444,1.4396,1.4396,1.4396,1.4396,1.443,1.45,1.45,1.45,1.45,1.45,1.429,1.3751,1.3696,1.327,1.2265,1.221,1.1984,1.1526,1.1504,1.1504,1.1504,1.1504,1.1448,1.1351,1.0916,1.0562,1.0302,1.003,0.9814,1.6866,1.706,1.7445,1.7623,1.6961,1.6317,0.0,0.0,0.0,1.5643,1.5689,1.5995,1.6955,1.7063,1.7218,1.7922,1.8417,1.8569,1.8254,1.8204,1.8003,1.7473,1.7965,1.8103,1.7473,1.7297,1.7024,1.6538,1.6848,1.6681,1.5743,1.5299,1.4815,1.428,1.3672,1.3366,1.3366,1.3248,1.3198,1.3198,1.3198,1.3248,1.3391,1.3883,1.4217,1.4462,1.5324,1.5756,1.5881,1.6312,1.65,1.6566,1.7157,1.7296,1.7223,1.7748,1.8066,1.8253,1.8552,1.8667,1.8667,1.8667,1.8721,1.8747,1.8694,1.8484,1.7976,1.6559,1.6147,1.5984,1.52,1.5498,1.595,1.5857,1.6033,1.6056,1.5468,1.5175,1.4903,1.4558,1.4558,1.4558,1.4419,1.4396,1.4396,1.4396,1.4443,1.4433,1.4287,1.4388,1.4456,1.4368,1.4357,1.4159,1.3696,1.3663,1.3192,1.2134,1.2156,1.1984,1.1526,1.1504,1.1504,1.1504,1.1504,1.1504,1.1504,1.1504,1.1287,1.084,1.0563,1.0283,1.7495,1.8153,1.8592,1.7389,1.8171,1.8717,1.6836,0.0,1.781,1.6551,0.0,1.7045,1.6654,0.0,0.0,1.7388,1.7549,1.7714,1.8141,1.8204,1.8003,1.7473,1.8304,1.8506,1.7511,1.6923,1.6563,1.65,1.612,1.5831,1.5706,1.563,1.5361,1.484,1.4274,1.3997,1.3997,1.3483,1.3198,1.3198,1.3198,1.3483,1.3997,1.4078,1.4626,1.5537,1.5663,1.5969,1.64,1.6475,1.65,1.6513,1.6595,1.7072,1.7713,1.7787,1.8286,1.8888,1.8948,1.896,1.896,1.896,1.9131,1.9263,1.9013,1.8756,1.8336,1.735,1.7049,1.6811,1.5715,1.5845,1.6138,1.5668,1.5573,1.5573,1.5506,1.5436,1.5322,1.4926,1.5142,1.5176,1.4512,1.4396,1.4396,1.4396,1.464,1.4586,1.3872,1.4406,1.4677,1.4281,1.4169,1.3966,1.3565,1.3469,1.291,1.1664,1.1962,1.1984,1.1526,1.1504,1.1504,1.1504,1.1504,1.1504,1.1504,1.1504,1.1466,1.14,1.1067,1.0905,1.7897,1.8873,1.9897,1.9278,1.9449,1.9526,1.8582,1.8371,1.8277,1.7958,0.0,0.0,0.0,0.0,0.0,0.0,1.7162,1.7373,1.7237,1.779,1.8003,1.7473,1.8078,0.0,1.7473,1.7739,1.7553,1.6575,1.6622,1.6522,1.6183,1.5869,1.5613,1.5374,1.4538,1.4236,1.4563,1.3991,1.3891,1.4186,1.4186,1.4331,1.4576,1.489,1.5273,1.5718,1.6032,1.6287,1.65,1.65,1.65,1.65,1.65,1.6945,1.7602,1.7735,1.802,1.8311,1.8311,1.8311,1.836,1.8664,1.8851,1.8902,1.88,1.8794,1.8623,1.769,1.7436,1.7243,1.6474,1.6415,1.6451,1.5922,1.5692,1.559,1.5509,1.5409,1.5322,1.5264,1.5367,1.5296,1.4628,1.4516,1.4516,1.4516,1.4374,1.4257,1.4231,1.4522,1.4656,1.4448,1.4413,1.4101,1.3336,1.3089,1.2625,1.1793,1.1762,1.187,1.2009,1.1851,1.1822,1.2016,1.1822,1.173,1.173,1.13,1.1096,1.1096,1.096,1.075,1.8578,1.9534,2.0654,2.049,2.0264,1.9999,1.9836,1.9321,1.8907,1.8983,1.8505,0.0,0.0,0.0,1.714,1.6989,0.0,1.74,1.6835,1.7325,1.7589,1.7187,1.7639,0.0,0.0,1.7854,1.7804,1.6588,1.6773,1.6798,1.6513,1.6132,1.5919,1.5919,1.516,1.4936,1.5331,1.4954,1.4878,1.512,1.512,1.521,1.5357,1.5585,1.585,1.6158,1.6524,1.6629,1.6522,1.665,1.6693,1.6693,1.6543,1.6838,1.7368,1.7602,1.7782,1.7931,1.8079,1.8227,1.84,1.8796,1.8919,1.8919,1.8919,1.8958,1.8871,1.8179,1.7983,1.786,1.732,1.7172,1.7087,1.6694,1.6241,1.5944,1.6021,1.5784,1.559,1.5696,1.5746,1.5578,1.4943,1.4721,1.4547,1.4406,1.4129,1.3996,1.417,1.4384,1.4482,1.434,1.4308,1.4013,1.3307,1.2929,1.2535,1.207,1.1851,1.1936,1.2383,1.2174,1.2087,1.2207,1.1936,1.1708,1.1536,1.1058,1.0704,1.0498,1.0563,1.0457,0.0,0.0,2.0553,1.9962,2.0264,2.0515,1.9924,2.0239,2.0314,1.9221,1.9397,1.9409,1.8392,1.8594,1.8744,1.8242,1.8166,0.0,0.0,1.6911,1.655,1.6525,1.7049,1.7187,0.0,1.655,1.655,0.0,1.6045,1.5969,1.6475,1.6475,1.6475,1.6475,1.6437,1.6421,1.6447,1.6441,1.6182,1.5676,1.5676,1.5962,1.6434,1.5931,1.6278,1.7244,1.7193,1.6926,1.6543,1.6989,1.7178,1.7136,1.6693,1.6791,1.7219,1.7356,1.7739,1.8255,1.8795,1.9309,1.9748,1.9773,1.9747,1.9747,1.9747,1.9396,1.8995,1.8958,1.8958,1.882,1.8293,1.8155,1.8155,1.813,1.7277,1.6626,1.7202,1.6876,1.642,1.629,1.638,1.6248,1.5604,1.4995,1.443,1.3906,1.4094,1.4013,1.324,1.3827,1.4143,1.3684,1.356,1.3548,1.3587,1.3101,1.2686,1.2395,1.2377,1.2377,1.2395,1.2395,1.2171,1.1728,1.1578,1.1239,1.0639,1.0802,1.0498,0.975,1.0001,1.0124,0.0,0.0,2.1006,2.0037,0.0,0.0,2.0012,2.0277,2.0478,1.9698,1.9673,1.9585,1.8857,1.8882,1.882,1.8292,1.8204,1.8016,0.0,1.6886,1.65,1.65,1.7024,1.7149,1.655,0.0,0.0,0.0,1.6325,0.0,1.6488,1.6837,1.7034,1.7034,1.7469,1.7855,1.8235,1.7865,1.7749,1.7881,1.7478,1.7357,1.7496,1.7297,1.7417,1.7754,1.7646,1.7516,1.7359,1.7537,1.7598,1.7578,1.7421,1.7462,1.7563,1.7357,1.7381,1.7552,1.7746,1.7881,1.807,1.8885,1.9285,1.9606,2.0374,2.0466,2.0322,2.0322,2.0322,2.0143,1.9318,1.932,1.9384,1.8737,1.8211,1.7926,1.8258,1.7573,1.6842,1.6671,1.638,1.5896,1.505,1.4733,1.4488,1.4175,1.3931,1.3804,1.3883,1.4131,1.4243,1.4079,1.4036,1.3952,1.3756,1.336,1.3091,1.2993,1.2836,1.2918,1.3306,1.3109,1.283,1.25,1.2237,1.1805,1.1189,1.0764,1.0437,1.0156,0.9935,0.9782,1.9271,2.0075,0.0,1.9987,2.0501,0.0,2.0012,0.0,2.083,2.0251,2.0112,2.0062,1.9924,1.9547,1.9108,1.8556,1.8306,1.794,0.0,1.676,1.65,1.65,1.6848,1.7011,1.6835,1.6974,1.6999,1.6835,1.6613,1.6573,0.0,0.0,1.7394,1.7585,1.8186,1.8681,1.9029,1.8849,1.8829,1.8957,1.8747,1.8637,1.8585,1.8425,1.8425,1.8545,1.8204,1.7948,1.7808,1.7968,1.8048,1.8028,1.7868,1.7888,1.7988,1.7578,1.7525,1.7668,1.7668,1.7715,1.7957,1.8943,1.941,1.9757,2.0713,2.0993,2.0993,2.0993,2.0993,2.0851,2.025,2.0133,2.0103,1.9669,1.9184,1.8919,1.9232,1.8376,1.7455,1.7188,1.6788,1.6133,1.4908,1.5049,1.5029,1.4227,1.3839,1.3723,1.408,1.4119,1.4119,1.4119,1.4119,1.4029,1.3814,1.3611,1.3467,1.3467,1.3268,1.3243,1.3441,1.3205,1.3038,1.2941,1.2283,1.1852,1.1685,1.084,1.0367,1.0246,1.007,0.9858]}]]